[[{"header":{"parameterUnit":"m.s-1","parameterCategory":1,"la1":30.6,"la2":28.766,"lo1":-90.7593,"lo2":-88.6598,"dx":0.0162,"dy":0.0183,"nx":116,"ny":114,"refTime":"2023-01-06T18:00:00:Z","depth":0,"parameterNumber":2,"parameterNumberName":"U-component_of_WINDS"},"data":[0.0,0.0,0.0,0.0,0.0,0.0,0.0,0.0,0.0,0.0,0.0,0.0,0.0,0.0,0.0,0.0,0.0,0.0,0.0,0.0,0.0,0.0,0.0,0.0,0.0,0.0,0.0,0.0,0.0,0.0,0.0,0.0,0.0,0.0,0.0,0.0,0.0,0.0,0.0,0.0,0.0,0.0,0.0,0.0,0.0,0.0,0.0,0.0,0.0,0.0,0.0,0.0,0.0,0.0,0.0,0.0,0.0,0.0,0.0,0.0,0.0,0.0,0.0,0.0,0.0,0.0,0.0,0.0,0.0,0.0,0.0,0.0,0.0,0.0,0.0,0.0,0.0,0.0,0.0,0.0,0.0,0.0,0.0,0.0,0.0,0.0,0.0,0.0,0.0,0.0,0.0,0.0,0.0,0.0,0.0,0.0,0.0,0.0,0.0,0.0,0.0,0.0,0.0,0.0,0.0,0.0,0.0,0.0,0.0,0.0,0.0,0.0,0.0,0.0,0.0,0.0,0.0,0.0,0.0,0.0,0.0,0.0,0.0,0.0,0.0,0.0,0.0,0.0,0.0,0.0,0.0,0.0,0.0,0.0,0.0,0.0,0.0,0.0,0.0,0.0,0.0,0.0,0.0,0.0,0.0,0.0,0.0,0.0,0.0,0.0,0.0,0.0,0.0,0.0,0.0,0.0,0.0,0.0,0.0,0.0,0.0,0.0,0.0,0.0,0.0,0.0,0.0,0.0,0.0,0.0,0.0,0.0,0.0,0.0,0.0,0.0,0.0,0.0,0.0,0.0,0.0,0.0,0.0,0.0,0.0,0.0,0.0,0.0,0.0,0.0,0.0,0.0,0.0,0.0,0.0,0.0,0.0,0.0,0.0,0.0,0.0,0.0,0.0,0.0,0.0,0.0,0.0,0.0,0.0,0.0,0.0,0.0,0.0,0.0,0.0,0.0,0.0,0.0,0.0,0.0,0.0,0.0,0.0,0.0,0.0,0.0,0.0,0.0,0.0,0.0,0.0,0.0,0.0,0.0,0.0,0.0,0.0,0.0,0.0,0.0,0.0,0.0,0.0,0.0,0.0,0.0,0.0,0.0,0.0,0.0,0.0,0.0,0.0,0.0,0.0,0.0,0.0,0.0,0.0,0.0,0.0,0.0,0.0,0.0,0.0,0.0,0.0,0.0,0.0,0.0,0.0,0.0,0.0,0.0,0.0,0.0,0.0,0.0,0.0,0.0,0.0,0.0,0.0,0.0,0.0,0.0,0.0,0.0,0.0,0.0,0.0,0.0,0.0,0.0,0.0,0.0,0.0,0.0,0.0,0.0,0.0,0.0,0.0,0.0,0.0,0.0,0.0,0.0,0.0,0.0,0.0,0.0,0.0,0.0,0.0,0.0,0.0,0.0,0.0,0.0,0.0,0.0,0.0,0.0,0.0,0.0,0.0,0.0,0.0,0.0,0.0,0.0,0.0,0.0,0.0,0.0,0.0,0.0,0.0,0.0,0.0,0.0,0.0,0.0,0.0,0.0,0.0,0.0,0.0,0.0,0.0,0.0,0.0,0.0,0.0,0.0,0.0,0.0,0.0,0.0,0.0,0.0,0.0,0.0,0.0,0.0,0.0,0.0,0.0,0.0,0.0,0.0,0.0,0.0,0.0,0.0,0.0,0.0,0.0,0.0,0.0,0.0,0.0,0.0,0.0,0.0,0.0,0.0,0.0,0.0,0.0,0.0,0.0,0.0,0.0,0.0,0.0,0.0,0.0,0.0,0.0,0.0,0.0,0.0,0.0,0.0,0.0,0.0,0.0,0.0,0.0,0.0,0.0,0.0,0.0,0.0,0.0,0.0,0.0,0.0,0.0,0.0,0.0,0.0,0.0,0.0,0.0,0.0,0.0,0.0,0.0,0.0,0.0,0.0,0.0,0.0,0.0,0.0,0.0,0.0,0.0,0.0,0.0,0.0,0.0,0.0,0.0,0.0,0.0,0.0,0.0,0.0,0.0,0.0,0.0,0.0,0.0,0.0,0.0,0.0,0.0,0.0,0.0,0.0,0.0,0.0,0.0,0.0,0.0,0.0,0.0,0.0,0.0,0.0,0.0,0.0,0.0,0.0,0.0,0.0,0.0,0.0,0.0,0.0,0.0,0.0,0.0,0.0,0.0,0.0,0.0,0.0,0.0,0.0,0.0,0.0,0.0,0.0,0.0,0.0,0.0,0.0,0.0,0.0,0.0,0.0,0.0,0.0,0.0,0.0,0.0,0.0,0.0,0.0,0.0,0.0,0.0,0.0,0.0,0.0,0.0,0.0,0.0,0.0,0.0,0.0,0.0,0.0,0.0,0.0,0.0,0.0,0.0,0.0,0.0,0.0,0.0,0.0,0.0,0.0,0.0,0.0,0.0,0.0,0.0,0.0,0.0,0.0,0.0,0.0,0.0,0.0,0.0,0.0,0.0,0.0,0.0,0.0,0.0,0.0,0.0,0.0,0.0,0.0,0.0,0.0,0.0,0.0,0.0,0.0,0.0,0.0,0.0,0.0,0.0,0.0,0.0,0.0,0.0,0.0,0.0,0.0,0.0,0.0,0.0,0.0,0.0,0.0,0.0,0.0,0.0,0.0,0.0,0.0,0.0,0.0,0.0,0.0,0.0,0.0,0.0,0.0,0.0,0.0,0.0,0.0,0.0,0.0,0.0,0.0,0.0,0.0,0.0,0.0,0.0,0.0,0.0,0.0,0.0,0.0,0.0,0.0,0.0,0.0,0.0,0.0,0.0,0.0,0.0,0.0,0.0,0.0,0.0,0.0,0.0,0.0,0.0,0.0,0.0,0.0,0.0,0.0,0.0,0.0,0.0,0.0,0.0,0.0,0.0,0.0,0.0,0.0,0.0,0.0,0.0,0.0,0.0,0.0,0.0,0.0,0.0,0.0,0.0,0.0,0.0,0.0,0.0,0.0,0.0,0.0,0.0,0.0,0.0,0.0,0.0,0.0,0.0,0.0,0.0,0.0,0.0,0.0,0.0,0.0,0.0,0.0,0.0,0.0,0.0,0.0,0.0,0.0,0.0,0.0,0.0,0.0,0.0,0.0,0.0,0.0,0.0,0.0,0.0,0.0,0.0,0.0,0.0,0.0,0.0,0.0,0.0,0.0,0.0,0.0,0.0,0.0,0.0,0.0,0.0,0.0,0.0,0.0,0.0,0.0,0.0,0.0,0.0,0.0,0.0,0.0,0.0,0.0,0.0,0.0,0.0,0.0,0.0,0.0,0.0,0.0,0.0,0.0,0.0,0.0,0.0,0.0,0.0,0.0,0.0,0.0,0.0,0.0,0.0,0.0,0.0,0.0,0.0,0.0,0.0,0.0,0.0,0.0,0.0,0.0,0.0,0.0,0.0,0.0,0.0,0.0,0.0,0.0,0.0,0.0,0.0,0.0,0.0,0.0,0.0,0.0,0.0,0.0,0.0,0.0,0.0,0.0,0.0,0.0,0.0,0.0,0.0,0.0,0.0,0.0,0.0,0.0,0.0,0.0,0.0,0.0,0.0,0.0,0.0,0.0,0.0,0.0,0.0,0.0,0.0,0.0,0.0,0.0,0.0,0.0,0.0,0.0,0.0,0.0,0.0,0.0,0.0,0.0,0.0,0.0,0.0,0.0,0.0,0.0,0.0,0.0,0.0,0.0,0.0,0.0,0.0,0.0,0.0,0.0,0.0,0.0,0.0,0.0,0.0,0.0,0.0,0.0,0.0,0.0,0.0,0.0,0.0,0.0,0.0,0.0,0.0,0.0,0.0,0.0,0.0,0.0,0.0,0.0,0.0,0.0,0.0,0.0,0.0,0.0,0.0,0.0,0.0,0.0,0.0,0.0,0.0,0.0,0.0,0.0,0.0,0.0,0.0,0.0,0.0,0.0,0.0,0.0,0.0,0.0,0.0,0.0,0.0,0.0,0.0,0.0,0.0,0.0,0.0,0.0,0.0,0.0,0.0,0.0,0.0,0.0,0.0,0.0,0.0,0.0,0.0,0.0,0.0,0.0,0.0,0.0,0.0,0.0,0.0,0.0,0.0,0.0,0.0,0.0,0.0,0.0,0.0,0.0,0.0,0.0,0.0,0.0,0.0,0.0,0.0,0.0,0.0,0.0,0.0,0.0,0.0,0.0,0.0,0.0,0.0,0.0,0.0,0.0,0.0,0.0,0.0,0.0,0.0,0.0,0.0,0.0,0.0,0.0,0.0,0.0,0.0,0.0,0.0,0.0,0.0,0.0,0.0,0.0,0.0,0.0,0.0,0.0,0.0,0.0,0.0,0.0,0.0,0.0,0.0,0.0,0.0,0.0,0.0,0.0,0.0,0.0,0.0,0.0,0.0,0.0,0.0,0.0,0.0,0.0,0.0,0.0,0.0,0.0,0.0,0.0,0.0,0.0,0.0,0.0,0.0,0.0,0.0,0.0,0.0,0.0,0.0,0.0,0.0,0.0,0.0,0.0,0.0,0.0,0.0,0.0,0.0,0.0,0.0,0.0,0.0,0.0,0.0,0.0,0.0,0.0,0.0,0.0,0.0,0.0,0.0,0.0,0.0,0.0,0.0,0.0,0.0,0.0,0.0,0.0,0.0,0.0,0.0,0.0,0.0,0.0,0.0,0.0,0.0,0.0,0.0,0.0,0.0,0.0,0.0,0.0,0.0,0.0,0.0,0.0,0.0,0.0,0.0,0.0,0.0,0.0,0.0,0.0,0.0,0.0,0.0,0.0,0.0,0.0,0.0,0.0,0.0,0.0,0.0,0.0,0.0,0.0,0.0,0.0,0.0,0.0,0.0,0.0,0.0,0.0,0.0,0.0,0.0,0.0,0.0,0.0,0.0,0.0,0.0,0.0,0.0,0.0,0.0,0.0,0.0,0.0,0.0,0.0,0.0,0.0,0.0,0.0,0.0,0.0,0.0,0.0,0.0,0.0,0.0,0.0,0.0,0.0,0.0,0.0,0.0,0.0,0.0,0.0,0.0,0.0,0.0,0.0,0.0,0.0,0.0,0.0,0.0,0.0,0.0,0.0,0.0,0.0,0.0,0.0,0.0,0.0,0.0,0.0,0.0,0.0,0.0,0.0,0.0,0.0,0.0,0.0,0.0,0.0,0.0,0.0,0.0,0.0,0.0,0.0,0.0,0.0,0.0,0.0,0.0,0.0,0.0,0.0,0.0,0.0,0.0,0.0,0.0,0.0,0.0,0.0,0.0,0.0,0.0,0.0,0.0,0.0,0.0,0.0,0.0,0.0,0.0,0.0,0.0,0.0,0.0,0.0,0.0,0.0,0.0,0.0,0.0,0.0,0.0,0.0,0.0,0.0,0.0,0.0,0.0,0.0,0.0,0.0,0.0,0.0,0.0,0.0,0.0,0.0,0.0,0.0,0.0,0.0,0.0,0.0,0.0,0.0,0.0,0.0,0.0,0.0,0.0,0.0,0.0,0.0,0.0,0.0,0.0,0.0,0.0,0.0,0.0,0.0,0.0,0.0,0.0,0.0,0.0,0.0,0.0,0.0,0.0,0.0,0.0,0.0,0.0,0.0,0.0,0.0,0.0,0.0,0.0,0.0,0.0,0.0,0.0,0.0,0.0,0.0,0.0,0.0,0.0,0.0,0.0,0.0,0.0,0.0,0.0,0.0,0.0,0.0,0.0,0.0,0.0,0.0,0.0,0.0,0.0,0.0,0.0,0.0,0.0,0.0,0.0,0.0,0.0,0.0,0.0,0.0,0.0,0.0,0.0,0.0,0.0,0.0,0.0,0.0,0.0,0.0,0.0,0.0,0.0,0.0,0.0,0.0,0.0,0.0,0.0,0.0,0.0,0.0,0.0,0.0,0.0,0.0,0.0,0.0,0.0,0.0,0.0,0.0,0.0,0.0,0.0,0.0,0.0,0.0,0.0,0.0,0.0,0.0,0.0,0.0,0.0,0.0,0.0,0.0,0.0,0.0,0.0,0.0,0.0,0.0,0.0,0.0,0.0,0.0,0.0,0.0,0.0,0.0,0.0,0.0,0.0,0.0,0.0,0.0,0.0,0.0,0.0,0.0,0.0,0.0,0.0,0.0,0.0,0.0,0.0,0.0,0.8854,0.0,0.0,0.0,0.0,0.0,0.0,0.0,0.0,0.0,0.0,0.0,0.0,0.0,0.0,0.0,0.0,0.0,0.0,0.0,0.0,0.0,0.0,0.0,0.0,-0.1877,-0.192,-0.1988,-0.1995,0.0,0.0,0.0,0.0,0.0,0.0,0.0,0.0,0.0,-0.21,-0.21,-0.2036,-0.1837,-0.1514,-0.169,-0.1751,-0.1717,0.0,0.0,0.0,0.0,0.0,0.0,0.0,0.0,0.0,0.0,0.0,0.0,0.0,0.0,0.0,0.0,0.0,0.0,0.0,0.0,0.0,0.0,0.0,0.0,0.0,0.0,0.0,0.0,0.0,0.0,0.0,0.0,0.0,0.0,0.0,0.0,0.0,0.0,0.0,0.0,0.0,0.0,0.0,0.0,0.0,0.0,0.0,0.0,0.0,0.0,0.0,0.0,0.0,0.0,0.0,0.0,0.0,0.0,0.0,0.0,0.0,0.0,0.0,0.0,0.0,0.0,0.0,0.0,0.0,0.0,0.0,0.9832,0.0,0.0,0.0,0.0,0.0,0.0,0.0,0.0,0.0,0.0,0.0,0.0,0.0,0.0,0.0,0.0,0.0,0.0,0.0,0.0,0.0,-0.1844,-0.1909,-0.1979,-0.2054,-0.2159,-0.2169,-0.2169,-0.2169,-0.2169,0.0,0.0,0.0,0.0,-0.2169,-0.2226,-0.2206,-0.2112,-0.1787,-0.1489,-0.1213,-0.1155,-0.1095,-0.1052,-0.1192,0.0,0.0,0.0,0.0,0.0,0.0,0.0,0.0,0.0,0.0,0.0,0.0,0.0,0.0,0.0,0.0,0.0,0.0,0.0,0.0,0.0,0.0,0.0,0.0,0.0,0.0,0.0,0.0,0.0,0.0,0.0,0.0,0.0,0.0,0.0,0.0,0.0,0.0,0.0,0.0,0.0,0.0,0.0,0.0,0.0,0.0,0.0,0.0,0.0,0.0,0.0,0.0,0.0,0.0,0.0,0.0,0.0,0.0,0.0,0.0,0.0,0.0,0.0,0.9876,1.0156,1.0256,1.0878,1.1284,1.1527,1.159,1.1352,1.0955,0.0,0.0,0.0,0.0,0.0,0.0,0.0,0.0,0.0,0.0,0.0,0.0,0.0,0.0,0.0,0.0,0.0,0.0,0.0,0.0,-0.1915,-0.1981,-0.2048,-0.2068,-0.2031,-0.2024,-0.2024,-0.2024,-0.2024,0.0,0.0,0.0,-0.2083,-0.2024,-0.2309,-0.2234,-0.1762,-0.1204,-0.0907,-0.0861,-0.0572,-0.0423,-0.0453,-0.1148,-0.125,-0.0899,0.0,0.0,0.0,0.0,0.0,0.0,0.0,0.0,0.0,0.0,0.0,0.0,0.0,0.0,0.0,0.0,0.0,0.0,0.0,0.0,0.0,0.0,0.0,0.0,0.0,0.0,0.0,0.0,0.0,0.0,0.0,0.0,0.0,0.0,0.0,0.0,0.0,0.0,0.0,0.0,0.0,0.7132,0.7656,0.0,0.0,0.0,0.0,0.0,0.0,0.0,0.0,0.0,0.0,0.0,0.0,0.0,0.9234,0.9401,0.9416,0.9493,0.965,0.9723,0.9975,1.0383,1.0775,1.1488,1.2435,1.2661,0.0,1.079,1.1491,0.0,0.0,0.0,0.0,0.0,0.0,0.0,0.0,0.0,0.0,0.0,0.0,0.0,0.0,0.0,0.0,0.0,0.0,0.0,0.0,0.0,-0.2119,-0.2179,-0.222,-0.2296,-0.2333,-0.2333,-0.2403,0.0,0.0,-0.2474,-0.2483,-0.2449,-0.2336,-0.1898,-0.1135,-0.087,-0.0607,-0.0342,-0.0197,-0.0127,-0.0148,-0.058,-0.0694,-0.057,-0.0622,0.0,0.0,0.0,0.0,0.0,0.0,0.0,0.0,0.0,0.0,0.0,0.0,0.0,0.0,0.0,0.0,0.0,0.0,0.0,0.0,0.0,0.0,0.0,0.0,0.0,0.0,0.0,0.0,0.0,0.0,0.0,0.0,0.0,0.0,0.0,0.0,0.0,0.0,0.0,0.7273,0.7842,0.8044,0.8009,0.7989,0.0,0.0,0.0,0.0,0.0,0.0,0.0,0.0,0.0,0.9403,0.9403,0.9699,1.0287,1.0287,1.0518,1.1003,1.1361,1.1655,1.1881,1.2401,1.2707,1.2853,1.3355,1.3048,1.2251,1.2721,1.2279,1.1317,0.0,0.0,0.0,0.0,1.1491,1.2217,0.0,0.0,0.0,0.0,0.0,0.0,0.0,0.0,0.0,0.0,0.0,0.0,-0.2097,-0.2203,-0.2299,-0.2369,-0.2496,-0.2572,-0.2572,-0.2664,-0.272,-0.272,-0.2739,-0.2686,-0.255,-0.1986,-0.1369,-0.0704,-0.0578,-0.0346,0.0,0.0,0.0,0.0,-0.0101,-0.0201,-0.0274,-0.0292,-0.0329,-0.0375,0.0,0.0,0.0,0.0,0.0,0.0,0.0,0.0,0.0,0.0,0.0,0.0,0.0,0.0,0.0,0.0,0.0,0.0,0.0,0.0,0.0,0.0,0.0,0.0,0.0,0.0,0.0,0.0,0.0,0.0,0.0,0.0,0.0,0.0,0.0,0.0,0.0,0.813,0.8307,0.8355,0.8381,0.8366,0.0,0.0,0.0,0.0,0.0,0.0,0.9515,0.9653,0.9806,1.0005,1.0094,1.0487,1.1168,1.1175,1.1462,1.2017,1.2509,1.2824,1.2974,1.3467,1.348,1.317,1.3984,1.4042,1.3584,1.3965,1.3653,1.2915,1.2793,1.2712,1.2626,1.2333,1.2856,1.3736,0.0,0.0,0.0,0.0,0.0,0.0,0.0,0.0,0.0,0.0,0.0,-0.2092,-0.2104,-0.2327,-0.2436,-0.2312,-0.2427,-0.2502,-0.2502,-0.2508,-0.251,-0.251,-0.2581,-0.2369,-0.1861,-0.102,-0.0625,-0.0702,-0.0251,-0.0025,0.0,0.0,0.0,0.0,-0.0013,-0.0088,-0.0211,-0.0276,-0.0301,-0.03,-0.0309,0.0,0.0,0.0,0.0,0.0,0.0,0.0,0.0,0.0,0.0,0.0,0.0,0.0,0.0,0.0,0.0,0.0,0.0,0.0,0.0,0.0,0.0,0.0,0.0,0.0,0.0,0.0,0.0,0.0,0.0,0.0,0.0,0.0,0.0,0.0,0.0,0.0,0.0,0.8758,0.8886,0.0,0.0,0.0,0.0,0.9269,0.9413,0.969,1.0132,1.0585,1.0991,1.1388,1.1721,1.1906,1.1934,1.1934,1.1965,1.2,1.2034,1.2326,1.2811,1.2829,1.3084,1.3535,1.4723,1.4752,1.4033,1.4942,1.4962,1.4456,1.5071,1.4852,1.4284,1.5003,1.5316,1.5485,0.0,0.0,0.0,-0.1719,-0.1577,-0.1533,-0.1624,-0.1687,-0.179,-0.1976,-0.206,-0.2131,-0.2218,-0.2041,-0.2061,-0.2395,-0.2002,-0.1852,-0.2162,-0.23,-0.237,-0.237,-0.24,-0.1994,-0.1113,-0.0791,-0.0503,-0.0248,-0.0078,0.0,0.0,0.0,0.0,0.0,0.0,-0.0027,-0.0067,-0.0101,-0.016,-0.023,-0.0239,-0.0278,0.0,0.0,0.0,0.0,0.0,0.0,0.0,0.0,0.0,0.0,0.0,0.0,0.0,0.0,0.0,0.0,0.0,0.0,0.0,0.0,0.0,0.0,0.0,0.0,0.0,0.0,0.0,0.0,0.0,0.0,0.0,0.0,0.0,0.0,0.0,0.0,0.0,0.8796,0.9115,0.0,0.9392,0.9684,0.9995,1.0311,1.061,1.0951,1.1348,1.1515,1.167,1.1825,1.1937,1.2167,1.2503,1.2692,1.2946,1.3299,1.3508,1.3705,1.3896,1.3896,1.4,1.4204,1.5143,1.5664,1.5942,1.683,1.6412,1.5223,1.533,1.5564,1.584,1.5725,1.5943,1.6329,0.0,0.0,0.0,-0.151,-0.1502,-0.1566,-0.1655,-0.1779,-0.1907,-0.2019,-0.2112,-0.2199,-0.2288,-0.1959,-0.1898,-0.23,-0.1717,-0.1547,-0.2072,-0.2222,-0.2388,-0.2593,-0.2261,-0.1642,-0.0719,-0.0546,-0.0318,0.0,0.0,0.0,0.0,0.0,0.0,0.0,0.0,0.0,0.0,0.0,-0.0052,-0.0128,-0.0128,-0.0189,-0.0267,0.0,0.0,0.0,0.0,0.0,0.0,0.0,0.0,0.0,0.0,0.0,0.0,0.0,0.0,0.0,0.0,0.0,0.0,0.0,0.0,0.0,0.0,0.0,0.0,0.0,0.0,0.0,0.0,0.0,0.0,0.0,0.0,0.0,0.0,0.0,0.9149,0.9111,0.9523,0.9862,1.0003,1.0393,1.0809,1.124,1.1579,1.1859,1.2088,1.2252,1.2393,1.25,1.2625,1.2903,1.3371,1.3544,1.3818,1.4169,1.4389,1.4511,1.4511,1.4511,1.4511,1.455,1.5475,1.6173,1.6739,1.7681,1.7547,1.6711,1.6351,1.663,1.7195,1.679,1.7135,1.7803,0.0,0.0,-0.1474,-0.141,-0.1509,-0.1646,-0.1783,-0.1911,-0.2027,-0.2098,-0.2215,-0.2299,-0.2316,-0.2114,-0.1988,-0.2004,-0.1606,-0.162,-0.2237,-0.2284,-0.2534,-0.3129,-0.2126,-0.1277,-0.068,-0.0221,0.0014,0.0014,0.0014,0.0,0.0,0.0,0.0,0.0,0.0,0.0,0.0,0.0,0.0,0.0,0.0,-0.0078,-0.019,0.0,0.0,0.0,0.0,0.0,0.0,0.0,0.0,0.0,0.0,0.0,0.0,0.0,0.0,0.0,0.0,0.0,0.0,0.0,0.0,0.0,0.0,0.0,0.0,0.0,0.0,0.0,0.0,0.0,0.0,0.0,0.0,0.0,0.8895,0.9227,0.9577,0.9719,1.0147,1.0591,1.0998,1.1331,1.1677,1.2003,1.2218,1.2334,1.2356,1.2783,1.3184,1.3514,1.3854,1.4169,1.4504,1.4518,1.4506,1.4506,1.4514,1.4533,1.454,1.454,1.454,1.4614,1.5759,1.6241,1.636,1.7424,1.8313,1.8955,1.8285,1.8165,1.8341,1.8341,1.9003,1.9901,-0.2028,-0.1685,-0.1421,-0.1405,-0.1509,-0.1646,-0.1783,-0.1911,-0.206,-0.2221,-0.2275,-0.2379,-0.2569,-0.1933,-0.1647,-0.2037,-0.0952,-0.0687,-0.173,-0.1795,-0.1867,-0.2037,-0.1194,-0.047,0.0083,0.0223,0.0294,0.0294,0.0196,0.014,0.014,0.0042,0.0,0.0,0.0,0.0,0.0,0.0,0.0,0.0,0.0,-0.0027,-0.0054,0.0,0.0,0.0,0.0,0.0,0.0,0.0,0.0,0.0,0.0,0.0,0.0,0.0,0.0,0.0,0.0,0.0,0.0,0.0,0.0,0.0,0.0,0.0,0.0,0.0,0.0,0.0,0.0,0.0,0.0,0.0,0.0,0.9796,0.9361,0.9805,1.0265,1.0532,1.0946,1.1384,1.1882,1.2025,1.2255,1.2692,1.2773,1.3011,1.3503,1.3649,1.3884,1.4206,1.4308,1.4416,1.4511,1.4699,1.4789,1.4796,1.503,1.5221,1.537,1.537,1.5479,1.5718,1.6665,1.7403,1.8014,1.8934,1.9451,1.9589,1.8873,1.8938,1.9467,1.9467,1.9749,2.0129,-0.1899,-0.1613,-0.1415,-0.1471,-0.1594,-0.1726,-0.1864,-0.2024,-0.2172,-0.2286,-0.24,-0.2455,-0.241,-0.1771,-0.1385,-0.15,-0.0689,-0.0583,-0.1539,-0.1756,-0.163,-0.1119,-0.0644,-0.0154,0.0393,0.0407,0.0407,0.0407,0.0322,0.028,0.028,0.021,0.0168,0.0168,0.0168,0.014,0.0084,0.014,0.0098,0.0,0.0056,0.0056,0.0,0.0,0.0,0.0014,0.0067,0.0248,0.0464,0.0528,0.0,0.0,0.0,0.0,0.0,0.0,0.0,0.0,0.0,0.0,0.0,0.0,0.0,0.0,0.0,0.0,0.0,0.0,0.0,0.0,0.0,0.0,0.0,0.0,1.0229,1.0521,1.0291,1.0552,1.0911,1.1319,1.1638,1.2004,1.2478,1.2559,1.2816,1.3382,1.3418,1.3638,1.4177,1.4206,1.4352,1.4655,1.467,1.4728,1.4887,1.5037,1.5138,1.524,1.5432,1.5645,1.5873,1.5873,1.5955,0.0,1.6992,1.7836,1.8678,1.9639,2.0236,0.0,0.0,0.0,0.0,0.0,2.0771,2.0874,-0.1784,-0.1563,-0.1442,-0.1577,-0.171,-0.1848,-0.1979,-0.2166,-0.231,-0.2321,-0.2485,-0.2448,-0.2042,-0.1577,-0.1118,-0.0692,-0.0605,-0.0833,-0.1425,-0.1788,-0.1497,-0.0421,-0.0294,-0.0028,0.0449,0.0463,0.0463,0.0463,0.0435,0.0435,0.0435,0.0422,0.0409,0.0409,0.0411,0.034,0.024,0.0367,0.0267,0.0056,0.0168,0.014,0.0028,0.0028,0.0028,0.007,0.0252,0.0672,0.1147,0.1334,0.0,0.0,0.0,0.0,0.0,0.0,0.0,0.0,0.0,0.0,0.0,0.0,0.0,0.0,0.0,0.0,0.0,0.0,0.0,0.0,0.0,0.0,0.0,0.0,1.083,1.1335,1.1447,1.1461,1.1624,1.2038,1.2254,1.2541,1.2895,1.303,1.3375,1.4008,1.4059,1.4199,1.4521,0.0,0.0,0.0,0.0,1.5131,1.5423,1.5472,1.5569,1.5762,1.5762,1.5927,1.6273,1.6273,1.6286,1.6348,1.7074,1.7827,1.8618,1.9551,2.0479,2.1236,2.0421,2.0226,2.0508,2.1504,2.188,2.189,-0.1544,-0.1438,-0.1442,-0.1577,-0.171,-0.1848,-0.1979,-0.2166,-0.2337,-0.2448,-0.218,-0.1978,-0.2001,-0.1157,-0.053,-0.0384,-0.0025,-0.0052,-0.0594,-0.0599,-0.0489,-0.0252,0.0336,0.0701,0.0799,0.0799,0.0799,0.0799,0.0701,0.0645,0.0645,0.0533,0.0482,0.0482,0.048,0.0464,0.0438,0.0467,0.0417,0.0322,0.035,0.028,0.0168,0.0168,0.0224,0.0392,0.091,0.1155,0.1342,0.1851,0.2491,0.3057,0.3057,0.3482,0.0,0.0,0.0,0.0,0.0,0.0,0.0,0.0,0.0,0.0,0.0,0.0,0.0,0.0,0.0,0.0,0.0,0.0,0.0,1.0998,1.12,1.158,1.239,1.2514,1.2535,1.2634,1.2781,1.3095,1.3715,1.3792,1.3971,1.4367,1.4396,1.4536,1.4811,1.4812,0.0,1.5279,1.5465,1.557,1.5637,1.5859,1.5984,1.6025,0.0,0.0,1.7396,1.7396,1.7468,1.7642,1.7796,1.7957,1.8138,1.8339,1.9097,2.0227,2.1093,2.1473,2.1571,2.2144,2.2366,2.2418,-0.1658,-0.1603,-0.1622,-0.1688,-0.1811,-0.1931,-0.2033,-0.2244,-0.2426,-0.2495,-0.2413,-0.2262,-0.2029,-0.1615,-0.1194,-0.079,-0.0508,-0.0337,-0.0308,-0.0168,0.0028,0.0336,0.07,0.0898,0.0898,0.0898,0.0898,0.0898,0.0828,0.0799,0.08,0.0725,0.0707,0.0708,0.0731,0.0719,0.0648,0.0683,0.0598,0.0459,0.0522,0.0505,0.0435,0.0336,0.0532,0.091,0.13,0.1843,0.2412,0.2774,0.3306,0.3796,0.3796,0.4053,0.4352,0.0,0.0,0.0,0.0,0.0,0.0,0.0,0.0,0.0,0.0,0.0,0.0,0.0,0.0,0.9766,0.0,0.0,1.095,1.1413,1.1733,1.2112,1.2727,1.315,1.3408,1.3408,1.3463,1.3708,1.4199,1.4243,1.4374,1.4684,1.4706,1.4825,1.5126,1.5148,1.5276,1.5533,1.5658,1.5754,1.5893,1.6025,1.6149,1.6245,1.6245,1.6587,1.7192,1.7192,1.7253,1.7416,1.8519,1.9003,1.9082,2.0161,2.0965,2.1565,2.2237,2.2195,2.1849,2.258,2.2842,2.2873,-0.1881,-0.1847,-0.1856,-0.1838,-0.1932,-0.2024,-0.209,-0.233,-0.2501,-0.2501,-0.2629,-0.2526,-0.2021,-0.205,-0.1877,-0.1295,-0.1025,-0.0685,-0.0224,0.0042,0.0393,0.0884,0.0898,0.0898,0.0898,0.0898,0.0898,0.0898,0.0898,0.0898,0.0898,0.0899,0.0899,0.09,0.0975,0.0939,0.0825,0.0878,0.0778,0.0582,0.0695,0.0743,0.0729,0.0687,0.098,0.144,0.1719,0.2512,0.3472,0.3694,0.4098,0.4505,0.4505,0.4576,0.4661,0.4661,0.4755,0.0,0.0,0.0,0.0,0.0,0.0,0.0,0.0,0.0,0.7829,0.9059,0.9567,1.0035,1.085,1.1075,1.1293,1.1778,1.2242,1.2671,1.2988,1.3597,1.4052,1.4157,1.4133,1.4221,1.455,1.458,1.4692,1.4973,1.4995,1.5125,1.5429,1.5465,1.5569,1.5782,1.5824,1.5948,1.617,1.619,1.6306,1.6456,1.6456,1.668,1.7052,1.7052,1.7092,1.7276,1.9053,1.9845,1.9996,2.1993,2.2808,2.2838,2.3094,2.2682,2.2083,2.3002,2.3339,2.3349,-0.2019,-0.2028,-0.205,-0.1988,-0.199,-0.2024,-0.209,-0.233,-0.2501,-0.2501,-0.2265,-0.2032,-0.1841,-0.1573,-0.1405,-0.1377,-0.0602,-0.014,-0.0196,0.0421,0.0828,0.0898,0.0898,0.0898,0.0898,0.0898,0.0898,0.0898,0.0898,0.0898,0.0898,0.0899,0.0899,0.09,0.0975,0.0958,0.0888,0.09,0.0884,0.086,0.0871,0.0884,0.0939,0.1441,0.1679,0.1818,0.2374,0.3014,0.3666,0.4211,0.4449,0.4505,0.4505,0.4515,0.4515,0.4515,0.461,0.4718,0.4718,0.5381,0.6149,0.6484,0.7152,0.7954,0.0,0.0,0.9444,1.0255,1.0645,1.0867,1.0989,1.1343,1.1785,1.2322,1.26,1.3017,1.3754,1.3938,1.4194,1.4745,1.4589,1.4558,1.484,1.4849,1.498,1.5309,1.533,1.5442,1.565,1.5671,1.5782,1.6046,1.6237,1.6332,1.6373,1.6546,1.6636,1.6669,1.6669,1.7232,1.8295,1.8295,1.849,1.8841,1.9165,1.928,1.9391,2.083,2.1434,2.1526,2.2673,2.3046,2.3018,2.3594,2.3826,2.3877,-0.2077,-0.2082,-0.2092,-0.2066,-0.2058,-0.2066,-0.21,-0.2259,-0.2409,-0.2493,-0.2444,-0.2359,-0.2228,-0.1729,-0.1382,-0.1295,-0.0494,0.0098,0.0308,0.0687,0.0898,0.0898,0.0898,0.0898,0.0898,0.0898,0.0898,0.0898,0.0898,0.0898,0.0898,0.0899,0.0899,0.09,0.0975,0.0982,0.0953,0.0921,0.0906,0.0893,0.0905,0.1107,0.1456,0.1706,0.2235,0.2898,0.3225,0.3735,0.0,0.4539,0.461,0.461,0.461,0.461,0.4627,0.4715,0.4772,0.4942,0.5529,0.616,0.6808,0.0,0.7944,0.8482,0.9239,0.9455,0.9759,1.0646,1.1023,1.1285,1.1631,1.195,1.2329,0.0,1.3139,1.3483,1.3945,1.4304,1.4621,1.4871,1.4971,1.5059,1.517,1.5185,1.5243,1.5395,1.5506,1.5616,1.5692,1.5844,1.6038,1.6265,1.636,1.6456,1.6566,1.7437,1.7585,1.7056,1.7807,1.8119,1.8097,1.8097,1.8596,1.947,2.0111,2.0789,2.1559,2.2656,2.311,2.3173,2.3707,2.3907,2.393,2.4174,2.4239,2.427,-0.2108,-0.21,-0.21,-0.21,-0.21,-0.21,-0.21,-0.221,-0.2345,-0.2487,-0.262,-0.2679,-0.2614,-0.1978,-0.1581,-0.1639,-0.0639,0.0069,0.0252,0.0659,0.0898,0.0898,0.0898,0.0898,0.0898,0.0898,0.0898,0.0898,0.0898,0.0898,0.0898,0.0906,0.0901,0.0902,0.0954,0.0978,0.0962,0.0925,0.0901,0.0899,0.0906,0.126,0.1818,0.1986,0.2694,0.3613,0.3754,0.4193,0.4712,0.4741,0.4755,0.4755,0.4755,0.4755,0.479,0.4944,0.5052,0.5336,0.634,0.6971,0.0,0.8346,0.8815,0.9198,0.97,0.9867,1.0141,1.0916,1.1322,1.171,1.2185,1.2515,1.2809,1.3139,1.3521,1.3879,1.4106,1.4577,1.4936,1.5024,1.5243,1.546,1.5639,1.5503,1.5423,1.5486,1.5616,1.5791,1.6014,1.6217,1.6471,1.6779,1.6787,1.687,1.6995,1.797,1.8111,1.7443,1.8376,1.8506,1.7944,1.8318,1.9137,2.032,2.1298,2.224,2.3161,2.4111,2.4497,2.4497,2.4497,2.4497,2.4497,2.4497,2.4497,2.4497,-0.2125,-0.21,-0.21,-0.21,-0.21,-0.21,-0.21,-0.221,-0.2345,-0.2487,-0.262,-0.2743,-0.2874,-0.2174,-0.1975,-0.2685,-0.1065,-0.0243,-0.0809,0.0252,0.0898,0.0898,0.0898,0.0898,0.0898,0.0898,0.0898,0.0898,0.0898,0.0898,0.0898,0.0898,0.0899,0.0899,0.09,0.09,0.09,0.0899,0.0899,0.0899,0.0898,0.126,0.186,0.2444,0.3056,0.3613,0.3754,0.4193,0.4714,0.4848,0.4896,0.4896,0.4896,0.4896,0.4926,0.5139,0.5415,0.5903,0.6903,0.7661,0.8377,0.9244,0.9996,1.0545,1.0561,1.0775,1.1015,1.1242,1.1758,1.224,1.2445,1.287,1.3185,1.32,1.3632,1.4111,1.4445,1.4716,1.5017,1.5359,1.5382,1.5639,0.0,1.5732,1.5486,1.5679,1.5692,1.6042,1.6813,1.6871,1.7155,1.7745,1.7761,1.7761,1.7761,1.7812,1.782,1.7777,1.7828,1.799,1.834,1.9633,2.0742,2.1699,2.2639,2.3064,2.3161,2.4111,2.4497,2.4497,2.4497,2.4497,2.4497,2.4497,2.4497,2.4497,-0.2108,-0.21,-0.21,-0.21,-0.21,-0.21,-0.21,-0.221,-0.2345,-0.2487,-0.2615,0.0,0.0,0.0,0.0,0.0,-0.0207,0.0508,0.0311,0.0678,0.0898,0.0898,0.0898,0.0898,0.0898,0.0898,0.0898,0.0898,0.0898,0.0898,0.0898,0.0898,0.0898,0.0898,0.0898,0.0898,0.0898,0.0898,0.1135,0.1497,0.1497,0.2153,0.3139,0.325,0.3724,0.4331,0.0,0.4593,0.4835,0.4886,0.4967,0.506,0.5189,0.5239,0.5288,0.5583,0.5842,0.6298,0.7525,0.8129,0.8694,0.9923,1.0557,1.0865,1.0865,1.1069,1.1387,1.1813,1.2158,1.2508,1.2891,1.3201,1.3473,1.3684,1.4073,1.444,1.4716,1.5017,1.5265,1.5395,1.552,0.0,0.0,0.0,0.0,1.6648,1.7376,1.7667,1.7323,1.7423,1.7587,1.7785,1.7793,1.7793,1.7793,1.863,1.9053,1.9075,1.996,2.0452,2.0561,2.1029,2.1405,2.1761,2.2702,2.3096,2.3161,2.4111,2.4497,2.4518,2.47,2.4764,2.4786,2.4914,2.4882,2.4764,-0.21,-0.21,-0.21,-0.21,-0.21,0.0,0.0,0.0,0.0,0.0,0.0,0.0,0.0,0.0,0.0,0.0,0.0,0.0709,0.0519,0.0757,0.0898,0.0898,0.0898,0.0898,0.0898,0.0898,0.0898,0.0898,0.0898,0.0898,0.0898,0.0898,0.0898,0.0898,0.0898,0.0898,0.0898,0.0898,0.1144,0.1516,0.1534,0.2341,0.3513,0.3452,0.3987,0.0,0.477,0.485,0.4985,0.5054,0.5135,0.5256,0.5505,0.5635,0.5734,0.5937,0.6313,0.69,0.8004,0.8571,0.9157,1.0425,1.0871,1.1039,1.1206,1.1478,1.1811,1.2315,1.2582,1.2867,1.3237,1.3401,1.3601,1.3949,1.4279,1.4602,1.4856,1.5185,1.5423,1.5499,1.6039,1.6878,0.0,0.0,0.0,1.7812,1.8453,1.8714,1.8305,1.8422,1.8704,1.918,1.8513,1.8322,1.8682,1.9512,2.0076,2.0439,2.1287,2.1872,2.2195,2.2195,2.2438,2.2887,2.3475,2.3779,2.3908,2.4498,2.4743,2.4764,2.4861,2.4903,2.4903,2.4946,2.4967,2.4988,-0.21,-0.21,-0.21,0.0,0.0,0.0,0.0,0.0,0.0,0.0,0.0,0.0,0.0,0.0,0.0,0.0,0.0,0.0,-0.0132,0.0507,0.0895,0.0895,0.0897,0.0898,0.0898,0.0898,0.0898,0.0898,0.0898,0.0898,0.0898,0.0898,0.0898,0.0898,0.0898,0.0898,0.0898,0.0898,0.0947,0.1051,0.1107,0.1907,0.3061,0.3112,0.3876,0.4911,0.4897,0.4987,0.5129,0.5337,0.5424,0.5495,0.5807,0.605,0.6214,0.6214,0.6818,0.7652,0.8312,0.8989,0.9745,1.0751,1.1025,1.1155,1.1621,1.1998,1.2342,1.2738,1.3028,1.3255,0.0,0.0,1.3601,1.3949,1.4279,1.4602,1.4856,1.5246,1.5548,0.0,0.0,0.0,0.0,0.0,0.0,1.9131,0.0,1.9246,1.971,1.9771,2.0355,2.1596,1.9834,1.9363,2.0362,2.0407,2.0881,2.1761,2.1828,2.2315,2.3161,2.3183,2.3822,2.4903,2.4903,2.5031,2.52,2.52,2.52,2.5179,2.5009,2.4946,2.4903,2.4668,2.485,2.52,0.0,0.0,0.0,0.0,0.0,0.0,0.0,0.0,0.0,0.0,0.0,0.0,0.0,0.0,0.0,0.0,0.0,0.0,0.0405,0.0718,0.0904,0.0904,0.0899,0.0898,0.0898,0.0898,0.0898,0.0898,0.0898,0.0898,0.0898,0.0898,0.0898,0.0898,0.0898,0.0898,0.0898,0.0898,0.1167,0.1595,0.1612,0.2479,0.3734,0.3649,0.4211,0.5042,0.4942,0.4927,0.5002,0.5307,0.5671,0.6012,0.61,0.6231,0.635,0.635,0.6888,0.7652,0.8312,0.8989,0.9777,1.0932,1.1373,1.1669,1.2186,1.2528,1.2781,1.3042,1.3142,1.3255,0.0,0.0,0.0,1.3949,1.4279,0.0,1.4856,1.5884,0.0,1.5775,0.0,1.8301,1.8841,1.9548,0.0,0.0,2.0987,2.0744,2.0171,2.0806,2.1029,2.0678,2.019,2.0371,2.1329,2.2031,2.2517,2.2746,2.3442,2.3917,2.4154,2.4359,2.4616,2.4903,2.5073,2.5158,2.52,2.52,2.52,2.5221,2.5359,2.5433,2.5433,2.5517,2.5517,2.5496,0.0,0.0,0.0,0.0,0.0,0.0,0.0,0.0,0.0,0.0,0.0,0.0,0.0,0.0,0.0,0.0,0.0,0.0,0.0,0.0668,0.0793,0.0858,0.0888,0.0905,0.0905,0.0904,0.0898,0.0898,0.0898,0.0898,0.0898,0.0898,0.0898,0.0898,0.0898,0.0905,0.0903,0.0903,0.113,0.0,0.0,0.2445,0.3782,0.3736,0.4442,0.5428,0.5261,0.527,0.5375,0.5662,0.5994,0.6346,0.6671,0.6593,0.6515,0.7146,0.7619,0.8085,0.8764,0.9486,1.0296,1.1248,1.1664,1.2009,1.2668,1.2919,1.3083,1.3291,1.3443,1.3593,1.3704,1.3847,0.0,0.0,0.0,0.0,1.5052,1.5952,1.646,0.0,1.75,0.0,1.9574,2.0205,2.105,0.0,2.1939,2.1641,2.1543,2.165,2.1641,2.1543,2.1127,2.1373,2.2306,2.2833,2.3302,2.3724,2.425,2.4561,2.4679,2.4818,2.502,2.5211,0.0,2.5422,2.5506,2.5506,2.5506,2.5506,2.558,2.5601,2.5601,2.5591,2.5601,2.5601,0.0,0.0,0.0,0.0,0.0,0.0,0.0,0.0,0.0,-0.2003,-0.1567,-0.1138,-0.0658,-0.0247,0.0,0.0,0.0,0.0,0.0,0.0,0.0651,0.0763,0.0843,0.0888,0.0905,0.0905,0.0894,0.0898,0.0898,0.0898,0.0898,0.0898,0.0898,0.0898,0.0981,0.1026,0.1024,0.1117,0.1234,0.1347,0.1421,0.2324,0.364,0.0,0.4629,0.5883,0.5705,0.575,0.5928,0.6134,0.6346,0.6663,0.7297,0.7118,0.6921,0.815,0.8581,0.8796,0.939,1.0177,1.0976,1.1572,1.1845,1.217,1.2935,1.3107,1.3161,1.3331,1.3623,1.3869,1.3869,1.4177,1.4426,1.4426,0.0,1.5295,1.5295,1.5886,1.6327,1.6394,1.8015,1.9451,2.0331,2.1187,2.2094,2.303,2.2217,2.2072,2.2877,2.2381,2.2381,2.3074,2.2416,2.2403,2.3096,2.3226,2.3681,2.4497,2.454,2.4679,2.4903,2.4967,2.5211,2.5601,0.0,0.0,2.5895,2.5895,2.5895,2.5874,2.5717,2.5644,2.5601,2.538,2.5443,2.5644,0.0,0.0,0.0,0.0,0.0,0.0,0.0,0.0,0.0,0.0,-0.1428,-0.1066,0.0,0.0,0.0,0.0,0.0,0.0,0.0,0.0,0.0,0.0639,0.075,0.0839,0.0905,0.0898,0.09,0.0898,0.0898,0.0898,0.0898,0.0898,0.0898,0.0926,0.1428,0.1643,0.1682,0.2293,0.2563,0.2604,0.2722,0.3403,0.4325,0.4336,0.0,0.0,0.5867,0.5875,0.5928,0.6134,0.6695,0.733,0.7456,0.7798,0.8183,0.8425,0.9016,0.9598,0.9709,1.0383,1.1166,1.1654,1.1812,1.1978,1.2497,1.2618,1.2635,1.2677,1.2933,1.3177,1.3177,1.3667,1.4089,1.4089,1.4768,1.5295,1.5295,1.652,1.7172,0.0,1.8656,2.0012,1.949,2.0803,0.0,0.0,0.0,2.1761,2.1939,2.3246,2.3734,2.3117,2.3681,2.3712,2.3117,2.3864,2.4336,2.4497,2.4722,2.4861,2.4903,2.5295,2.5517,2.5601,2.577,0.0,2.5895,2.5895,2.5895,2.5895,2.5864,2.5853,2.5833,2.5791,2.5812,2.5853,0.0,0.0,0.0,0.0,0.0,0.0,0.0,-0.2662,-0.2226,-0.15,-0.1186,-0.0773,-0.0079,0.0,0.0,0.0,0.0,0.0,0.0,0.0,0.0,0.0544,0.0709,0.0816,0.0844,0.0846,0.0849,0.085,0.0,0.085,0.085,0.085,0.1019,0.1321,0.1552,0.184,0.2165,0.2204,0.2446,0.2778,0.2598,0.338,0.4662,0.0,0.0,0.0,0.6099,0.6046,0.5944,0.6213,0.7069,0.802,0.802,0.8247,0.8667,0.9454,0.9741,0.9901,1.0351,1.0832,1.1303,1.1704,1.184,1.2009,1.2412,1.2502,1.2502,1.2502,1.2765,1.3042,1.3228,1.3818,1.425,1.425,1.4921,1.5456,1.5456,1.6309,1.7,1.7212,1.8769,2.0042,2.0547,2.1717,2.2614,0.0,0.0,2.3159,2.3159,2.3551,2.3799,2.382,2.3789,2.3799,2.382,2.4412,2.47,2.47,2.4946,2.5115,2.5274,2.5496,2.5665,2.5749,2.5864,0.0,2.5895,2.5895,2.5895,2.5895,2.5895,2.5895,2.5895,2.5895,2.5895,2.5928,0.0,0.0,0.0,0.0,0.0,0.0,0.0,-0.237,-0.1899,-0.132,-0.0929,-0.0526,-0.0056,0.0,0.0,0.0,0.0,0.0,0.0,0.0,0.0,0.0,0.0,0.0,0.0,0.0,0.0,0.0794,0.0794,0.0,0.0,0.0,0.0,0.0,0.1786,0.213,0.2604,0.2286,0.2491,0.0,0.0,0.3545,0.0,0.0,0.0,0.0,0.0,0.6213,0.6009,0.6294,0.7244,0.828,0.828,0.8619,0.924,1.05,1.051,1.0272,1.0965,1.1247,1.143,1.1698,1.1837,1.1983,1.2255,1.2321,1.2319,1.2385,1.2655,1.2969,1.3243,1.3898,1.4382,1.4382,1.506,1.5626,1.5703,1.6217,1.6945,1.7883,1.904,0.0,2.1753,2.2619,0.0,0.0,0.0,0.0,2.4497,2.3799,2.3746,2.4475,2.3832,2.3832,2.4583,2.485,2.4967,2.4967,2.5179,2.5401,2.5601,2.5644,2.5749,2.5895,2.5895,0.0,0.0,2.5895,2.5895,2.5895,2.5895,2.5895,2.5895,2.5895,2.5895,2.5972,0.0,0.0,0.0,0.0,0.0,0.0,0.0,-0.2133,-0.1775,-0.0883,-0.0727,-0.0526,-0.0056,0.0,0.0,0.0,0.0,0.0,0.0,0.0,0.0,0.0,0.0,0.0,0.0,0.0,0.0,0.0794,0.0794,0.0,0.0,0.0,0.0,0.0,0.0,0.2988,0.3089,0.3695,0.0,0.0,0.0,0.0,0.0,0.0,0.0,0.0,0.0,0.6306,0.6199,0.6351,0.6937,0.7587,0.7587,0.8967,1.0658,1.098,1.1122,1.1178,1.1256,1.142,1.1583,1.1612,1.1635,1.1643,1.1672,1.1679,1.1744,1.2005,1.2302,1.256,1.2589,1.3389,1.4045,1.4045,1.491,1.571,1.6003,1.7074,1.7883,1.7997,0.0,0.0,2.1887,2.2619,0.0,0.0,0.0,0.0,2.4497,2.4433,2.4401,2.4497,2.4647,2.4775,2.4861,2.5073,2.5179,2.5179,2.5443,2.558,2.5612,2.5791,2.5874,2.5895,2.5895,0.0,0.0,2.5895,2.5895,2.5895,2.5895,2.5895,2.5895,2.5895,2.5895,2.5972,0.0,0.0,0.0,0.0,0.0,0.0,-0.2177,-0.1854,-0.1443,-0.0783,-0.0459,-0.0204,-0.0023,0.0,0.0,0.0,0.0,0.0,0.0,0.0,0.0,0.0,0.0,0.0,0.0,0.0,0.0743,0.0743,0.0743,0.0,0.0,0.0,0.0,0.0,0.0,0.318,0.3516,0.3441,0.0,0.0,0.0,0.0,0.0,0.0,0.0,0.0,0.0,0.0,0.6283,0.6872,0.7265,0.7668,0.8587,0.9544,1.0329,1.0408,1.0856,1.1334,1.1451,1.1544,1.1591,1.1591,1.1591,1.1591,1.1591,1.1722,1.1866,1.1974,1.2275,1.2567,1.2757,1.3133,1.3642,1.4356,1.4774,1.5311,1.6157,1.7109,1.7978,1.8702,2.0631,0.0,0.0,0.0,0.0,0.0,0.0,0.0,2.4722,2.4743,2.4743,2.4743,2.4967,2.5073,2.5073,2.5317,2.5443,2.5443,2.5665,2.577,2.577,2.5853,2.5895,2.5895,2.5895,0.0,0.0,2.5895,2.5895,2.5895,2.5895,2.5895,2.5895,2.5895,2.5895,2.6005,0.0,0.0,0.0,0.0,0.0,-0.2437,-0.1787,-0.141,-0.1018,-0.0549,-0.0204,0.0,0.0,0.0,0.0,0.0,0.0,0.0,0.0,0.0,0.0,0.0,0.0,0.0,0.0,0.0,0.0725,0.0733,0.0908,0.1163,0.0,0.0,0.2389,0.3157,0.0,0.0,0.0,0.0,0.0,0.0,0.0,0.0,0.0,0.0,0.0,0.0,0.0,0.0,0.0,0.0,0.0,0.744,0.8983,0.957,0.9793,1.0259,1.0865,1.142,1.156,1.1591,1.1591,1.1591,1.1591,1.1591,1.1591,1.1752,1.1903,1.1981,1.2186,1.2475,1.2873,1.2939,1.3307,1.4415,1.4652,1.5061,1.6101,1.7281,1.8241,1.8852,0.0,2.2431,0.0,0.0,0.0,0.0,0.0,0.0,0.0,2.5052,2.5073,2.4988,2.52,2.5317,2.5317,2.5559,2.5686,2.5686,2.5843,2.5895,2.5895,2.5895,2.5895,2.5895,0.0,0.0,0.0,2.5895,2.5895,2.5895,2.5895,2.5895,2.5895,2.5895,2.5895,2.6037,0.0,0.0,0.0,0.0,0.0,0.0,-0.0861,-0.0716,-0.0537,-0.0067,0.0,0.0,0.0,0.0,0.0,0.0,0.0,0.0,0.0,0.0,0.0,0.0,0.0,0.0,0.0,0.0,0.0802,0.0793,0.1394,0.1694,0.1719,0.2788,0.3291,0.3313,0.0,0.0,0.0,0.0,0.0,0.0,0.0,0.0,0.0,0.0,0.0,0.0,0.0,0.0,0.0,0.0,0.0,0.0,0.0,0.8844,0.9314,1.0834,1.1435,1.1591,1.1591,1.1591,1.1591,1.1591,1.1591,1.1591,1.1591,1.1599,1.1687,1.1954,1.2003,1.2171,1.2693,1.2803,1.3089,1.3976,1.4557,1.5136,1.5818,1.7857,1.8959,0.0,0.0,2.2849,2.199,0.0,0.0,0.0,0.0,0.0,0.0,2.5454,2.5464,2.52,2.5464,2.5601,2.5601,2.5801,2.5895,2.5895,2.5895,2.5895,2.5895,2.5895,2.5895,0.0,0.0,0.0,0.0,2.5895,2.5895,2.5895,2.5895,2.5895,2.5895,2.5895,2.5895,2.6037,0.0,0.0,0.0,0.0,0.0,0.0,0.0,-0.0705,-0.0526,-0.0056,0.0,0.0,0.0,0.0,0.0,0.0,0.0,0.0,0.0,0.0,0.0,0.0,0.0,0.0,0.0,0.1161,0.1419,0.1421,0.2021,0.2474,0.2803,0.3143,0.3471,0.3779,0.3894,0.3993,0.0,0.0,0.0,0.0,0.0,0.0,0.0,0.0,0.0,0.0,0.0,0.0,0.0,0.0,0.0,0.0,0.0,0.0,0.0,1.0982,1.1444,1.1591,1.1591,1.1591,1.1591,1.1591,1.1591,1.1591,1.1591,1.1744,1.1895,1.1981,1.2178,1.2501,1.3038,1.2766,1.2944,1.4408,1.4603,1.5133,1.676,1.8322,1.9403,1.9688,2.178,2.3402,0.0,0.0,0.0,0.0,0.0,0.0,0.0,2.5559,2.5559,2.5475,2.5686,2.5812,2.5812,2.5874,2.5895,2.5895,2.5895,2.5895,2.5895,2.5895,0.0,0.0,0.0,0.0,0.0,2.5895,2.5895,2.5895,2.5895,2.5895,2.5895,2.5895,2.5895,2.6037,0.0,0.0,0.0,0.0,0.0,0.0,0.0,-0.0437,-0.0336,-0.0034,0.0,0.0,0.0,0.0,0.0,0.0,0.0,0.0,0.0,0.0,0.0,0.0,0.0,0.0,0.071,0.1359,0.1706,0.1743,0.2563,0.3125,0.3417,0.364,0.3913,0.4185,0.4185,0.4239,0.0,0.0,0.0,0.0,0.0,0.0,0.6216,0.0,0.0,0.0,0.0,0.0,0.0,0.0,0.0,0.0,0.0,0.0,0.0,0.0,1.1498,1.1591,1.1591,1.1591,1.1591,1.1591,1.1591,1.1591,1.1591,1.173,1.1853,1.1917,1.2198,1.2569,1.3038,1.2769,1.2953,1.4371,1.4534,1.5142,1.7032,1.8469,1.987,2.1451,0.0,0.0,0.0,0.0,0.0,0.0,0.0,0.0,0.0,2.5707,2.5707,2.5707,2.5833,2.5895,2.5895,2.5895,2.5895,2.5895,2.5895,2.5895,2.5895,2.5895,0.0,0.0,0.0,0.0,0.0,2.5895,2.5895,2.5895,2.5895,2.5895,2.5895,2.5895,2.5895,2.6037,0.0,0.0,0.0,0.0,0.0,0.0,0.0,0.0,0.0,0.0,0.0,0.0,0.0,0.0,0.0,0.0,0.0,0.0,0.0,0.0,0.0,0.0,0.0,0.0,0.1023,0.1558,0.1868,0.193,0.3098,0.3666,0.3683,0.4239,0.4505,0.4505,0.4505,0.4515,0.0,0.0,0.0,0.0,0.0,0.6042,0.0,0.0,0.0,0.0,0.0,0.0,0.0,0.0,0.0,0.0,0.0,0.0,0.0,0.0,0.0,0.0,0.0,1.1591,1.1591,1.1591,1.1591,1.1591,1.1591,1.1629,0.0,1.1778,1.2087,1.2416,1.2739,1.2803,1.3086,1.3986,1.4409,1.5178,1.6881,1.8498,2.0504,0.0,2.297,0.0,0.0,0.0,0.0,0.0,0.0,0.0,0.0,2.5895,2.5895,2.5895,2.5895,2.5895,2.5895,2.5895,2.5895,2.5895,2.5895,2.5895,2.5895,2.5895,0.0,0.0,0.0,0.0,0.0,2.5895,2.5895,2.5895,2.5895,2.5895,2.5895,2.5895,2.5895,2.6026,0.0,0.0,0.0,0.0,0.0,0.0,0.0,0.0,0.0,0.0,0.0,0.0,0.0,0.0,0.0,0.0,0.0,0.0,0.0,0.0,0.0,0.0,0.0,0.0,0.2187,0.283,0.3154,0.3181,0.3918,0.4294,0.4294,0.4436,0.4505,0.4505,0.4505,0.4702,0.0,0.0,0.0,0.0,0.6209,0.6306,0.0,0.0,0.0,0.0,0.6404,0.7211,0.0,0.0,0.0,0.0,0.0,0.0,0.0,0.0,1.1591,1.1591,1.1591,0.0,1.1591,1.1591,1.1591,1.1591,0.0,1.1877,1.2068,1.1854,1.2182,1.2585,1.2779,1.2803,1.3164,1.431,1.455,1.5478,1.8015,2.0148,2.2002,2.3551,2.3586,0.0,0.0,0.0,0.0,0.0,0.0,0.0,0.0,2.5895,2.5895,2.5895,2.5895,2.5895,2.5895,2.5895,2.5895,2.5895,2.5895,2.5895,2.5895,2.5895,0.0,0.0,0.0,0.0,2.5895,2.5895,2.5895,2.5895,2.5895,2.5895,2.5895,2.5895,2.5895,2.5983,0.0,0.0,0.0,0.0,0.0,0.0,0.0,0.0,0.0,0.0,0.0,0.0,0.0,0.0,0.0,0.0,0.0,0.0,0.0,0.0,0.0,0.0,0.0,0.2245,0.2632,0.3275,0.3597,0.3597,0.4211,0.4505,0.4505,0.4505,0.4505,0.4508,0.472,0.4988,0.0,0.0,0.0,0.6214,0.635,0.0,0.0,0.0,0.0,0.0,0.6778,0.7631,0.0,0.9064,1.0028,1.1059,0.0,0.0,0.0,0.0,1.1591,1.1591,1.1591,1.1591,1.1591,1.1591,1.1591,1.1622,1.1685,1.1897,1.2058,1.2049,1.2372,1.2746,1.2907,1.3191,1.3601,1.4255,1.5125,1.6647,1.9344,2.1368,2.2902,2.3872,2.425,0.0,0.0,0.0,0.0,0.0,0.0,0.0,0.0,2.5895,2.5895,2.5895,2.5895,2.5895,2.5895,2.5895,2.5895,2.5895,2.5895,2.5895,2.5895,2.5895,2.5895,0.0,0.0,0.0,2.5895,2.5895,2.5895,2.5895,2.5895,2.5895,2.5895,2.5895,2.5895,2.5972,0.0,0.0,0.0,0.0,0.0,0.0,0.0,0.0,0.0,0.0,0.0,0.0,0.0,0.0,0.0,0.0,0.0,0.0,0.0,0.0,0.0,0.0,0.2439,0.2817,0.297,0.3472,0.3735,0.3735,0.4253,0.4505,0.4505,0.4505,0.4505,0.4515,0.4997,0.5275,0.5434,0.0,0.6214,0.6247,0.635,0.0,0.0,0.0,0.0,0.0,0.0,0.0,0.0,0.9655,1.0503,1.1303,1.1341,0.0,0.0,0.0,0.0,0.0,1.1591,1.1607,1.1622,1.1607,1.1622,1.1654,1.1771,1.1878,1.2025,1.2251,1.2632,1.2962,1.3084,1.3696,1.4247,1.4417,0.0,0.0,2.0505,2.209,2.3324,2.4162,0.0,0.0,0.0,0.0,0.0,0.0,0.0,0.0,0.0,2.5895,2.5895,2.5895,2.5895,2.5895,2.5895,2.5895,2.5895,2.5895,2.5895,2.5895,2.5895,2.5895,2.5895,0.0,0.0,0.0,2.5895,2.5895,2.5895,2.5895,2.5895,2.5895,2.5895,2.5895,2.5895,2.5972,0.0,0.0,0.0,0.0,0.0,0.0,0.0,0.0,0.0,0.0,0.0,0.0,0.0,0.0,0.0,0.0,0.0,0.0,0.0,0.0,0.0,0.3116,0.3328,0.3691,0.4211,0.4308,0.4363,0.4363,0.4449,0.4505,0.4505,0.4505,0.4505,0.4515,0.4997,0.5274,0.5429,0.5968,0.6264,0.6367,0.6383,0.0,0.0,0.0,0.0,0.0,0.0,0.0,0.0,1.0085,1.0708,1.1334,1.1498,0.0,0.0,0.0,0.0,0.0,1.1591,1.1685,1.1747,1.1622,1.1685,1.1771,1.1802,1.2247,1.2584,1.2344,1.2932,1.3401,1.3147,1.3877,1.4864,1.5872,0.0,1.9793,0.0,0.0,2.3059,2.4302,0.0,0.0,0.0,0.0,0.0,0.0,0.0,0.0,0.0,2.5895,2.5895,2.5895,2.5895,2.5895,2.5895,2.5895,2.5895,2.5895,2.5895,2.5895,2.5895,2.5895,2.5895,0.0,0.0,2.5895,2.5895,2.5895,2.5895,2.5895,2.5895,2.5895,2.5895,2.5895,2.5895,2.5972,0.0,0.0,0.0,0.0,0.0,0.0,0.0,0.0,0.0,0.0,0.0,0.0,0.0,0.0,0.0,0.0,0.0,0.0,0.0,0.0,0.3293,0.3712,0.3962,0.4211,0.4491,0.4505,0.4505,0.4505,0.4505,0.4505,0.4505,0.4505,0.4532,0.4626,0.5027,0.5329,0.5597,0.6014,0.6238,0.6286,0.0,0.0,0.0,0.0,0.0,0.0,0.0,0.0,0.0,0.0,1.1123,1.1482,1.1576,0.0,0.0,0.0,0.0,0.0,1.1591,1.17,1.1794,1.1716,1.184,1.198,1.2058,1.2444,1.2796,1.2735,1.3202,1.3609,1.364,1.4699,1.6274,1.8424,0.0,2.074,2.2061,2.2914,0.0,0.0,0.0,0.0,0.0,0.0,0.0,0.0,0.0,0.0,0.0,0.0,2.5895,2.5895,2.5895,2.5895,2.5895,2.5895,2.5895,2.5895,2.5895,2.5895,2.5895,2.5895,2.5895,2.5895,0.0,2.5895,2.5895,2.5895,2.5895,2.5895,2.5895,2.5895,2.5895,2.5895,2.5895,2.5972,0.0,0.0,0.0,0.0,0.0,0.0,0.0,0.0,0.0,0.0,0.0,0.0,0.0,0.0,0.0,0.0,0.0,0.0,0.0,0.3037,0.3478,0.3982,0.4317,0.4505,0.4505,0.4505,0.4505,0.4505,0.4505,0.4505,0.4505,0.4532,0.4605,0.4712,0.508,0.542,0.5726,0.6055,0.627,0.638,0.0,0.0,0.0,0.0,0.0,0.0,0.0,0.0,0.0,0.0,0.0,0.0,0.0,0.0,0.0,1.1591,1.1591,1.1591,1.1591,1.1732,1.1872,1.1872,1.2011,1.2166,1.2274,1.2609,1.2907,1.3076,1.3434,1.3815,1.4155,1.576,1.7869,2.0438,2.0962,2.1604,0.0,0.0,0.0,0.0,0.0,0.0,0.0,0.0,0.0,0.0,0.0,0.0,0.0,0.0,2.5895,2.5895,2.5895,2.5895,2.5895,2.5895,2.5895,2.5895,2.5895,2.5895,2.5895,2.5895,2.5895,2.5895,2.5895,2.5895,2.5895,2.5895,2.5895,2.5895,2.5895,2.5895,2.5895,2.5895,2.5895,2.595,0.0,0.0,0.0,0.0,0.0,0.0,0.0,0.0,0.0,0.0,0.0,0.0,0.0,0.0,0.0,0.0,0.0,0.0,0.0,0.3286,0.3829,0.3994,0.4317,0.4505,0.4505,0.4505,0.4505,0.4505,0.4505,0.4505,0.4505,0.4632,0.4688,0.4726,0.5183,0.5497,0.5726,0.6055,0.649,0.6941,0.6941,0.0,0.0,0.0,0.0,0.0,0.0,0.0,0.0,0.0,0.0,0.0,0.0,0.0,1.1591,1.1591,1.1591,1.1591,1.1591,1.1825,1.2081,1.2081,1.2182,1.229,1.2305,1.2704,1.3076,1.3108,1.3616,1.4163,1.4502,1.6944,1.9383,2.0844,2.1797,2.2669,0.0,0.0,0.0,0.0,0.0,0.0,0.0,0.0,0.0,0.0,0.0,0.0,0.0,0.0,0.0,2.5895,2.5895,2.5895,2.5895,2.5895,2.5895,2.5895,2.5895,2.5895,2.5895,2.5895,2.5895,2.5895,2.5895,2.5895,2.5895,2.5895,2.5895,2.5895,2.5895,2.5895,2.5895,2.5895,2.5895,2.5906,0.0,0.0,0.0,0.0,0.0,0.0,0.0,0.0,0.0,0.0,0.0,0.0,0.0,0.0,0.0,0.0,0.0,0.0,0.0,0.3477,0.3854,0.3994,0.4317,0.4505,0.4505,0.4505,0.4505,0.4505,0.4505,0.4546,0.4632,0.4674,0.4784,0.4949,0.5129,0.5376,0.5682,0.6354,0.6442,0.6181,0.6717,0.6772,0.0,0.0,0.0,0.0,0.0,0.0,0.0,0.0,1.0814,1.1107,1.1107,1.1327,1.1591,1.1591,1.1654,1.1716,1.1716,1.1965,1.2267,1.2483,1.268,1.2806,1.2806,1.3115,1.3474,1.368,1.4291,1.5272,1.6909,0.0,2.0143,2.1666,2.267,0.0,0.0,0.0,0.0,0.0,0.0,0.0,0.0,0.0,0.0,0.0,0.0,0.0,0.0,0.0,0.0,2.5895,2.5895,2.5895,2.5895,2.5895,2.5895,2.5895,2.5895,2.5895,2.5895,2.5895,2.5895,2.5895,2.5895,2.5895,2.5895,2.5895,2.5895,2.5895,2.5895,2.5895,2.5895,2.5895,2.5895,2.5895,0.0,0.0,0.0,0.0,0.0,0.0,0.0,0.0,0.0,0.0,0.0,0.0,0.0,0.0,0.0,0.0,0.0,0.0,0.3192,0.3599,0.3854,0.3994,0.4317,0.4505,0.4505,0.4505,0.4505,0.4505,0.4546,0.4605,0.4705,0.4784,0.4922,0.5097,0.5142,0.5432,0.5908,0.6311,0.6347,0.6187,0.6832,0.6928,0.0,0.0,0.0,0.0,0.0,0.0,0.0,0.0,1.0513,1.0799,1.0902,1.1173,1.1475,1.1624,1.1732,1.1809,1.188,1.2089,1.236,1.2585,1.2877,1.3132,1.3235,1.3521,1.3854,1.4187,1.4935,1.6215,1.8472,0.0,0.0,0.0,0.0,0.0,0.0,0.0,0.0,0.0,0.0,0.0,0.0,0.0,0.0,0.0,0.0,0.0,0.0,0.0,0.0,0.0,2.5895,2.5895,2.5895,2.5895,2.5895,2.5895,2.5895,2.5895,2.5895,2.5895,2.5895,2.5895,2.5895,2.5895,2.5895,2.5895,2.5895,2.5895,2.5895,2.5895,2.5895,2.5895,2.5895,2.5895,0.0,0.0,0.0,0.0,0.0,0.0,0.0,0.0,0.0,0.0,0.0,0.0,0.0,0.0,0.0,0.0,0.0,0.0,0.3317,0.3647,0.3863,0.3994,0.4317,0.4501,0.4505,0.4505,0.4505,0.4505,0.4632,0.4705,0.4705,0.4977,0.5097,0.5111,0.5242,0.5743,0.6454,0.5857,0.6259,0.73,0.745,0.7425,0.7463,0.0,0.0,0.0,0.0,0.0,0.0,0.0,0.9826,1.0155,1.0499,1.0828,1.1196,1.1658,1.1802,1.1848,1.2042,1.2197,1.2305,1.2313,1.2704,1.3187,1.3529,1.3862,1.4202,1.4542,1.5483,1.6822,1.8755,1.9552,0.0,0.0,0.0,0.0,0.0,0.0,0.0,0.0,0.0,0.0,0.0,0.0,0.0,0.0,0.0,0.0,0.0,0.0,0.0,0.0,2.5895,2.5895,2.5895,2.5895,2.5895,2.5895,2.5895,2.5895,2.5895,2.5895,2.5895,2.5895,2.5895,2.5895,2.5895,2.5895,2.5895,2.5895,2.5895,2.5895,2.5895,2.5895,2.5895,2.5895,0.0,0.0,0.0,0.0,0.0,0.0,0.0,0.0,0.0,0.0,0.0,0.0,0.0,0.0,0.0,0.0,0.0,0.0,0.335,0.3647,0.3859,0.3991,0.418,0.4358,0.4501,0.4505,0.4505,0.4505,0.4632,0.4743,0.4846,0.5014,0.5156,0.5242,0.5283,0.5436,0.5688,0.6166,0.6487,0.673,0.7376,0.7872,0.8263,0.0,0.0,0.0,0.0,0.0,0.0,0.0,0.0,0.0,1.0612,1.0803,1.104,1.1798,1.1905,1.185,1.2158,1.2367,1.2624,1.3091,1.3321,1.3592,1.4171,1.4375,1.4792,1.597,1.7306,1.8559,1.9677,0.0,0.0,0.0,0.0,0.0,0.0,0.0,0.0,0.0,0.0,0.0,0.0,0.0,0.0,0.0,0.0,0.0,0.0,0.0,0.0,0.0,2.5895,2.5895,2.5895,2.5895,2.5895,2.5895,2.5895,2.5895,2.5895,2.5895,2.5895,2.5895,2.5895,2.5895,2.5895,2.5895,2.5895,2.5895,2.5895,2.5895,2.5895,2.5895,2.5895,2.5895,0.0,0.0,0.0,0.0,0.0,0.0,0.0,0.0,0.0,0.0,0.0157,0.0381,0.0,0.0,0.0,0.2293,0.2448,0.2785,0.3431,0.3676,0.3832,0.3912,0.4096,0.4291,0.4501,0.4546,0.4574,0.4574,0.4712,0.4849,0.4983,0.5115,0.5348,0.5645,0.5407,0.5691,0.634,0.6507,0.6767,0.7136,0.7794,0.8279,0.8626,0.0,0.0,0.0,0.0,0.0,0.0,0.0,0.0,0.0,1.0624,1.0754,1.0877,1.1882,1.1995,1.1891,1.2304,1.2513,1.2726,1.3267,1.3498,1.3889,1.5023,1.5285,1.5708,1.7201,1.8342,1.9464,2.0752,2.1843,0.0,0.0,0.0,0.0,0.0,0.0,0.0,0.0,0.0,0.0,0.0,0.0,0.0,0.0,0.0,0.0,0.0,0.0,0.0,0.0,2.5895,2.5895,2.5895,2.5895,2.5895,2.5895,2.5895,2.5895,2.5895,2.5895,2.5895,2.5895,2.5895,2.5895,2.5895,2.5895,2.5895,2.5895,2.5895,2.5895,2.5895,2.5895,2.5895,2.5895,0.0,0.0,0.0,0.0,0.0,0.0,0.0,0.0,0.0011,0.0056,0.0437,0.0727,0.0,0.0,0.0,0.2504,0.2571,0.2873,0.3556,0.3712,0.379,0.3803,0.4045,0.426,0.4447,0.4618,0.4698,0.4694,0.4852,0.4983,0.5097,0.5242,0.5595,0.61,0.5608,0.6268,0.7685,0.6848,0.7111,0.8157,0.8474,0.8639,0.8758,0.9367,0.0,0.0,0.0,0.0,0.0,0.0,0.0,0.0,1.059,1.0666,1.0767,1.1932,1.2063,1.1936,1.2464,1.259,1.2701,1.3108,1.3541,1.4321,1.602,1.6487,1.6949,1.8231,0.0,1.9876,2.1886,0.0,0.0,0.0,0.0,0.0,0.0,0.0,0.0,0.0,0.0,0.0,0.0,0.0,0.0,0.0,0.0,0.0,0.0,0.0,0.0,2.5895,2.5895,2.5895,2.5895,2.5895,2.5895,0.0,2.5895,2.5895,2.5895,2.5895,2.5895,2.5895,2.5895,2.5895,2.5895,2.5895,2.5895,2.5895,2.5895,2.5895,2.5895,2.5895,2.5895,2.5895,0.0,0.0,0.0,0.0,0.0,0.0,0.0,0.0,0.0135,0.0504,0.0638,0.0984,0.1721,0.1977,0.0,0.2993,0.3151,0.332,0.3578,0.3631,0.3688,0.3797,0.3956,0.4058,0.4101,0.4496,0.4695,0.4705,0.494,0.5069,0.5097,0.5242,0.5366,0.5513,0.585,0.6209,0.6583,0.6947,0.7584,0.8348,0.8534,0.8909,0.9406,0.9549,0.9601,0.0,0.0,0.0,0.0,0.0,0.0,0.0,1.0593,1.0773,1.0907,1.1791,1.2001,1.2054,1.2479,1.259,1.2819,1.3737,1.4967,1.6175,1.7042,1.7971,1.8788,1.9252,2.0369,2.157,0.0,0.0,0.0,0.0,0.0,0.0,0.0,0.0,0.0,0.0,0.0,0.0,0.0,0.0,0.0,0.0,0.0,0.0,0.0,0.0,0.0,2.5895,2.5895,2.5895,2.5895,2.5895,2.5895,0.0,2.5895,2.5895,2.5895,2.5895,2.5895,2.5895,2.5895,2.5895,2.5895,2.5895,2.5895,2.5895,2.5895,2.5895,2.5895,2.5895,2.5895,2.5895,0.0,0.0,0.0,0.0,0.0,0.0,0.0,0.0,0.0422,0.0664,0.1096,0.1553,0.2044,0.2422,0.0,0.0,0.3317,0.3453,0.3589,0.3604,0.3654,0.3797,0.387,0.3969,0.4097,0.4404,0.4593,0.4652,0.4849,0.5187,0.5623,0.534,0.5499,0.6014,0.604,0.642,0.7062,0.7732,0.8437,0.9133,0.926,0.9528,0.9813,0.9659,0.9601,0.9601,0.9601,0.0,0.0,0.0,0.0,0.0,0.0,0.0,1.1042,1.1777,1.2005,1.2084,1.2495,1.2698,1.3115,1.4477,1.5906,1.7232,1.8154,1.8956,1.9741,2.0611,2.1614,0.0,0.0,0.0,0.0,0.0,0.0,0.0,0.0,0.0,0.0,0.0,0.0,0.0,0.0,0.0,0.0,0.0,0.0,0.0,0.0,2.5895,2.5895,2.5895,2.5895,2.5895,2.5895,2.5895,2.5895,2.5895,2.5895,2.5895,2.5895,2.5895,2.5895,2.5895,2.5895,2.5895,2.5895,2.5895,2.5895,2.5895,2.5895,2.5895,2.5895,2.5895,2.5895,2.5895,0.0,0.0,0.0,0.0,0.0,0.0,0.0,0.0,0.0,0.0936,0.1619,0.2144,0.2244,0.2721,0.3089,0.0,0.0,0.0,0.3593,0.3604,0.3655,0.3759,0.3778,0.3883,0.4115,0.4325,0.4525,0.4682,0.4799,0.5332,0.6215,0.5501,0.5717,0.6679,0.6291,0.681,0.7999,0.8636,0.9322,0.9999,1.013,1.0185,1.0155,0.9871,0.9769,0.9782,0.9795,0.9882,0.9982,0.9982,0.0,0.0,0.0,0.0,1.1193,1.1743,1.1957,1.2084,1.2495,1.29,1.3577,1.5177,1.6537,1.7826,1.9098,1.9719,2.0426,2.1818,0.0,0.0,0.0,0.0,0.0,0.0,0.0,0.0,0.0,0.0,0.0,0.0,0.0,0.0,0.0,0.0,0.0,0.0,0.0,0.0,2.5895,2.5895,2.5895,2.5895,2.5895,2.5895,2.5895,2.5895,2.5895,2.5895,2.5895,2.5895,2.5895,2.5895,2.5895,2.5895,2.5895,2.5895,2.5895,2.5895,2.5895,2.5895,2.5895,2.5895,2.5895,2.5895,2.5895,2.5895,0.0,0.0,0.0,0.0,0.0,0.0,0.0,0.0,0.0,0.0,0.2021,0.2299,0.2821,0.3059,0.3225,0.3364,0.3501,0.3578,0.3604,0.0,0.0,0.3631,0.3676,0.3728,0.376,0.4295,0.4723,0.5041,0.5052,0.5505,0.6362,0.5736,0.5741,0.6304,0.6802,0.7448,0.8212,0.8989,0.9711,1.0343,1.0486,1.0535,1.0535,1.047,1.0469,1.0484,1.0596,1.0653,1.0671,1.0674,1.0703,0.0,0.0,0.0,1.1453,1.1549,1.1773,1.2084,1.2495,1.3257,1.4276,1.5592,1.6883,1.8174,1.9436,0.0,2.1489,0.0,0.0,0.0,0.0,0.0,0.0,0.0,0.0,0.0,0.0,0.0,0.0,0.0,0.0,0.0,0.0,0.0,0.0,0.0,0.0,0.0,2.5895,2.5895,2.5895,2.5895,2.5895,2.5895,2.5895,2.5895,2.5895,2.5895,2.5895,2.5895,2.5895,2.5895,2.5895,2.5895,2.5895,2.5895,2.5895,2.5895,2.5895,2.5895,2.5895,2.5895,2.5895,2.5895,2.5895,2.5895,0.0,0.0,0.0,0.0,0.0,0.0,0.0,0.0,0.0,0.0,0.0,0.2812,0.3078,0.3225,0.3339,0.3398,0.3523,0.3604,0.3604,0.3604,0.3622,0.3652,0.3678,0.3766,0.3928,0.4184,0.4429,0.4655,0.4653,0.4984,0.5617,0.5612,0.58,0.6165,0.6806,0.7478,0.8204,0.925,1.012,1.0806,1.0858,1.0872,1.085,1.0667,1.047,1.0366,1.0684,1.0752,1.0726,1.098,1.1121,1.118,1.109,0.0,0.0,0.0,1.2153,1.2685,1.322,1.3726,1.4468,1.5963,1.7151,1.831,1.966,2.0546,2.1307,0.0,0.0,0.0,0.0,0.0,0.0,0.0,0.0,0.0,0.0,0.0,0.0,0.0,0.0,0.0,0.0,0.0,0.0,0.0,0.0,2.5895,2.5895,2.5895,2.5895,2.5895,2.5895,2.5895,2.5895,2.5895,2.5895,2.5895,2.5895,2.5895,2.5895,2.5895,2.5895,2.5895,2.5895,2.5895,2.5895,2.5895,2.5895,2.5895,2.5895,2.5895,2.5895,2.5895,2.5895,2.5895,0.0,0.0,0.0,0.0,0.0,0.0,0.0,0.0,0.0,0.0,0.0,0.3214,0.3251,0.0,0.0,0.0,0.3545,0.3604,0.3604,0.3622,0.3649,0.3697,0.3766,0.3891,0.4097,0.413,0.4254,0.448,0.436,0.4596,0.5189,0.5556,0.5903,0.6231,0.6834,0.7566,0.8402,0.9396,1.032,1.1107,1.1107,1.1107,1.107,1.0769,1.0504,1.0327,1.0768,1.0862,1.0838,1.1226,1.1417,1.1501,1.1501,1.1733,0.0,0.0,0.0,1.2975,1.3567,1.3818,1.433,1.6014,1.7138,1.8217,0.0,0.0,2.1041,0.0,0.0,0.0,0.0,0.0,0.0,0.0,0.0,0.0,0.0,0.0,0.0,0.0,0.0,0.0,0.0,0.0,0.0,0.0,0.0,2.5895,2.5895,2.5895,2.5895,2.5895,2.5895,2.5895,2.5895,2.5895,2.5895,2.5895,2.5895,2.5895,2.5895,2.5895,2.5895,2.5895,2.5895,2.5895,2.5895,2.5895,2.5895,2.5895,2.5895,2.5895,2.5895,2.5895,2.5895,2.5895,0.0,0.0,0.0,0.0,0.0,0.0,0.0,0.0,0.0,0.0,0.0,0.3251,0.3376,0.3398,0.3453,0.3578,0.3593,0.3604,0.3604,0.366,0.3697,0.3697,0.395,0.0,0.4097,0.4225,0.4513,0.4966,0.4524,0.477,0.5663,0.5755,0.6045,0.6506,0.7107,0.797,0.8982,0.942,1.0192,1.1107,1.1107,1.1107,1.1085,1.087,1.0786,1.0807,1.1157,1.1264,1.1291,1.1439,1.1487,1.1501,1.1501,1.1733,1.2005,0.0,0.0,0.0,1.2868,1.3182,1.3849,1.5597,1.6698,1.7821,0.0,0.0,0.0,0.0,0.0,0.0,0.0,0.0,0.0,0.0,0.0,0.0,0.0,0.0,0.0,0.0,0.0,0.0,0.0,0.0,0.0,0.0,0.0,2.5895,2.5895,2.5895,2.5895,2.5895,2.5895,2.5895,2.5895,2.5895,2.5895,2.5895,2.5895,2.5895,2.5895,2.5895,2.5895,2.5895,2.5895,2.5895,2.5895,2.5895,2.5895,2.5895,2.5895,2.5895,2.5895,2.5895,2.5895,2.5895,0.0,0.0,0.0,0.0,0.0,0.0,0.0,0.0,0.0,0.0,0.0,0.0,0.0,0.3576,0.3545,0.3593,0.3604,0.3622,0.366,0.3689,0.3777,0.395,0.4053,0.4141,0.4225,0.4276,0.4381,0.4556,0.4683,0.4944,0.5334,0.5959,0.6428,0.6772,0.7252,0.8031,0.9019,0.9431,0.0,0.0,0.0,1.1019,1.0907,1.0824,1.073,0.0,0.0,0.0,0.0,1.1382,1.1638,1.1814,1.1814,1.2075,1.246,1.285,1.2995,1.311,1.3454,1.3857,1.4331,1.4942,1.6208,1.7561,1.8536,1.9598,0.0,0.0,0.0,0.0,0.0,0.0,0.0,0.0,0.0,0.0,0.0,0.0,0.0,0.0,0.0,0.0,0.0,0.0,0.0,0.0,0.0,0.0,2.5895,2.5895,2.5895,2.5895,2.5895,2.5895,2.5895,2.5895,2.5895,2.5895,2.5895,2.5895,2.5895,2.5895,2.5895,2.5895,2.5895,2.5895,2.5895,2.5895,2.5895,2.5895,2.5895,2.5895,2.5895,2.5895,2.5895,2.5895,0.0,0.0,0.0,0.0,0.0,0.0,0.0,0.0,0.0,0.4072,0.0,0.0,0.0,0.0,0.3655,0.3633,0.3678,0.3718,0.3766,0.381,0.3979,0.4324,0.4225,0.4287,0.453,0.453,0.453,0.453,0.5009,0.5356,0.5583,0.6247,0.6757,0.7119,0.7429,0.8069,0.0,0.0,0.0,1.0455,0.0,0.0,1.0644,0.0,0.0,0.0,0.0,0.0,0.0,0.0,0.0,0.0,0.0,0.0,0.0,0.0,0.0,1.3471,1.3811,1.4021,1.4197,1.4363,1.5516,1.6782,1.7425,0.0,0.0,0.0,0.0,0.0,0.0,0.0,0.0,0.0,0.0,0.0,0.0,0.0,0.0,0.0,0.0,0.0,0.0,0.0,0.0,0.0,0.0,0.0,2.5895,2.5895,2.5895,2.5895,2.5895,2.5895,2.5895,2.5895,2.5895,2.5895,2.5895,2.5895,2.5895,2.5895,2.5895,2.5895,2.5895,2.5895,2.5895,2.5895,2.5895,2.5895,2.5895,2.5895,2.5895,2.5895,2.5895,2.5895,0.0,0.0,0.0,0.0,0.0,0.0,0.0,0.0,0.422,0.4204,0.0,0.0,0.0,0.0,0.0,0.3725,0.3832,0.391,0.391,0.4031,0.4302,0.4768,0.448,0.453,0.4983,0.502,0.5016,0.5016,0.5491,0.5991,0.6515,0.6651,0.7,0.7513,0.7642,0.8077,0.8718,0.0,0.9539,1.0103,0.0,1.0304,1.0344,0.0,0.0,0.0,1.1334,1.1501,0.0,1.1884,0.0,0.0,0.0,0.0,0.0,0.0,0.0,0.0,0.0,0.0,0.0,0.0,0.0,0.0,1.645,0.0,0.0,0.0,0.0,0.0,0.0,0.0,0.0,0.0,0.0,0.0,0.0,0.0,0.0,0.0,0.0,0.0,0.0,0.0,0.0,0.0,0.0,2.5895,2.5895,2.5895,2.5895,2.5895,2.5895,2.5895,2.5895,2.5895,2.5895,2.5895,2.5895,2.5895,2.5895,2.5895,2.5895,2.5895,2.5895,2.5895,2.5895,2.5895,2.5895,2.5895,2.5895,2.5895,2.5895,2.5895,2.5895,2.5895,0.0,0.0,0.0,0.0,0.0,0.4909,0.4848,0.4676,0.4528,0.0,0.0,0.0,0.4346,0.4334,0.4302,0.4282,0.4174,0.4153,0.4253,0.4163,0.4203,0.4429,0.4677,0.4868,0.4999,0.5329,0.5502,0.5502,0.6023,0.6407,0.6651,0.7084,0.7409,0.7642,0.768,0.8077,0.8718,0.906,0.0,0.9768,1.0036,1.0302,0.0,0.0,0.0,0.0,0.0,1.1501,1.1517,0.0,1.1581,1.1525,0.0,0.0,0.0,0.0,0.0,0.0,1.352,0.0,0.0,0.0,0.0,0.0,0.0,0.0,0.0,0.0,0.0,0.0,0.0,0.0,0.0,0.0,0.0,0.0,0.0,0.0,0.0,0.0,0.0,0.0,0.0,0.0,0.0,0.0,2.5895,2.5895,2.5895,2.5895,2.5895,2.5895,2.5895,2.5895,2.5895,2.5895,2.5895,2.5895,2.5895,2.5895,2.5895,2.5895,2.5895,2.5895,2.5895,2.5895,2.5895,2.5895,2.5895,2.5895,2.5895,2.5895,2.5895,2.5895,2.5895,2.5895,0.0,0.0,0.5375,0.5294,0.5173,0.5052,0.4926,0.4789,0.4689,0.0,0.0,0.0,0.488,0.4966,0.4973,0.4923,0.463,0.4447,0.4443,0.4515,0.4654,0.4868,0.5146,0.5373,0.554,0.5867,0.6034,0.6034,0.6605,0.6933,0.7035,0.7349,0.7572,0.7701,0.7701,0.8077,0.8711,0.8902,0.0,0.0,1.012,0.0,0.0,1.1033,1.1407,0.0,0.0,0.0,1.2153,1.2017,1.1756,0.0,0.0,0.0,0.0,0.0,0.0,0.0,0.0,0.0,0.0,0.0,0.0,0.0,0.0,0.0,0.0,0.0,0.0,0.0,0.0,0.0,0.0,0.0,0.0,0.0,0.0,0.0,0.0,0.0,0.0,0.0,0.0,0.0,0.0,2.5579,2.5621,2.5688,2.5884,2.5895,2.5895,2.5895,2.5895,2.5895,2.5895,2.5895,2.5895,2.5895,2.5895,2.5895,2.5895,2.5895,2.5895,2.5895,2.5895,2.5895,2.5895,2.5895,2.5895,2.5895,2.5895,2.5895,2.5895,2.5895,2.5895,2.5895,0.0,0.0,0.5331,0.5143,0.5086,0.5041,0.4914,0.4835,0.4808,0.0,0.4805,0.493,0.541,0.5579,0.5611,0.5484,0.5142,0.4841,0.466,0.5085,0.5467,0.5734,0.5788,0.5981,0.631,0.6488,0.6583,0.66,0.715,0.7437,0.7502,0.7513,0.7583,0.7701,0.7738,0.8114,0.8704,0.874,0.0,0.9747,1.0337,1.0616,0.0,0.0,1.2037,0.0,1.2535,1.2861,1.31,1.2726,1.2168,0.0,0.0,0.0,0.0,0.0,1.2763,0.0,0.0,0.0,0.0,0.0,0.0,0.0,0.0,0.0,0.0,0.0,0.0,0.0,0.0,0.0,0.0,0.0,0.0,0.0,0.0,0.0,0.0,0.0,0.0,0.0,0.0,0.0,2.4681,2.5086,2.5162,2.5403,2.5874,2.5895,2.5895,2.5895,2.5895,2.5895,2.5895,2.5895,2.5895,2.5895,2.5895,2.5895,2.5895,2.5895,2.5895,2.5895,2.5895,2.5895,2.5895,2.5895,2.5895,2.5895,2.5895,2.5895,2.5895,2.5895,2.5895,2.5895,0.5395,0.5395,0.5331,0.5143,0.5005,0.4926,0.4909,0.5153,0.5242,0.4935,0.4968,0.5058,0.5173,0.5295,0.5364,0.5341,0.5553,0.5665,0.5623,0.6023,0.618,0.6034,0.6383,0.655,0.6466,0.6855,0.7115,0.7223,0.7395,0.7492,0.7502,0.7611,0.768,0.7716,0.7979,0.8326,0.8718,0.8994,0.0,1.0259,1.0394,0.0,1.106,1.1628,1.2271,1.2909,1.2965,1.3219,1.341,0.0,1.2503,1.2232,0.0,0.0,0.0,1.1758,0.0,0.0,0.0,0.0,0.0,0.0,0.0,0.0,0.0,0.0,0.0,0.0,0.0,0.0,0.0,0.0,0.0,0.0,0.0,0.0,0.0,0.0,0.0,0.0,0.0,0.0,0.0,0.0,2.455,2.4637,2.4987,2.5403,2.5874,2.5895,2.5895,2.5895,2.5895,2.5895,2.5895,2.5895,2.5895,2.5895,2.5895,2.5895,2.5895,2.5895,2.5895,2.5895,2.5895,2.5895,2.5895,2.5895,2.5895,2.5895,2.5895,2.5895,2.5895,2.5895,2.5895,2.5895,0.5395,0.5314,0.5215,0.5125,0.4995,0.4902,0.4901,0.5078,0.5154,0.5011,0.5641,0.6195,0.6475,0.6556,0.6602,0.6602,0.6533,0.6461,0.6357,0.6751,0.6897,0.6655,0.7008,0.7151,0.7048,0.7246,0.7384,0.7447,0.7558,0.7593,0.76,0.767,0.7877,0.8202,0.8202,0.8553,0.9153,0.0,0.9662,1.0419,1.0653,0.0,1.1523,1.2186,1.2719,1.3116,1.3299,1.3458,1.3569,1.341,1.3124,0.0,0.0,1.2202,1.2546,0.0,1.2121,1.2737,0.0,0.0,0.0,1.2957,0.0,0.0,0.0,0.0,0.0,0.0,0.0,0.0,0.0,0.0,0.0,0.0,0.0,0.0,0.0,0.0,0.0,0.0,0.0,0.0,0.0,0.0,2.3602,2.4071,2.479,2.5293,2.5545,2.5764,2.5895,2.5895,2.5895,2.5895,2.5895,2.5895,2.5895,2.5895,2.5895,2.5895,2.5895,2.5895,2.5895,2.5895,2.5895,2.5895,2.5895,2.5895,2.5895,2.5895,2.5895,2.5895,2.5895,2.5895,2.5895,2.5895,0.5495,0.5334,0.5194,0.5164,0.504,0.4944,0.4941,0.5038,0.5215,0.5527,0.6556,0.7433,0.7878,0.7919,0.7919,0.7919,0.7652,0.7382,0.713,0.7599,0.7759,0.7485,0.7682,0.7754,0.7676,0.7616,0.7577,0.7534,0.7642,0.7701,0.7701,0.7701,0.8023,0.8601,0.0,0.0,0.0,0.0,0.0,1.0621,0.0,1.1562,1.1992,1.287,1.3243,1.3354,1.376,1.3911,1.3951,1.422,0.0,1.3227,1.2901,1.2861,0.0,0.0,0.0,0.0,0.0,0.0,0.0,0.0,0.0,1.3998,0.0,0.0,0.0,0.0,0.0,0.0,0.0,0.0,0.0,0.0,0.0,0.0,0.0,0.0,0.0,0.0,0.0,0.0,0.0,0.0,2.2655,2.3506,2.4399,2.4998,2.5184,2.5567,2.5808,2.5895,2.5895,2.5895,2.5895,2.5895,2.5895,2.5895,2.5895,2.5895,2.5895,2.5895,2.5895,2.5895,2.5895,2.5895,2.5895,2.5895,2.5895,2.5895,2.5895,2.5895,2.5895,2.5895,2.5895,2.5895,0.5839,0.5689,0.5508,0.5384,0.5203,0.508,0.5083,0.5536,0.6197,0.7112,0.7618,0.7929,0.7987,0.0,0.0,0.0,0.0,0.0,0.825,0.0,0.9024,0.8462,0.8469,0.8321,0.7955,0.7949,0.7853,0.768,0.7691,0.7701,0.7701,0.7701,0.7898,0.8279,0.8654,0.0,0.0,0.0,1.0728,0.0,1.1894,1.2196,0.0,1.321,1.3719,1.4085,1.476,1.5025,1.5033,0.0,1.4585,1.3934,0.0,1.4139,1.46,1.3186,0.0,0.0,0.0,0.0,0.0,0.0,1.3561,0.0,0.0,0.0,0.0,0.0,0.0,0.0,0.0,0.0,0.0,0.0,0.0,0.0,0.0,0.0,0.0,0.0,0.0,0.0,0.0,0.0,0.0,2.3045,2.3572,2.4268,2.514,2.525,2.5468,2.5884,2.5895,2.5895,2.5895,2.5895,2.5895,2.5895,2.5895,2.5895,2.5895,2.5895,2.5895,2.5895,2.5895,2.5895,2.5895,2.5895,2.5895,2.5895,2.5895,2.5895,2.5895,2.5895,2.5895,2.5895,0.5724,0.5597,0.5571,0.5824,0.5447,0.5283,0.5832,0.5936,0.6205,0.6934,0.7524,0.8001,0.0,0.0,0.0,0.0,0.0,0.9526,0.0,0.0,0.9702,0.9256,0.9133,0.8985,0.8814,0.8358,0.8172,0.8282,0.7891,0.7701,0.7701,0.7701,0.8081,0.8789,0.8859,0.0,1.0237,0.0,1.1099,0.0,0.0,0.0,0.0,1.3971,1.452,1.508,1.5383,1.5807,1.624,0.0,1.6031,0.0,0.0,0.0,0.0,0.0,0.0,0.0,0.0,0.0,0.0,0.0,0.0,0.0,1.3895,0.0,1.4326,0.0,0.0,0.0,0.0,0.0,0.0,0.0,0.0,0.0,0.0,0.0,0.0,0.0,0.0,0.0,0.0,0.0,0.0,0.0,0.0,2.3888,2.4312,2.4889,2.5282,2.549,2.5753,2.5895,2.5895,2.5895,2.5895,2.5895,2.5895,2.5895,2.5895,2.5895,2.5895,2.5895,2.5895,2.5895,2.5895,2.5895,2.5895,2.5895,2.5895,2.5895,2.5895,2.5895,2.5895,2.5895,0.564,0.5517,0.5574,0.597,0.5546,0.5474,0.6412,0.6545,0.6736,0.0,0.0,0.0,0.9205,0.9762,0.0,0.0,1.0273,1.0293,0.0,0.0,1.0243,0.9904,0.966,0.0,0.9459,0.8888,0.8619,0.8704,0.8216,0.792,0.784,0.784,0.8275,0.906,0.9086,0.9703,1.075,0.0,0.0,1.2421,1.29,1.3667,1.4561,1.471,1.5202,1.5875,1.6099,1.6453,1.6835,1.7167,1.6988,0.0,1.6115,0.0,0.0,0.0,0.0,0.0,1.454,0.0,0.0,0.0,0.0,0.0,0.0,0.0,0.0,0.0,0.0,0.0,0.0,0.0,0.0,0.0,0.0,0.0,0.0,0.0,0.0,0.0,0.0,0.0,0.0,0.0,0.0,0.0,0.0,0.0,2.3703,2.4399,2.4922,2.5184,2.5534,2.5764,2.5895,2.5895,2.5895,2.5895,2.5895,2.5895,2.5895,2.5895,2.5895,2.5895,2.5895,2.5895,2.5895,2.5895,2.5895,2.5895,2.5895,2.5895,2.5895,2.5895,2.5895,2.5895,0.5748,0.5595,0.5602,0.5612,0.5438,0.5617,0.6544,0.7504,0.0,0.0,0.0,0.0,0.0,0.0,0.0,0.0,0.0,1.1068,1.0619,0.0,1.0732,0.0,0.0,0.9789,0.0,0.9566,0.9277,0.8704,0.8682,0.8506,0.8187,0.8187,0.837,0.8745,0.9317,0.9959,1.0637,1.1239,1.1892,1.2654,1.3315,1.4412,1.5613,0.0,1.5594,1.6281,1.715,0.0,0.0,1.7563,1.6973,0.0,0.0,0.0,0.0,0.0,0.0,0.0,0.0,0.0,0.0,1.4704,0.0,0.0,0.0,0.0,1.4409,0.0,0.0,0.0,0.0,0.0,0.0,0.0,0.0,0.0,0.0,0.0,0.0,0.0,0.0,0.0,0.0,0.0,0.0,0.0,0.0,0.0,2.364,2.3736,2.4183,2.5162,2.5206,2.5446,2.5895,2.5895,2.5895,2.5895,2.5895,2.5895,2.5895,2.5895,2.5895,2.5895,2.5895,2.5895,2.5895,2.5895,2.5895,2.5895,2.5895,2.5895,2.5895,2.5895,2.5895,2.5895,0.6567,0.5948,0.5521,0.593,0.6123,0.6559,0.7544,0.7726,0.0,0.0,0.0,0.0,0.0,0.0,1.1788,0.0,0.0,1.1939,1.1857,1.1922,0.0,0.0,0.0,1.0792,0.0,0.0,0.0,0.9621,0.9004,0.8838,0.9119,0.8953,0.9063,0.9434,0.0,1.0309,0.0,0.0,0.0,0.0,0.0,1.534,1.6341,0.0,0.0,1.6975,1.7256,1.7693,0.0,1.8599,1.8198,1.7629,1.8102,1.8158,1.8016,1.7935,1.8447,0.0,0.0,0.0,1.7528,1.6588,0.0,0.0,0.0,0.0,0.0,0.0,0.0,0.0,0.0,0.0,0.0,0.0,0.0,0.0,0.0,0.0,0.0,0.0,0.0,0.0,0.0,0.0,0.0,0.0,0.0,0.0,0.0,2.3364,2.4019,2.4714,2.5031,2.5424,2.5895,2.5895,2.5895,2.5895,2.5895,2.5895,2.5895,2.5895,2.5895,2.5895,2.5895,2.5895,2.5895,2.5895,2.5895,2.5895,2.5895,2.5895,2.5895,2.5895,2.5895,2.5895,0.6618,0.5992,0.5595,0.6198,0.6425,0.6902,0.0,0.0,0.0,0.0,1.0208,0.0,1.1453,0.0,1.2299,0.0,1.2405,1.2458,1.2653,1.2567,0.0,1.1935,1.1716,0.0,0.0,0.0,0.0,0.0,0.0,0.9336,0.9601,0.9618,0.9684,0.982,0.0,1.0775,1.1327,0.0,1.2551,0.0,0.0,1.5912,0.0,0.0,1.6965,1.7517,0.0,1.8232,1.868,1.9003,1.8727,1.8368,1.9044,1.8981,1.8733,1.925,1.9652,1.9778,1.9157,1.9042,0.0,1.7988,1.7657,0.0,1.663,0.0,0.0,0.0,0.0,0.0,0.0,0.0,0.0,0.0,0.0,0.0,0.0,0.0,0.0,0.0,0.0,0.0,0.0,0.0,0.0,0.0,0.0,0.0,0.0,0.0,2.3506,2.4203,2.4703,2.5184,2.5654,2.5819,2.5895,2.5895,2.5895,2.5895,2.5895,2.5895,2.5895,2.5895,2.5895,2.5895,2.5895,2.5895,2.5895,2.5895,2.5895,2.5895,2.5895,2.5895,2.5895,2.5895,0.6152,0.5912,0.5954,0.0,0.6432,0.0,0.0,0.0,0.9766,0.0,1.2026,1.2508,1.2565,1.2696,1.2792,1.2792,1.2676,0.0,1.3042,1.2757,0.0,0.0,1.1986,1.1496,1.1136,0.0,0.0,0.0,0.0,0.0,0.9665,1.0153,1.0205,0.989,1.0863,0.0,1.1396,1.2236,1.302,1.38,1.5192,1.615,1.6805,1.7191,0.0,1.7949,1.8779,1.8549,1.7979,1.8804,1.8528,1.7991,1.8926,1.9498,1.9926,2.036,2.0932,2.1256,2.0445,2.0081,1.9741,1.8948,0.0,0.0,0.0,0.0,1.6722,0.0,0.0,0.0,0.0,0.0,0.0,0.0,0.0,0.0,0.0,0.0,0.0,0.0,0.0,0.0,0.0,0.0,0.0,0.0,0.0,0.0,0.0,0.0,0.0,2.3662,2.4224,2.4725,2.5204,2.5676,2.5895,2.5895,2.5916,2.5916,2.5895,2.5916,2.5916,2.5895,2.5895,2.5895,2.5895,2.5895,2.5895,2.5895,2.5895,2.5895,2.5895,2.5895,2.5895,2.5895,0.8554,0.8444,0.8163,0.0,0.7813,0.8101,0.0,0.0,0.0,0.0,1.225,1.262,1.3519,1.387,1.4035,1.4035,1.4018,0.0,0.0,0.0,0.0,1.3258,1.2855,1.2279,1.1489,1.1386,0.0,1.0477,0.0,0.0,1.0498,1.0384,1.0373,1.0488,0.0,0.0,1.185,1.2384,1.345,1.4889,1.6007,1.686,0.0,0.0,1.8255,1.854,1.8501,1.8514,1.858,1.8799,1.8563,1.8338,1.9218,1.9883,2.0322,2.0345,2.1131,2.1804,2.0952,2.0509,2.0349,2.0729,2.0115,1.9406,0.0,0.0,0.0,0.0,0.0,0.0,0.0,0.0,0.0,0.0,0.0,0.0,0.0,0.0,0.0,0.0,0.0,0.0,0.0,0.0,0.0,0.0,0.0,0.0,0.0,0.0,0.0,2.3662,2.4224,2.4725,2.5204,2.5676,2.5895,2.5895,2.6198,2.6198,2.5916,2.6207,2.6166,2.5895,2.5895,2.5895,2.5895,2.5895,2.5895,2.5895,2.5895,2.5895,2.5895,2.5895,2.5895,2.5895,0.8101,0.0,0.0,0.7987,0.0,0.0,1.0067,0.0,0.0,1.2617,1.3044,0.0,1.4134,1.4401,1.4511,1.4511,1.4511,0.0,0.0,0.0,0.0,1.3718,1.3397,1.2833,1.2015,1.1738,0.0,1.1041,0.0,0.0,1.1025,1.1075,1.112,1.1202,0.0,1.2024,1.232,1.3124,1.4237,1.5494,1.6353,0.0,0.0,1.816,1.8518,1.8781,1.8582,1.8638,1.8804,1.8804,1.8669,1.8684,1.9606,2.0005,2.0198,2.0753,2.1271,2.1699,2.1818,2.1713,2.1677,2.2106,2.1729,2.1164,2.0824,2.0385,1.9834,0.0,0.0,0.0,0.0,0.0,0.0,0.0,0.0,0.0,0.0,0.0,0.0,0.0,0.0,0.0,0.0,0.0,0.0,0.0,0.0,0.0,0.0,0.0,0.0,2.3354,2.4115,2.4706,2.5147,2.5834,2.6281,2.6456,2.6693,2.6693,2.6488,2.6693,2.6672,2.6467,2.626,2.6156,2.6156,2.5979,2.5895,2.5895,2.5895,2.5895,2.5895,2.5895,2.5895,2.5895,0.6745,0.0,0.0,0.0,0.0,0.0,0.0,1.1116,0.0,1.316,0.0,1.455,1.455,1.4631,1.4675,1.4675,0.0,1.4836,1.5009,1.4772,1.447,1.4121,1.3818,1.3316,1.2648,1.2134,0.0,0.0,0.0,0.0,1.1278,1.1775,1.1904,1.1795,0.0,0.0,0.0,1.4202,1.5162,0.0,1.6567,1.7262,1.7904,1.8232,1.8557,1.8804,1.8804,1.8804,1.8804,1.8804,1.8804,1.8958,1.9826,1.9914,1.9915,2.1089,2.1232,2.1303,2.2635,2.2961,2.2947,2.3159,2.3131,2.2843,2.1968,2.1468,2.1009,2.0412,1.9965,1.9523,0.0,0.0,0.0,0.0,0.0,0.0,0.0,0.0,0.0,0.0,0.0,0.0,0.0,0.0,0.0,0.0,0.0,0.0,0.0,0.0,0.0,2.2968,2.402,0.0,2.5102,0.0,2.6796,2.7205,2.7267,2.7246,2.7205,2.7267,2.7246,2.7165,2.6702,2.6507,2.6466,2.6114,2.5979,2.5979,2.5916,2.5895,2.5895,2.5895,2.5895,2.5895,0.8675,0.0,0.0,0.0,0.0,1.1883,1.2834,1.2886,1.31,1.3916,1.448,1.484,1.484,1.5315,1.5644,1.5644,1.5913,0.0,0.0,0.0,0.0,1.4767,1.4465,1.4015,1.3338,1.3381,1.2823,0.0,0.0,0.0,1.1134,1.1331,0.0,0.0,0.0,0.0,1.4296,1.5149,0.0,1.6591,1.7331,1.7856,1.8247,1.8574,1.8749,1.8804,1.8804,1.8804,1.8804,1.8804,1.8804,1.8827,1.9004,1.9588,2.0155,2.0005,2.0496,2.1289,2.2259,2.2204,2.2248,2.3844,2.3819,2.3296,2.2857,2.2684,2.2379,2.1516,2.1265,2.0937,2.002,0.0,0.0,0.0,0.0,0.0,0.0,0.0,0.0,0.0,0.0,0.0,0.0,0.0,0.0,0.0,0.0,0.0,0.0,0.0,0.0,0.0,0.0,0.0,0.0,0.0,2.7124,2.7205,2.7574,2.7574,2.7205,2.7595,2.7574,2.7165,2.6702,2.6507,2.6475,2.6424,2.6383,2.6353,2.6042,2.5895,2.5895,2.5895,2.5895,2.5895,0.8448,0.0,0.0,0.0,0.0,0.0,0.0,1.4015,0.0,1.4533,1.5063,1.5424,1.5424,1.587,1.6148,1.6148,1.6309,1.6331,1.6184,1.6001,1.5701,1.517,1.505,0.0,1.403,1.3767,1.3352,1.2739,0.0,0.0,1.229,0.0,0.0,1.2623,0.0,1.3996,0.0,0.0,0.0,1.6789,1.7691,1.8166,1.8343,1.8669,1.8804,1.8804,1.8804,1.8989,1.9165,1.8897,1.8804,1.8804,1.8804,1.9317,1.9948,1.9965,2.0483,2.1288,2.2305,2.2409,2.2471,2.3515,2.3525,2.3278,2.3227,2.3203,2.3032,2.2448,2.2324,2.1953,2.074,2.0156,0.0,0.0,0.0,0.0,0.0,0.0,0.0,0.0,0.0,0.0,0.0,0.0,0.0,0.0,0.0,0.0,0.0,0.0,0.0,0.0,0.0,0.0,0.0,0.0,0.0,2.7886,2.8111,2.8091,2.7886,2.8111,2.8091,2.7846,2.7412,2.7228,2.7188,2.6693,2.6383,2.6177,2.5979,2.5895,2.5895,2.5895,2.5895,2.5895,0.0,0.8618,0.0,0.0,1.1613,0.0,1.3886,1.4878,1.5417,1.5141,1.5629,1.6009,1.6009,1.6309,1.6521,1.6521,1.6558,1.6565,1.6499,1.6521,1.6243,1.5636,1.5549,1.5242,1.4704,1.4194,1.3937,0.0,0.0,0.0,0.0,0.0,0.0,0.0,0.0,0.0,0.0,0.0,1.6797,1.7011,1.7938,1.8343,1.8438,1.8701,1.8804,1.8804,1.892,1.9234,1.9554,1.9234,1.9127,1.9127,1.9127,1.9417,1.9851,2.0306,2.0713,2.1266,2.2463,2.2803,2.287,2.3175,2.3255,2.3313,2.3493,2.3551,2.3511,2.3359,2.3154,2.2652,2.1561,2.119,0.0,0.0,0.0,0.0,0.0,0.0,0.0,0.0,0.0,0.0,0.0,0.0,0.0,0.0,0.0,0.0,0.0,0.0,0.0,0.0,0.0,2.5113,2.58,0.0,2.7825,0.0,2.849,2.849,2.849,2.849,2.849,2.8471,2.8082,2.7841,2.7687,2.6837,2.6311,2.6021,2.5937,2.5895,2.5895,2.5895,2.5895,2.5895,0.0,0.0,0.0,0.0,0.0,0.0,0.0,1.5594,1.5841,1.5812,1.614,1.6345,1.6345,1.6661,1.6859,1.6859,1.7069,1.7121,1.6873,1.6859,1.6697,1.6316,1.6016,1.568,1.5322,1.5368,1.5036,0.0,0.0,0.0,0.0,0.0,0.0,0.0,0.0,0.0,0.0,1.6527,1.7096,1.7729,1.8128,1.8471,1.8765,1.8788,1.8804,1.885,1.9348,1.9546,1.9669,2.0033,2.0155,2.0155,2.0155,2.0201,2.0337,2.0794,2.0975,2.1266,2.2463,2.2803,2.296,2.3587,2.374,2.3791,2.3992,2.4032,2.4101,2.4304,2.3624,2.2957,2.2826,2.2123,2.15,0.0,0.0,0.0,0.0,0.0,0.0,0.0,0.0,0.0,0.0,0.0,0.0,0.0,0.0,0.0,0.0,0.0,0.0,2.2968,0.0,2.5723,2.58,2.7518,0.0,2.849,2.849,2.849,2.849,2.849,2.849,2.8471,2.8082,2.7667,2.7226,2.6713,2.6487,2.6415,2.6031,2.5895,2.5895,2.5895,2.5895,2.5895,0.0,0.0,0.0,0.0,0.0,0.0,0.0,1.5861,1.6499,1.6499,1.6609,1.6705,1.6705,1.6968,1.7135,1.7135,1.7229,1.7251,1.715,1.7135,1.7019,1.6719,1.6684,1.6529,1.6253,1.6018,1.5784,0.0,0.0,0.0,0.0,0.0,0.0,0.0,0.0,1.6107,1.6551,1.7329,1.7834,1.8143,1.8478,1.8677,1.8804,1.8804,1.8804,1.8827,1.9027,1.9325,1.9669,2.0133,2.0292,2.0292,2.0292,2.0487,2.0758,2.0952,2.1199,2.153,2.1998,2.2132,2.2198,2.2467,2.2862,2.3315,2.3804,2.4261,2.4629,2.4868,2.4386,2.3897,2.3897,2.334,2.2764,0.0,0.0,0.0,0.0,0.0,0.0,0.0,0.0,0.0,0.0,0.0,0.0,0.0,0.0,0.0,0.0,0.0,0.0,2.2968,0.0,2.527,2.5789,2.6791,2.7704,2.849,2.8263,2.8271,2.849,2.849,2.849,2.849,2.8331,2.801,2.7574,2.7103,2.6755,2.6466,2.6063,2.5895,2.5895,2.5895,2.5895,2.5895,1.0004,0.0,1.0833,0.0,1.2985,1.4112,1.4843,1.6056,1.6932,1.7005,1.7019,1.7019,1.7019,1.7194,1.7302,1.7302,1.7302,1.7302,1.7302,1.7302,1.723,1.7027,1.7136,0.0,1.6914,1.6653,1.6587,1.6726,1.621,0.0,0.0,1.5181,0.0,0.0,1.6563,1.6924,1.7075,1.7946,1.8295,1.8327,1.8662,1.8804,1.8804,1.8804,1.8897,1.905,1.9196,1.9577,2.007,2.0555,2.0722,2.0722,2.0722,2.0938,2.1199,2.1199,2.1432,2.1696,2.1696,2.1696,2.1696,2.1696,2.2242,2.2991,2.3649,2.437,2.5009,2.5345,2.5031,2.4714,2.4714,2.429,2.3842,2.3493,0.0,0.0,0.0,0.0,0.0,0.0,2.161,2.1479,0.0,0.0,0.0,0.0,0.0,0.0,0.0,0.0,0.0,0.0,0.0,0.0,0.0,2.6539,2.7319,2.8119,2.8091,2.8163,2.8331,2.8451,2.8371,2.8139,2.8271,2.801,2.7464,2.7135,2.6734,2.629,2.6021,2.5895,2.5895,2.5895,2.5895,2.5895,1.1696,1.1861,1.2176,1.312,1.4119,1.4898,1.5229,1.622,1.699,1.7258,1.7302,1.7302,1.7302,1.7302,1.7302,1.7302,1.7302,1.7302,1.7302,1.7302,1.7302,0.0,0.0,1.7206,1.7198,1.7388,1.7473,1.7503,0.0,0.0,1.5208,1.4798,1.5559,1.7276,1.7284,1.7474,1.7809,1.8144,1.8295,1.8327,1.8662,1.8804,1.8804,1.8804,1.9119,1.9646,2.0133,2.0578,2.1042,2.153,2.1674,2.1674,2.1674,2.1696,2.1687,2.1687,2.1696,2.1696,2.1696,2.1696,2.1696,2.1696,2.2242,2.2991,2.3649,2.437,2.5094,2.5738,2.5523,2.5184,2.5184,2.4812,2.4495,2.4484,0.0,0.0,0.0,0.0,0.0,0.0,2.161,2.161,2.1581,0.0,0.0,0.0,0.0,0.0,0.0,0.0,0.0,2.3651,2.4601,0.0,2.5806,2.7198,2.7667,2.7226,2.8079,2.8303,2.7921,2.8311,2.8039,2.7246,2.7708,2.7371,2.6528,2.6507,2.627,2.5916,2.5895,2.5895,2.5895,2.5895,2.5895,2.5895,1.0962,1.168,1.2344,1.2642,1.4243,1.5521,1.5615,1.6507,1.7193,1.7295,1.7302,1.738,1.7551,1.7403,1.738,0.0,1.7574,1.7644,0.0,1.7854,1.7854,1.7854,1.7995,1.808,1.808,1.8049,1.8047,1.8047,0.0,0.0,0.0,1.6846,1.7093,1.7641,1.7888,1.8033,1.8152,1.851,1.8638,1.8646,1.8765,1.9027,1.9348,1.9348,1.9646,2.011,2.0246,2.0405,2.06,2.1073,2.1221,2.1275,2.1597,2.1696,2.1696,2.1696,2.1696,2.1696,2.1696,2.1696,2.1696,2.1696,2.2599,2.3551,2.3757,2.4722,2.5633,2.5864,2.5775,2.5666,2.5666,2.5293,2.4976,2.4976,2.4441,0.0,0.0,0.0,0.0,0.0,2.3026,2.2914,0.0,2.2269,0.0,0.0,0.0,0.0,0.0,0.0,0.0,0.0,2.4658,0.0,2.5797,2.6567,2.7188,2.7687,2.7962,2.8022,2.7913,2.8022,2.7768,2.7205,2.736,2.7246,2.696,2.6631,2.6424,2.629,2.6021,2.5895,2.5895,2.5895,2.5895,2.5895,1.083,1.1429,1.2069,1.2445,1.4017,1.5365,1.5751,1.6732,1.745,1.745,1.7543,1.766,1.7838,1.7707,0.0,1.7838,1.7861,1.7924,1.8087,1.811,1.811,1.811,1.8357,1.8504,1.8504,0.0,0.0,1.8494,1.8144,1.8063,1.816,1.8055,1.8063,1.8176,1.8398,1.8494,1.851,1.8709,1.8804,1.8804,1.8804,1.9119,1.9592,1.9592,2.0002,2.0555,2.0555,2.0668,2.088,2.1163,2.1253,2.132,2.1597,2.1696,2.1696,2.1696,2.1696,2.1696,2.1696,2.1696,2.1696,2.1696,2.2765,2.3951,2.4477,2.5264,2.5895,2.5895,2.5895,2.5895,2.5895,2.5665,2.5468,2.5468,2.5075,2.4769,2.4769,0.0,0.0,0.0,0.0,0.0,0.0,2.3307,0.0,0.0,0.0,0.0,0.0,0.0,0.0,2.4227,2.4878,0.0,2.5824,2.6268,2.6725,2.7138,2.7301,2.7371,2.7371,2.7566,2.731,2.6725,2.6878,2.6857,2.6684,2.6394,2.627,2.6249,2.6,2.5895,2.5895,2.5895,2.5895,2.5895,1.1194,1.1267,0.0,0.0,1.3596,0.0,1.5673,1.6833,1.7628,1.7721,1.7955,1.811,1.8133,1.8133,1.8133,1.8156,0.0,0.0,0.0,1.8156,1.8156,1.8156,1.8381,1.8527,1.8527,1.8697,1.8804,1.8804,1.8494,1.8479,1.8796,1.8486,1.851,1.8804,1.8804,1.8804,1.8804,1.8804,1.8804,1.8804,1.885,1.9165,1.9646,1.9683,2.0252,2.1042,2.1042,2.132,2.1696,2.1696,2.1696,2.1696,2.1696,2.1696,2.1696,2.1696,2.1696,2.1696,2.1696,2.1696,2.1696,2.1696,2.2765,2.4167,2.557,2.5895,2.5895,2.5895,2.5895,2.5895,2.5895,2.5895,2.5895,2.5895,2.5534,2.525,2.525,0.0,0.0,0.0,0.0,0.0,0.0,2.4506,2.4506,0.0,0.0,0.0,0.0,0.0,2.4227,2.5162,2.5228,2.5468,2.5895,2.629,2.6332,2.5979,2.6373,2.6528,2.6507,2.696,2.6684,2.5916,2.629,2.6249,2.5895,2.5895,2.5895,2.5895,2.5895,2.5895,2.5895,2.5895,2.5895,2.5895,0.0,0.0,1.2417,1.2654,1.3596,1.4698,1.5923,1.6355,1.6904,1.7877,1.8063,1.8179,1.8381,1.8404,1.8473,1.862,1.8489,1.8473,1.862,1.8643,1.8643,1.8643,1.8697,1.872,1.872,1.8789,1.8804,1.8804,1.8717,1.8717,1.8804,1.8717,1.8725,1.8804,1.8804,1.8804,1.8804,1.8804,1.8804,1.885,1.9256,1.9691,2.017,2.0524,2.1019,2.153,2.153,2.1597,2.1696,2.1696,2.1696,2.1696,2.1696,2.1696,2.1696,2.1696,2.1696,2.1696,2.1696,2.1696,2.1696,2.1696,2.2765,2.4167,2.557,2.5895,2.5895,2.5895,2.5895,2.5895,2.5895,2.5895,2.5895,2.5895,2.5808,2.5732,2.5732,2.5633,0.0,0.0,2.5031,2.4889,2.4519,2.4506,2.4506,0.0,0.0,0.0,0.0,2.4911,2.4954,2.5184,2.5556,2.5786,2.5895,2.629,2.6631,2.6878,2.6981,2.6857,2.6507,2.661,2.6394,2.5906,2.6,2.5979,2.5895,2.5895,2.5895,2.5895,2.5895,2.5895,2.5895,2.5895,2.5895,2.5895,1.1194,1.1648,1.2155,1.2611,1.3186,1.4172,1.5923,1.5994,1.6419,1.8071,1.8063,1.8102,1.8589,1.8635,1.8674,1.8781,1.8697,1.8674,1.8781,1.8804,1.8804,1.8804,1.8804,1.8804,1.8804,1.8804,1.8804,1.8804,1.8804,1.8804,1.8804,1.8804,1.8804,1.8804,1.8804,1.8804,1.8804,1.8804,1.8804,1.885,1.9371,1.9874,2.036,2.0817,2.1298,2.1696,2.1696,2.1696,2.1696,2.1696,2.1696,2.1696,2.1696,2.1696,2.1696,2.1696,2.1696,2.1696,2.1696,2.1696,2.1843,2.2489,2.3485,2.4584,2.5665,2.5895,2.5895,2.5895,2.5895,2.5895,2.5895,2.5895,2.5895,2.5895,2.5895,2.5895,2.5895,2.5895,0.0,2.5556,2.5523,2.5424,2.5164,2.5131,2.5131,2.5131,0.0,0.0,2.5512,2.5523,2.5523,2.5523,2.5764,2.5895,2.5895,2.6114,2.6353,2.6601,2.6601,2.6477,2.6239,2.6239,2.6114,2.5895,2.5895,2.5895,2.5895,2.5895,2.5895,2.5895,2.5895,2.5895,2.5895,2.5895,2.5895,2.5895,1.1194,1.1194,1.1458,1.2325,1.2465,1.3234,1.552,1.546,1.591,1.7955,1.7916,1.7948,1.8566,1.8735,1.8758,1.8643,1.8735,1.8804,1.8804,1.8804,1.8804,1.8804,1.8804,1.8804,1.8804,1.8804,1.8804,1.8804,1.8804,1.8804,1.8804,1.8804,1.8804,1.8804,1.8804,1.8804,1.8804,1.8804,1.885,1.8966,1.9486,1.9988,2.0464,2.093,2.1342,2.1696,2.1696,2.1696,2.1696,2.1696,2.1696,2.1696,2.1696,2.1696,2.1696,2.1696,2.1696,2.1696,2.1696,2.1785,2.2189,2.3475,2.4263,2.4946,2.5728,2.5812,2.577,2.5874,2.5895,2.5895,2.5895,2.5895,2.5895,2.5895,2.5895,2.5895,2.5895,0.0,2.5895,2.5895,2.5895,2.5895,2.5895,2.5895,2.5895,2.5895,2.5895,2.5895,0.0,2.5895,2.5895,2.5895,2.5895,2.5895,2.5895,2.5895,2.5895,2.5895,2.5895,2.5895,2.5895,2.5895,2.5895,2.5895,2.5895,2.5895,2.5895,2.5895,2.5895,2.5895,2.5895,2.5895,2.5895,2.5895,2.5895,2.5895,1.1194,1.1194,1.1243,1.1409,1.1433,1.2058,1.3974,1.419,1.4787,1.6652,1.7372,1.7731,1.7855,1.8427,1.8542,1.7924,1.845,1.8804,1.8804,1.8804,1.8804,1.8804,1.8804,1.8804,1.8804,1.8804,1.8804,1.8804,1.8804,1.8804,1.8804,1.8804,1.8804,1.8804,1.8804,1.8804,1.8804,1.8804,1.905,1.9531,1.9988,2.0464,2.093,2.1419,2.1642,2.1696,2.1696,2.1696,2.1696,2.1696,2.1696,2.1696,2.1696,2.1696,2.1696,2.1696,2.1696,2.1696,2.1696,2.2154,2.2816,2.3606,2.3887,2.4295,2.5612,2.5464,2.5232,2.577,2.5895,2.5895,2.5895,2.5895,2.5895,2.5895,2.5895,2.5895,2.5895,0.0,2.5895,2.5895,2.5895,2.5895,2.5895,2.5895,2.5895,2.5895,2.5895,2.5895,2.5895,2.5895,2.5895,2.5895,2.5895,2.5895,2.5895,2.5895,2.5895,2.5895,2.5895,2.5895,2.5895,2.5895,2.5895,2.5895,2.5895,2.5895,2.5895,2.5895,2.5895,2.5895,2.5895,2.5895,2.5895,2.5895,2.5895,2.5895,1.1194,1.1194,1.1194,1.1194,1.1194,1.1819,1.3614,1.3553,1.4088,1.6322,1.6527,1.6638,1.7068,1.7403,1.7466,1.7138,1.7426,1.7776,1.8187,1.8589,1.8804,1.8804,1.8804,1.8804,1.8804,1.8804,1.8804,1.8804,1.8804,1.8804,1.8804,1.8804,1.8804,1.8804,1.8804,1.8804,1.8804,1.8804,1.9104,1.9637,2.0102,2.0578,2.1042,2.153,2.1696,2.1696,2.1696,2.1696,2.1696,2.1696,2.1696,2.1696,2.1696,2.1696,2.1696,2.1696,2.1696,2.1696,2.1696,2.2252,2.286,2.3169,2.3529,2.3973,2.4627,2.4829,2.4988,2.5295,2.5644,2.5895,2.5895,2.5895,2.5895,2.5895,2.5895,0.0,2.5895,2.5895,2.5895,2.5895,2.5895,2.5895,2.5895,2.5895,2.5895,2.5895,2.5895,2.5895,2.5895,2.5895,2.5895,2.5895,2.5895,2.5895,2.5895,2.5895,2.5895,2.5895,2.5895,2.5895,2.5895,2.5895,2.5895,2.5895,2.5895,2.5895,2.5895,2.5895,2.5895,2.5895,2.5895,2.5895,2.5895,2.5895,2.5895,2.5895,1.1194,1.1194,1.1194,1.1194,1.1194,1.1746,1.3385,1.316,1.36,1.5771,1.5676,1.5652,1.6251,1.6487,1.6511,1.6346,1.6487,1.677,1.7147,1.7862,1.8435,1.8781,1.8804,1.8804,1.8804,1.8804,1.8804,1.8804,1.8804,1.8804,1.8804,1.8804,1.8804,1.8804,1.8804,1.8804,1.8804,1.8804,1.9165,1.9783,2.0147,2.0645,2.1199,2.1553,2.1696,2.1696,2.1696,2.1696,2.1696,2.1696,2.1696,2.1696,2.1696,2.1696,2.1696,2.1696,2.1696,2.1696,2.1696,2.2252,2.2803,2.2803,2.32,2.3606,2.3747,2.4241,2.468,2.4861,2.5422,2.5895,2.5895,2.5895,2.5895,2.5895,0.0,2.5895,2.5895,2.5895,2.5895,2.5895,2.5895,2.5895,2.5895,2.5895,2.5895,2.5895,2.5895,2.5895,2.5895,2.5895,2.5895,2.5895,2.5895,2.5895,2.5895,2.5895,2.5895,2.5895,2.5895,2.5895,2.5895,2.5895,2.5895,2.5895,2.5895,2.5895,2.5895,2.5895,2.5895,2.5895,2.5895,2.5895,2.5895,2.5895,2.5895,2.5916,1.1194,1.1194,1.1194,1.1194,1.1194,1.1585,1.271,1.2832,1.3195,1.4322,1.501,1.5408,1.548,1.6157,1.6298,1.5557,1.6173,1.6322,1.5598,1.6315,1.738,1.8735,1.8804,1.8804,1.8804,1.8804,1.8804,1.8804,1.8804,1.8804,1.8804,1.8804,1.8804,1.8804,1.8804,1.8804,1.8804,1.8804,1.9356,2.0246,2.0292,2.0835,2.1642,2.1696,2.1696,2.1696,2.1696,2.1696,2.1696,2.1696,2.1696,2.1696,2.1696,2.1696,2.1696,2.1696,2.1696,2.1696,2.1696,2.2252,2.2803,2.2803,2.2838,2.3047,2.3649,2.3844,2.4059,2.4754,2.5422,2.5895,2.5895,2.5895,2.5895,2.5895,0.0,0.0,2.5895,2.5895,2.5895,2.5895,2.5895,2.5895,2.5895,2.5895,2.5895,2.5895,2.5895,2.5895,2.5895,2.5895,2.5895,2.5895,2.5895,2.5895,2.5895,2.5895,2.5895,2.5895,2.5895,2.5895,2.5895,2.5895,2.5895,2.5895,2.5895,2.5895,2.5895,2.5895,2.5895,2.5895,2.5895,2.5895,2.5895,2.5895,2.5895,2.6021,1.1194,1.1194,1.1194,1.1194,1.1487,1.1956,1.2691,1.3055,1.3491,1.4202,1.4532,1.4723,1.4723,1.4986,1.5057,1.4747,1.501,1.5248,1.5384,1.57,1.652,1.804,1.8566,1.8804,1.8804,1.8804,1.8804,1.8804,1.8804,1.8804,1.8804,1.8804,1.8804,1.8804,1.8804,1.8804,1.8804,1.8804,1.9379,2.0292,2.0292,2.0857,2.1696,2.1696,2.1696,2.1696,2.1696,2.1696,2.1696,2.1696,2.1696,2.1696,2.1696,2.1696,2.1696,2.1696,2.1696,2.1696,2.1696,2.1887,2.2109,2.2109,2.2109,2.2176,2.2444,2.3171,2.3887,2.4167,2.5105,2.5895,2.5895,2.5895,2.5895,2.5895,0.0,2.5895,2.5895,2.5895,2.5895,2.5895,2.5895,2.5895,2.5895,2.5895,2.5895,2.5895,2.5895,2.5895,2.5895,2.5895,2.5895,2.5895,2.5895,2.5895,2.5895,2.5895,2.5895,2.5895,2.5895,2.5895,2.5895,2.5895,2.5895,2.5895,2.5895,2.5895,2.5895,2.5895,2.5895,2.5895,2.5895,2.5895,2.5895,2.5895,2.6239,2.6755,1.1194,1.1194,1.1194,1.1194,1.1634,1.2175,1.2716,1.3201,1.3684,1.4226,1.4298,1.4298,1.4298,1.4298,1.4298,1.4298,1.4298,1.4508,1.501,1.5272,1.6096,1.7622,1.8187,1.8566,1.8781,1.8804,1.8804,1.8804,1.8804,1.8804,1.8804,1.8804,1.8804,1.8804,1.8804,1.8804,1.8804,1.8804,1.9379,2.0292,2.0292,2.0857,2.1696,2.1696,2.1696,2.1696,2.1696,2.1696,2.1696,2.1696,2.1696,2.1696,2.1696,2.1696,2.1696,2.1696,2.1696,2.1696,2.1696,2.1696,2.1696,2.1696,2.1696,2.1696,2.1696,2.2787,2.38,2.38,2.4914,2.5895,2.5895,2.5895,2.5895,2.5895,2.5895,2.5895,2.5895,2.5895,2.5895,2.5895,2.5895,2.5895,2.5895,2.5895,2.5895,2.5895,2.5895,2.5895,2.5895,2.5895,2.5895,2.5895,2.5895,2.5895,2.5895,2.5895,2.5895,2.5895,2.5895,2.5895,2.5895,2.5895,2.5895,2.5895,2.5895,2.5895,2.5895,2.5895,2.5895,2.5895,2.5895,2.5895,2.5895,2.5895,2.6447,2.7246,1.1194,1.1194,1.1194,1.1194,1.1663,1.22,1.2716,1.3201,1.3708,1.4226,1.4298,1.4298,1.4298,1.4298,1.4298,1.4298,1.4298,1.4298,1.4298,1.4986,1.6072,1.7614,1.7684,1.8048,1.8781,1.8804,1.8804,1.8804,1.8804,1.8804,1.8804,1.8804,1.8804,1.8804,1.8804,1.8804,1.8804,1.8804,1.9379,2.0292,2.0292,2.0857,2.1687,2.1696,2.1696,2.1687,2.1687,2.1687,2.1687,2.1687,2.1687,2.1687,2.1687,2.1696,2.1696,2.1696,2.1696,2.1696,2.1696,2.1696,2.1687,2.1696,2.1696,2.1718,2.1718,2.2809,2.3822,2.3822,2.4914,2.5895,2.5895,2.5895,2.5895,2.5895,2.5895,2.5895,2.5895,2.5895,2.5895,2.5895,2.5895,2.5895,2.5895,2.5895,2.5895,2.5895,2.5895,2.5895,2.5895,2.5895,2.5895,2.5895,2.5895,2.5895,2.5895,2.5895,2.5895,2.5895,2.5895,2.5895,2.5895,2.5895,2.5895,2.5895,2.5895,2.5895,2.5895,2.5895,2.5895,2.5895,2.5895,2.5895,2.5895,2.5895,2.6467,2.7316,1.1194,1.1194,1.1194,1.1194,1.1956,1.2619,1.2789,1.3509,1.4106,1.4274,1.4298,1.4298,1.4298,1.4298,1.4298,1.4298,1.4298,1.4298,1.4298,1.4514,1.5057,1.6048,1.7124,1.7808,1.8017,1.8542,1.8804,1.8804,1.8804,1.8804,1.8804,1.8804,1.8804,1.8804,1.8804,1.8804,1.8804,1.8804,1.9188,1.9851,2.0178,2.0668,2.1253,2.1575,2.1508,2.1199,2.1199,2.1199,2.1199,2.1199,2.1199,2.1154,2.0826,2.0722,2.0722,2.0722,2.0722,2.0722,2.0722,2.0722,2.088,2.153,2.2097,2.2463,2.2463,2.356,2.4573,2.4573,2.5285,2.5895,2.5895,2.5895,2.5895,2.5895,2.5895,2.5895,2.5895,2.5895,2.5895,2.5895,2.5895,2.5895,2.5895,2.5895,2.5895,2.5895,2.5895,2.5895,2.5895,2.5895,2.5895,2.5895,2.5895,2.5895,2.5895,2.5895,2.5895,2.5895,2.5895,2.5895,2.5895,2.5895,2.5895,2.5895,2.5895,2.5895,2.5895,2.5895,2.5895,2.5895,2.5895,2.5895,2.5895,2.5895,2.6816,2.8079,1.1194,1.1194,1.1194,1.1194,1.1902,1.2565,1.2764,1.3461,1.4058,1.4274,1.4298,1.4298,1.4298,1.4298,1.4298,1.4298,1.4298,1.4298,1.4298,1.4298,1.4514,1.4938,1.6136,1.7077,1.7692,1.8141,1.8519,1.8804,1.8804,1.8804,1.8804,1.8804,1.8804,1.8804,1.8804,1.8804,1.8804,1.8804,1.9104,1.9615,1.992,2.0306,2.0749,2.1028,2.0961,2.0713,2.0713,2.0713,2.0713,2.0713,2.0713,2.0668,2.0382,2.0292,2.0292,2.0292,2.0292,2.0292,2.0292,2.0292,2.0473,2.1239,2.19,2.2378,2.2467,2.3659,2.4765,2.4882,2.5422,2.5895,2.5895,2.5895,2.5895,2.5895,2.5895,2.5895,2.5895,2.5895,2.5895,2.5895,2.5895,2.5895,2.5895,2.5895,2.5895,2.5895,2.5895,2.5895,2.5895,2.5895,2.5895,2.5895,2.5895,2.5895,2.5895,2.5895,2.5895,2.5895,2.5895,2.5895,2.5895,2.5895,2.5895,2.5895,2.5895,2.5895,2.5895,2.5895,2.5895,2.5895,2.5895,2.5895,2.5895,2.5895,2.6969,2.8406,1.1194,1.1194,1.1194,1.1194,1.1634,1.2151,1.2643,1.3177,1.3678,1.4154,1.4274,1.4298,1.4298,1.4298,1.4298,1.4298,1.4298,1.4298,1.4298,1.4298,1.4298,1.4298,1.4938,1.6001,1.7451,1.7622,1.8071,1.8804,1.8804,1.8804,1.8804,1.8804,1.8804,1.8804,1.8804,1.8804,1.8804,1.8804,1.9073,1.9523,1.9569,1.9851,2.0246,2.0269,2.0269,2.0246,2.0246,2.0246,2.0246,2.0246,2.0246,2.0224,2.0178,2.0178,2.0178,2.0178,2.0178,2.0178,2.0178,2.0178,2.0292,2.0749,2.1293,2.1797,2.2098,2.3434,2.4691,2.4946,2.5485,2.5895,2.5895,2.5895,2.5895,2.5895,2.5895,2.5895,2.5895,2.5895,2.5895,2.5895,2.5895,2.5895,2.5895,2.5895,2.5895,2.5895,2.5895,2.5895,2.5895,2.5895,2.5895,2.5895,2.5895,2.5895,2.5895,2.5895,2.5895,2.5895,2.5895,2.5895,2.5895,2.5895,2.5895,2.5895,2.5895,2.5895,2.5895,2.5895,2.5895,2.5895,2.5895,2.5895,2.5895,2.5895,2.6969,2.8426,1.1194,1.1194,1.1194,1.1194,1.1634,1.2054,1.2151,1.2929,1.3539,1.366,1.404,1.4298,1.4298,1.4298,1.4298,1.4298,1.4298,1.4298,1.4298,1.4298,1.4298,1.4298,1.446,1.4962,1.5883,1.7077,1.8071,1.8804,1.8804,1.8804,1.8804,1.8804,1.8804,1.8804,1.8804,1.8804,1.8804,1.8804,1.8874,1.9004,1.9432,1.966,1.9783,2.0155,2.0056,1.9752,1.9752,1.9752,1.9752,1.9752,1.9752,1.9691,1.9256,1.9127,1.9127,1.9127,1.9127,1.9127,1.9127,1.9127,1.9256,1.9774,2.0934,2.2186,2.3173,2.4541,2.5612,2.5665,2.5791,2.5895,2.5895,2.5895,2.5895,2.5895,2.5895,2.5895,2.5895,2.5895,2.5895,2.5895,2.5895,2.5895,2.5895,2.5895,2.5895,2.5895,2.5895,2.5895,2.5895,2.5895,2.5895,2.5895,2.5895,2.5895,2.5895,2.5895,2.5895,2.5895,2.5895,2.5895,2.5895,2.5895,2.5895,2.5895,2.5895,2.5895,2.5895,2.5895,2.5895,2.5895,2.5895,2.5895,2.5895,2.5895,2.6969,2.8604,1.1194,1.1194,1.1194,1.1194,1.1438,1.1707,1.1956,1.2662,1.3249,1.3467,1.3962,1.4298,1.4298,1.4298,1.4298,1.4298,1.4298,1.4298,1.4298,1.4298,1.4298,1.4298,1.4298,1.4651,1.5391,1.6574,1.7536,1.828,1.8635,1.8804,1.8804,1.8804,1.8804,1.8804,1.8804,1.8804,1.8804,1.8804,1.8804,1.8827,1.9104,1.9211,1.9256,1.9486,1.9417,1.9211,1.9211,1.9211,1.9211,1.9211,1.9211,1.9165,1.8897,1.8804,1.8804,1.8804,1.8804,1.8804,1.8804,1.8804,1.9027,2.0025,2.1127,2.2252,2.3248,2.4648,2.577,2.5874,2.5895,2.5895,2.5895,2.5895,2.5895,2.5895,2.5895,2.5895,2.5895,2.5895,2.5895,2.5895,2.5895,2.5895,2.5895,2.5895,2.5895,2.5895,2.5895,2.5895,2.5895,2.5895,2.5895,2.5895,2.5895,2.5895,2.5895,2.5895,2.5895,2.5895,2.5895,2.5895,2.5895,2.5895,2.5895,2.5895,2.5895,2.5895,2.5895,2.5895,2.5895,2.5895,2.5895,2.6156,2.6518,2.6518,2.7588,2.9206,1.1194,1.1194,1.1194,1.1194,1.1194,1.134,1.181,1.2322,1.2807,1.3195,1.3769,1.4154,1.4154,1.425,1.4298,1.4298,1.4298,1.4298,1.4298,1.4298,1.4298,1.4298,1.4298,1.4586,1.5194,1.6126,1.6958,1.7692,1.845,1.8804,1.8804,1.8804,1.8804,1.8804,1.8804,1.8804,1.8804,1.8804,1.8804,1.8804,1.8804,1.8804,1.8804,1.8804,1.8804,1.8804,1.8804,1.8804,1.8804,1.8804,1.8804,1.8804,1.8804,1.8804,1.8804,1.8804,1.8804,1.8804,1.8804,1.8804,1.9142,2.0628,2.1494,2.224,2.3096,2.4456,2.558,2.5749,2.5812,2.5853,2.5853,2.5885,2.5895,2.5895,2.5895,2.5895,2.5895,2.5895,2.5895,2.5895,2.5895,2.5895,2.5895,2.5895,2.5895,2.5895,2.5895,2.5895,2.5895,2.5895,2.5895,2.5895,2.5895,2.5895,2.5895,2.5895,2.5895,2.5895,2.5895,2.5895,2.5895,2.5895,2.5895,2.5895,2.5895,2.5895,2.5895,2.5895,2.5895,2.5916,2.6063,2.656,2.7235,2.7519,2.8498,2.9819,1.1194,1.1194,1.1194,1.1194,1.1194,1.1218,1.1296,1.1756,1.2127,1.22,1.3026,1.3612,1.3612,1.401,1.4298,1.4298,1.4298,1.4298,1.4298,1.4298,1.4298,1.4298,1.4298,1.4346,1.4442,1.5872,1.6958,1.7692,1.845,1.8804,1.8804,1.8804,1.8804,1.8804,1.8804,1.8804,1.8804,1.8804,1.8804,1.8804,1.8804,1.8804,1.8804,1.8804,1.8804,1.8804,1.8804,1.8804,1.8804,1.8804,1.8804,1.8804,1.8804,1.8804,1.8804,1.8804,1.8804,1.8804,1.8804,1.8804,1.9142,2.0628,2.1494,2.2362,2.3735,2.468,2.5264,2.5285,2.5485,2.5644,2.5644,2.577,2.5895,2.5895,2.5895,2.5895,2.5895,2.5895,2.5895,2.5895,2.5895,2.5895,2.5895,2.5895,2.5895,2.5895,2.5895,2.5895,2.5895,2.5895,2.5895,2.5895,2.5895,2.5895,2.5895,2.5895,2.5895,2.5895,2.5895,2.5895,2.5895,2.5895,2.5895,2.5895,2.5895,2.5895,2.5895,2.5895,2.5895,2.5979,2.6725,2.7103,2.7377,2.8834,2.951,2.9819,1.1194,1.1194,1.1194,1.1194,1.1194,1.1194,1.1194,1.1663,1.2005,1.2005,1.288,1.3491,1.3491,1.3992,1.4298,1.4298,1.4298,1.4298,1.4298,1.4298,1.4298,1.4298,1.4298,1.4298,1.4298,1.5818,1.677,1.7091,1.8241,1.8804,1.8804,1.8804,1.8804,1.8804,1.8804,1.8804,1.8804,1.8804,1.8804,1.8804,1.8804,1.8804,1.8804,1.8804,1.8804,1.8804,1.8804,1.8804,1.8804,1.8804,1.8804,1.8804,1.8804,1.8804,1.8804,1.8804,1.8804,1.8804,1.8804,1.8804,1.9211,2.0966,2.1606,2.2284,2.3972,2.4594,2.4892,2.5158,2.5285,2.538,2.538,2.5443,2.5506,2.5506,2.5644,2.5728,2.5728,2.5843,2.5895,2.5895,2.5895,2.5895,2.5895,2.5895,2.5895,2.5895,2.5895,2.5895,2.5895,2.5895,2.5895,2.5895,2.5895,2.5895,2.5895,2.5895,2.5895,2.5895,2.5895,2.5895,2.5895,2.5895,2.5895,2.5895,2.5895,2.5895,2.5895,2.5895,2.5895,2.5979,2.6857,2.777,2.8747,2.9967,3.0419,3.0489]},{"header":{"parameterUnit":"m.s-1","parameterCategory":1,"la1":30.6,"la2":28.766,"lo1":-90.7593,"lo2":-88.6598,"dx":0.0162,"dy":0.0183,"nx":116,"ny":114,"refTime":"2023-01-06T18:00:00:Z","depth":0,"parameterNumber":3,"parameterNumberName":"V-component_of_WINDS"},"data":[0.0,0.0,0.0,0.0,0.0,0.0,0.0,0.0,0.0,0.0,0.0,0.0,0.0,0.0,0.0,0.0,0.0,0.0,0.0,0.0,0.0,0.0,0.0,0.0,0.0,0.0,0.0,0.0,0.0,0.0,0.0,0.0,0.0,0.0,0.0,0.0,0.0,0.0,0.0,0.0,0.0,0.0,0.0,0.0,0.0,0.0,0.0,0.0,0.0,0.0,0.0,0.0,0.0,0.0,0.0,0.0,0.0,0.0,0.0,0.0,0.0,0.0,0.0,0.0,0.0,0.0,0.0,0.0,0.0,0.0,0.0,0.0,0.0,0.0,0.0,0.0,0.0,0.0,0.0,0.0,0.0,0.0,0.0,0.0,0.0,0.0,0.0,0.0,0.0,0.0,0.0,0.0,0.0,0.0,0.0,0.0,0.0,0.0,0.0,0.0,0.0,0.0,0.0,0.0,0.0,0.0,0.0,0.0,0.0,0.0,0.0,0.0,0.0,0.0,0.0,0.0,0.0,0.0,0.0,0.0,0.0,0.0,0.0,0.0,0.0,0.0,0.0,0.0,0.0,0.0,0.0,0.0,0.0,0.0,0.0,0.0,0.0,0.0,0.0,0.0,0.0,0.0,0.0,0.0,0.0,0.0,0.0,0.0,0.0,0.0,0.0,0.0,0.0,0.0,0.0,0.0,0.0,0.0,0.0,0.0,0.0,0.0,0.0,0.0,0.0,0.0,0.0,0.0,0.0,0.0,0.0,0.0,0.0,0.0,0.0,0.0,0.0,0.0,0.0,0.0,0.0,0.0,0.0,0.0,0.0,0.0,0.0,0.0,0.0,0.0,0.0,0.0,0.0,0.0,0.0,0.0,0.0,0.0,0.0,0.0,0.0,0.0,0.0,0.0,0.0,0.0,0.0,0.0,0.0,0.0,0.0,0.0,0.0,0.0,0.0,0.0,0.0,0.0,0.0,0.0,0.0,0.0,0.0,0.0,0.0,0.0,0.0,0.0,0.0,0.0,0.0,0.0,0.0,0.0,0.0,0.0,0.0,0.0,0.0,0.0,0.0,0.0,0.0,0.0,0.0,0.0,0.0,0.0,0.0,0.0,0.0,0.0,0.0,0.0,0.0,0.0,0.0,0.0,0.0,0.0,0.0,0.0,0.0,0.0,0.0,0.0,0.0,0.0,0.0,0.0,0.0,0.0,0.0,0.0,0.0,0.0,0.0,0.0,0.0,0.0,0.0,0.0,0.0,0.0,0.0,0.0,0.0,0.0,0.0,0.0,0.0,0.0,0.0,0.0,0.0,0.0,0.0,0.0,0.0,0.0,0.0,0.0,0.0,0.0,0.0,0.0,0.0,0.0,0.0,0.0,0.0,0.0,0.0,0.0,0.0,0.0,0.0,0.0,0.0,0.0,0.0,0.0,0.0,0.0,0.0,0.0,0.0,0.0,0.0,0.0,0.0,0.0,0.0,0.0,0.0,0.0,0.0,0.0,0.0,0.0,0.0,0.0,0.0,0.0,0.0,0.0,0.0,0.0,0.0,0.0,0.0,0.0,0.0,0.0,0.0,0.0,0.0,0.0,0.0,0.0,0.0,0.0,0.0,0.0,0.0,0.0,0.0,0.0,0.0,0.0,0.0,0.0,0.0,0.0,0.0,0.0,0.0,0.0,0.0,0.0,0.0,0.0,0.0,0.0,0.0,0.0,0.0,0.0,0.0,0.0,0.0,0.0,0.0,0.0,0.0,0.0,0.0,0.0,0.0,0.0,0.0,0.0,0.0,0.0,0.0,0.0,0.0,0.0,0.0,0.0,0.0,0.0,0.0,0.0,0.0,0.0,0.0,0.0,0.0,0.0,0.0,0.0,0.0,0.0,0.0,0.0,0.0,0.0,0.0,0.0,0.0,0.0,0.0,0.0,0.0,0.0,0.0,0.0,0.0,0.0,0.0,0.0,0.0,0.0,0.0,0.0,0.0,0.0,0.0,0.0,0.0,0.0,0.0,0.0,0.0,0.0,0.0,0.0,0.0,0.0,0.0,0.0,0.0,0.0,0.0,0.0,0.0,0.0,0.0,0.0,0.0,0.0,0.0,0.0,0.0,0.0,0.0,0.0,0.0,0.0,0.0,0.0,0.0,0.0,0.0,0.0,0.0,0.0,0.0,0.0,0.0,0.0,0.0,0.0,0.0,0.0,0.0,0.0,0.0,0.0,0.0,0.0,0.0,0.0,0.0,0.0,0.0,0.0,0.0,0.0,0.0,0.0,0.0,0.0,0.0,0.0,0.0,0.0,0.0,0.0,0.0,0.0,0.0,0.0,0.0,0.0,0.0,0.0,0.0,0.0,0.0,0.0,0.0,0.0,0.0,0.0,0.0,0.0,0.0,0.0,0.0,0.0,0.0,0.0,0.0,0.0,0.0,0.0,0.0,0.0,0.0,0.0,0.0,0.0,0.0,0.0,0.0,0.0,0.0,0.0,0.0,0.0,0.0,0.0,0.0,0.0,0.0,0.0,0.0,0.0,0.0,0.0,0.0,0.0,0.0,0.0,0.0,0.0,0.0,0.0,0.0,0.0,0.0,0.0,0.0,0.0,0.0,0.0,0.0,0.0,0.0,0.0,0.0,0.0,0.0,0.0,0.0,0.0,0.0,0.0,0.0,0.0,0.0,0.0,0.0,0.0,0.0,0.0,0.0,0.0,0.0,0.0,0.0,0.0,0.0,0.0,0.0,0.0,0.0,0.0,0.0,0.0,0.0,0.0,0.0,0.0,0.0,0.0,0.0,0.0,0.0,0.0,0.0,0.0,0.0,0.0,0.0,0.0,0.0,0.0,0.0,0.0,0.0,0.0,0.0,0.0,0.0,0.0,0.0,0.0,0.0,0.0,0.0,0.0,0.0,0.0,0.0,0.0,0.0,0.0,0.0,0.0,0.0,0.0,0.0,0.0,0.0,0.0,0.0,0.0,0.0,0.0,0.0,0.0,0.0,0.0,0.0,0.0,0.0,0.0,0.0,0.0,0.0,0.0,0.0,0.0,0.0,0.0,0.0,0.0,0.0,0.0,0.0,0.0,0.0,0.0,0.0,0.0,0.0,0.0,0.0,0.0,0.0,0.0,0.0,0.0,0.0,0.0,0.0,0.0,0.0,0.0,0.0,0.0,0.0,0.0,0.0,0.0,0.0,0.0,0.0,0.0,0.0,0.0,0.0,0.0,0.0,0.0,0.0,0.0,0.0,0.0,0.0,0.0,0.0,0.0,0.0,0.0,0.0,0.0,0.0,0.0,0.0,0.0,0.0,0.0,0.0,0.0,0.0,0.0,0.0,0.0,0.0,0.0,0.0,0.0,0.0,0.0,0.0,0.0,0.0,0.0,0.0,0.0,0.0,0.0,0.0,0.0,0.0,0.0,0.0,0.0,0.0,0.0,0.0,0.0,0.0,0.0,0.0,0.0,0.0,0.0,0.0,0.0,0.0,0.0,0.0,0.0,0.0,0.0,0.0,0.0,0.0,0.0,0.0,0.0,0.0,0.0,0.0,0.0,0.0,0.0,0.0,0.0,0.0,0.0,0.0,0.0,0.0,0.0,0.0,0.0,0.0,0.0,0.0,0.0,0.0,0.0,0.0,0.0,0.0,0.0,0.0,0.0,0.0,0.0,0.0,0.0,0.0,0.0,0.0,0.0,0.0,0.0,0.0,0.0,0.0,0.0,0.0,0.0,0.0,0.0,0.0,0.0,0.0,0.0,0.0,0.0,0.0,0.0,0.0,0.0,0.0,0.0,0.0,0.0,0.0,0.0,0.0,0.0,0.0,0.0,0.0,0.0,0.0,0.0,0.0,0.0,0.0,0.0,0.0,0.0,0.0,0.0,0.0,0.0,0.0,0.0,0.0,0.0,0.0,0.0,0.0,0.0,0.0,0.0,0.0,0.0,0.0,0.0,0.0,0.0,0.0,0.0,0.0,0.0,0.0,0.0,0.0,0.0,0.0,0.0,0.0,0.0,0.0,0.0,0.0,0.0,0.0,0.0,0.0,0.0,0.0,0.0,0.0,0.0,0.0,0.0,0.0,0.0,0.0,0.0,0.0,0.0,0.0,0.0,0.0,0.0,0.0,0.0,0.0,0.0,0.0,0.0,0.0,0.0,0.0,0.0,0.0,0.0,0.0,0.0,0.0,0.0,0.0,0.0,0.0,0.0,0.0,0.0,0.0,0.0,0.0,0.0,0.0,0.0,0.0,0.0,0.0,0.0,0.0,0.0,0.0,0.0,0.0,0.0,0.0,0.0,0.0,0.0,0.0,0.0,0.0,0.0,0.0,0.0,0.0,0.0,0.0,0.0,0.0,0.0,0.0,0.0,0.0,0.0,0.0,0.0,0.0,0.0,0.0,0.0,0.0,0.0,0.0,0.0,0.0,0.0,0.0,0.0,0.0,0.0,0.0,0.0,0.0,0.0,0.0,0.0,0.0,0.0,0.0,0.0,0.0,0.0,0.0,0.0,0.0,0.0,0.0,0.0,0.0,0.0,0.0,0.0,0.0,0.0,0.0,0.0,0.0,0.0,0.0,0.0,0.0,0.0,0.0,0.0,0.0,0.0,0.0,0.0,0.0,0.0,0.0,0.0,0.0,0.0,0.0,0.0,0.0,0.0,0.0,0.0,0.0,0.0,0.0,0.0,0.0,0.0,0.0,0.0,0.0,0.0,0.0,0.0,0.0,0.0,0.0,0.0,0.0,0.0,0.0,0.0,0.0,0.0,0.0,0.0,0.0,0.0,0.0,0.0,0.0,0.0,0.0,0.0,0.0,0.0,0.0,0.0,0.0,0.0,0.0,0.0,0.0,0.0,0.0,0.0,0.0,0.0,0.0,0.0,0.0,0.0,0.0,0.0,0.0,0.0,0.0,0.0,0.0,0.0,0.0,0.0,0.0,0.0,0.0,0.0,0.0,0.0,0.0,0.0,0.0,0.0,0.0,0.0,0.0,0.0,0.0,0.0,0.0,0.0,0.0,0.0,0.0,0.0,0.0,0.0,0.0,0.0,0.0,0.0,0.0,0.0,0.0,0.0,0.0,0.0,0.0,0.0,0.0,0.0,0.0,0.0,0.0,0.0,0.0,0.0,0.0,0.0,0.0,0.0,0.0,0.0,0.0,0.0,0.0,0.0,0.0,0.0,0.0,0.0,0.0,0.0,0.0,0.0,0.0,0.0,0.0,0.0,0.0,0.0,0.0,0.0,0.0,0.0,0.0,0.0,0.0,0.0,0.0,0.0,0.0,0.0,0.0,0.0,0.0,0.0,0.0,0.0,0.0,0.0,0.0,0.0,0.0,0.0,0.0,0.0,0.0,0.0,0.0,0.0,0.0,0.0,0.0,0.0,0.0,0.0,0.0,0.0,0.0,0.0,0.0,0.0,0.0,0.0,0.0,0.0,0.0,0.0,0.0,0.0,0.0,0.0,0.0,0.0,0.0,0.0,0.0,0.0,0.0,0.0,0.0,0.0,0.0,0.0,0.0,0.0,0.0,0.0,0.0,0.0,0.0,0.0,0.0,0.0,0.0,0.0,0.0,0.0,0.0,0.0,0.0,0.0,0.0,0.0,0.0,0.0,0.0,0.0,0.0,0.0,0.0,0.0,0.0,0.0,0.0,0.0,0.0,0.0,0.0,0.0,0.0,0.0,0.0,0.0,0.0,0.0,0.0,0.0,0.0,0.0,0.0,0.0,0.0,0.0,0.0,0.0,0.0,0.0,0.0,0.0,0.0,0.0,0.0,0.0,0.0,0.0,0.0,0.0,0.0,0.0,0.0,0.0,0.0,0.0,0.0,0.0,0.0,0.0,0.0,0.0,0.0,0.0,0.0,0.0,0.0,0.0,0.0,0.0,0.0,0.0,0.0,0.0,0.0,0.0,0.0,0.0,0.0,0.0,0.0,0.0,0.0,0.0,0.0,0.0,0.0,0.0,0.0,0.0,0.0,0.0,0.0,0.0,0.0,0.0,0.0,0.0,0.0,0.0,0.0,0.0,0.0,0.0,0.0,0.0,0.0,0.0,0.0,0.0,0.0,0.0,0.0,0.0,0.0,0.0,0.0,0.0,0.0,0.0,0.0,0.0,2.3839,0.0,0.0,0.0,0.0,0.0,0.0,0.0,0.0,0.0,0.0,0.0,0.0,0.0,0.0,0.0,0.0,0.0,0.0,0.0,0.0,0.0,0.0,0.0,0.0,1.0716,1.0887,1.1311,1.1349,0.0,0.0,0.0,0.0,0.0,0.0,0.0,0.0,0.0,1.2025,1.2025,1.3322,1.4375,1.5198,1.5199,1.4327,1.2776,0.0,0.0,0.0,0.0,0.0,0.0,0.0,0.0,0.0,0.0,0.0,0.0,0.0,0.0,0.0,0.0,0.0,0.0,0.0,0.0,0.0,0.0,0.0,0.0,0.0,0.0,0.0,0.0,0.0,0.0,0.0,0.0,0.0,0.0,0.0,0.0,0.0,0.0,0.0,0.0,0.0,0.0,0.0,0.0,0.0,0.0,0.0,0.0,0.0,0.0,0.0,0.0,0.0,0.0,0.0,0.0,0.0,0.0,0.0,0.0,0.0,0.0,0.0,0.0,0.0,0.0,0.0,0.0,0.0,0.0,0.0,2.4802,0.0,0.0,0.0,0.0,0.0,0.0,0.0,0.0,0.0,0.0,0.0,0.0,0.0,0.0,0.0,0.0,0.0,0.0,0.0,0.0,0.0,1.0662,1.1523,1.163,1.1914,1.2649,1.2707,1.2707,1.2707,1.2707,0.0,0.0,0.0,0.0,1.2707,1.2994,1.3136,1.3152,1.4893,1.6495,1.7908,1.8069,1.6565,1.3749,1.4443,0.0,0.0,0.0,0.0,0.0,0.0,0.0,0.0,0.0,0.0,0.0,0.0,0.0,0.0,0.0,0.0,0.0,0.0,0.0,0.0,0.0,0.0,0.0,0.0,0.0,0.0,0.0,0.0,0.0,0.0,0.0,0.0,0.0,0.0,0.0,0.0,0.0,0.0,0.0,0.0,0.0,0.0,0.0,0.0,0.0,0.0,0.0,0.0,0.0,0.0,0.0,0.0,0.0,0.0,0.0,0.0,0.0,0.0,0.0,0.0,0.0,0.0,0.0,2.6459,2.6415,2.6545,2.6465,2.6464,2.6551,2.6694,2.6031,2.4861,0.0,0.0,0.0,0.0,0.0,0.0,0.0,0.0,0.0,0.0,0.0,0.0,0.0,0.0,0.0,0.0,0.0,0.0,0.0,0.0,1.1561,1.2421,1.2529,1.2565,1.269,1.2691,1.2691,1.2691,1.2691,0.0,0.0,0.0,1.2701,1.2691,1.4129,1.4892,1.4955,1.6695,1.7672,1.7929,1.8722,1.8472,1.7318,1.7364,1.6946,1.6147,0.0,0.0,0.0,0.0,0.0,0.0,0.0,0.0,0.0,0.0,0.0,0.0,0.0,0.0,0.0,0.0,0.0,0.0,0.0,0.0,0.0,0.0,0.0,0.0,0.0,0.0,0.0,0.0,0.0,0.0,0.0,0.0,0.0,0.0,0.0,0.0,0.0,0.0,0.0,0.0,0.0,2.3329,2.4188,0.0,0.0,0.0,0.0,0.0,0.0,0.0,0.0,0.0,0.0,0.0,0.0,0.0,2.6442,2.6549,2.6543,2.6578,2.6605,2.6578,2.6902,2.7541,2.8207,2.8704,2.9073,2.9826,0.0,2.5888,2.5585,0.0,0.0,0.0,0.0,0.0,0.0,0.0,0.0,0.0,0.0,0.0,0.0,0.0,0.0,0.0,0.0,0.0,0.0,0.0,0.0,0.0,1.3428,1.3616,1.4064,1.4546,1.4837,1.4837,1.5281,0.0,0.0,1.5566,1.5565,1.557,1.6298,1.7161,1.8226,1.8984,1.9873,2.0896,2.1269,2.123,2.0859,2.0832,1.9558,1.7413,1.702,0.0,0.0,0.0,0.0,0.0,0.0,0.0,0.0,0.0,0.0,0.0,0.0,0.0,0.0,0.0,0.0,0.0,0.0,0.0,0.0,0.0,0.0,0.0,0.0,0.0,0.0,0.0,0.0,0.0,0.0,0.0,0.0,0.0,0.0,0.0,0.0,0.0,0.0,0.0,2.3244,2.4046,2.435,2.4423,2.4451,0.0,0.0,0.0,0.0,0.0,0.0,0.0,0.0,0.0,2.6693,2.6693,2.7106,2.7931,2.7931,2.8367,2.9186,2.9028,2.9121,2.9452,2.9618,2.9891,3.0233,3.0441,2.9787,2.8515,2.7793,2.7179,2.6662,0.0,0.0,0.0,0.0,2.5734,2.5398,0.0,0.0,0.0,0.0,0.0,0.0,0.0,0.0,0.0,0.0,0.0,0.0,1.4241,1.4521,1.4882,1.5504,1.6334,1.6836,1.6836,1.7434,1.7801,1.7801,1.7798,1.7905,1.8142,1.8605,1.9581,2.116,2.1183,2.1872,2.3203,2.3125,2.3105,2.3105,2.3105,2.1698,1.9295,1.9099,1.8864,1.859,0.0,0.0,0.0,0.0,0.0,0.0,0.0,0.0,0.0,0.0,0.0,0.0,0.0,0.0,0.0,0.0,0.0,0.0,0.0,0.0,0.0,0.0,0.0,0.0,0.0,0.0,0.0,0.0,0.0,0.0,0.0,0.0,0.0,0.0,0.0,0.0,0.0,2.3992,2.4427,2.4658,2.469,2.4778,0.0,0.0,0.0,0.0,0.0,0.0,2.6964,2.7164,2.7358,2.7535,2.7732,2.8378,2.9479,2.9497,3.0056,3.1203,3.1009,3.1007,3.1178,3.0925,3.1048,3.1456,3.1316,3.1355,3.1428,2.9822,2.8543,2.7618,2.7631,2.726,2.6696,2.679,2.6542,2.6142,0.0,0.0,0.0,0.0,0.0,0.0,0.0,0.0,0.0,0.0,0.0,1.4261,1.5148,1.5925,1.6422,1.6519,1.7272,1.7734,1.7734,1.7773,1.7792,1.7792,1.7802,1.8226,1.9109,2.0756,2.2042,2.2978,2.3026,2.3105,2.3203,2.3125,2.3105,2.3105,2.3105,2.3008,2.2792,2.2029,2.1228,2.0388,1.9529,0.0,0.0,0.0,0.0,0.0,0.0,0.0,0.0,0.0,0.0,0.0,0.0,0.0,0.0,0.0,0.0,0.0,0.0,0.0,0.0,0.0,0.0,0.0,0.0,0.0,0.0,0.0,0.0,0.0,0.0,0.0,0.0,0.0,0.0,0.0,0.0,0.0,0.0,2.5346,2.5446,0.0,0.0,0.0,0.0,2.6636,2.6627,2.6943,2.7697,2.8404,2.9107,2.9813,3.0585,3.1016,3.1089,3.1089,3.1119,3.121,3.1197,3.1544,3.2214,3.2207,3.2589,3.3291,3.3659,3.403,3.4142,3.0892,2.9685,2.9804,2.9498,2.9587,2.9822,2.9445,2.9305,2.9238,0.0,0.0,0.0,1.0168,1.0171,1.0494,1.133,1.1912,1.2687,1.3844,1.4483,1.5163,1.6039,1.6397,1.6788,1.7316,1.8191,1.8698,1.8704,1.971,2.0311,2.0311,2.0858,2.1313,2.169,2.231,2.3061,2.3944,2.3965,2.4258,2.4805,2.4785,2.4766,2.4766,2.4766,2.4766,2.4687,2.3261,2.2499,2.2186,2.1874,2.1248,0.0,0.0,0.0,0.0,0.0,0.0,0.0,0.0,0.0,0.0,0.0,0.0,0.0,0.0,0.0,0.0,0.0,0.0,0.0,0.0,0.0,0.0,0.0,0.0,0.0,0.0,0.0,0.0,0.0,0.0,0.0,0.0,0.0,0.0,0.0,0.0,0.0,2.5457,2.5966,0.0,2.6614,2.7111,2.7601,2.8089,2.852,2.9143,2.9953,3.0245,3.05,3.0754,3.1046,3.1439,3.1894,3.2429,3.2917,3.3386,3.3912,3.4297,3.4557,3.4557,3.4705,3.4938,3.4775,3.4673,3.4481,3.303,3.2081,3.1473,3.0789,3.0057,2.9403,2.942,2.9325,2.9157,0.0,0.0,0.0,1.0182,1.0439,1.0924,1.1779,1.2609,1.3459,1.4311,1.5206,1.5962,1.6542,1.7115,1.7691,1.8234,1.9377,2.0077,2.003,2.1369,2.2137,2.2114,2.2955,2.3478,2.3544,2.3822,2.4256,2.4844,2.4844,2.5137,2.5703,2.5703,2.5703,2.5703,2.5703,2.5703,2.5625,2.4473,2.3808,2.3535,2.3535,2.3046,2.2244,0.0,0.0,0.0,0.0,0.0,0.0,0.0,0.0,0.0,0.0,0.0,0.0,0.0,0.0,0.0,0.0,0.0,0.0,0.0,0.0,0.0,0.0,0.0,0.0,0.0,0.0,0.0,0.0,0.0,0.0,0.0,0.0,0.0,0.0,0.0,2.6016,2.6319,2.6754,2.7234,2.7765,2.8267,2.8863,2.9619,3.0116,3.0594,3.1134,3.1405,3.1665,3.1938,3.2204,3.2703,3.3462,3.4003,3.4525,3.5015,3.5558,3.5804,3.5804,3.5804,3.5804,3.5788,3.559,3.5385,3.5143,3.47,3.4023,3.3199,3.2396,3.1483,3.0664,3.0843,3.0675,3.0338,0.0,0.0,1.0207,1.0196,1.0912,1.176,1.2589,1.3439,1.431,1.5227,1.6079,1.6619,1.6676,1.8198,1.9214,1.9271,2.0837,2.1795,2.1741,2.256,2.3025,2.2991,2.3851,2.4361,2.4444,2.5272,2.5703,2.5703,2.5703,2.5703,2.5703,2.5703,2.5703,2.5703,2.5703,2.5703,2.5703,2.5703,2.5215,2.4434,2.4434,2.3926,2.3183,0.0,0.0,0.0,0.0,0.0,0.0,0.0,0.0,0.0,0.0,0.0,0.0,0.0,0.0,0.0,0.0,0.0,0.0,0.0,0.0,0.0,0.0,0.0,0.0,0.0,0.0,0.0,0.0,0.0,0.0,0.0,0.0,0.0,2.565,2.6237,2.7046,2.7928,2.7879,2.8423,3.0063,3.0106,3.0371,3.1167,3.1167,3.1163,3.1218,3.1889,3.2632,3.3447,3.4237,3.5015,3.5786,3.5822,3.5848,3.5848,3.5866,3.5858,3.5876,3.5876,3.5876,3.5889,3.619,3.6319,3.6266,3.5723,3.532,3.4957,3.4253,3.3941,3.3868,3.3868,3.3502,3.2998,1.0051,1.0134,1.0194,1.0197,1.0912,1.176,1.2589,1.3439,1.4542,1.6058,1.6445,1.7061,1.8277,1.8886,1.9697,2.0917,2.1541,2.2099,2.261,2.3467,2.4225,2.4838,2.5147,2.5328,2.5332,2.5585,2.5701,2.5701,2.5702,2.5703,2.5703,2.5703,2.5703,2.5703,2.5703,2.5703,2.5703,2.5703,2.5566,2.5332,2.5332,2.5195,2.4922,0.0,0.0,0.0,0.0,0.0,0.0,0.0,0.0,0.0,0.0,0.0,0.0,0.0,0.0,0.0,0.0,0.0,0.0,0.0,0.0,0.0,0.0,0.0,0.0,0.0,0.0,0.0,0.0,0.0,0.0,0.0,0.0,2.7237,2.648,2.6985,2.7731,2.8549,2.9082,2.9752,3.0753,3.0823,3.1111,3.1862,3.1914,3.2407,3.3578,3.3835,3.4309,3.5106,3.5359,3.5569,3.5804,3.6381,3.6661,3.6679,3.7258,3.7497,3.7394,3.7394,3.737,3.7313,3.7049,3.6795,3.6478,3.5987,3.5732,3.5523,3.4223,3.3516,3.3256,3.3256,3.3113,3.2928,1.0156,1.0146,1.0314,1.068,1.1432,1.2282,1.311,1.4291,1.5454,1.6463,1.7216,1.8037,1.9028,1.951,2.0285,2.1628,2.2157,2.2727,2.3485,2.4351,2.5084,2.562,2.5675,2.5703,2.57,2.57,2.57,2.57,2.5701,2.5702,2.5702,2.5702,2.5703,2.5703,2.5703,2.5703,2.5703,2.5703,2.5703,2.5703,2.5703,2.5703,2.5644,2.5137,2.4941,2.4883,2.4414,2.3964,2.3609,2.3607,0.0,0.0,0.0,0.0,0.0,0.0,0.0,0.0,0.0,0.0,0.0,0.0,0.0,0.0,0.0,0.0,0.0,0.0,0.0,0.0,0.0,0.0,0.0,0.0,2.8057,2.8615,2.818,2.8458,2.8991,2.9777,3.0219,3.0769,3.1527,3.1579,3.2023,3.3121,3.3212,3.3755,3.5033,3.5106,3.5468,3.6272,3.6309,3.6453,3.6789,3.7277,3.7468,3.7426,3.7896,3.8063,3.7968,3.7968,3.7933,0.0,3.7394,3.6978,3.656,3.603,3.5721,0.0,0.0,0.0,0.0,0.0,3.3772,3.3732,1.0316,1.0154,1.0468,1.1356,1.2166,1.2994,1.3863,1.5474,1.6637,1.6715,1.8112,1.9161,1.9326,2.0036,2.0888,2.1864,2.2648,2.3481,2.4392,2.5171,2.562,2.57,2.5701,2.5703,2.5699,2.5699,2.5699,2.5699,2.5699,2.5699,2.5699,2.5797,2.5856,2.5856,2.5954,2.5935,2.5858,2.5857,2.5799,2.5703,2.5703,2.5703,2.5703,2.5703,2.5703,2.5703,2.5682,2.5147,2.4446,2.4436,0.0,0.0,0.0,0.0,0.0,0.0,0.0,0.0,0.0,0.0,0.0,0.0,0.0,0.0,0.0,0.0,0.0,0.0,0.0,0.0,0.0,0.0,0.0,0.0,2.9209,3.0167,3.0313,3.035,3.058,3.1258,3.1258,3.1586,3.2475,3.2505,3.3103,3.4617,3.4744,3.5088,3.5884,0.0,0.0,0.0,0.0,3.7449,3.8174,3.8175,3.8115,3.7993,3.7993,3.7924,3.7819,3.7819,3.7793,3.7766,3.7357,3.696,3.659,3.6056,3.565,3.5386,3.5683,3.5704,3.5566,3.5178,3.5015,3.5032,1.0611,1.0192,1.0468,1.1356,1.2166,1.2994,1.3863,1.5474,1.6831,1.7486,1.8505,1.9431,2.0096,2.0377,2.1126,2.2712,2.3008,2.3769,2.5325,2.554,2.5601,2.5624,2.5662,2.5694,2.5691,2.5691,2.5691,2.5691,2.5694,2.5695,2.5715,2.642,2.6753,2.6773,2.7476,2.7418,2.6754,2.6754,2.6344,2.5701,2.5701,2.5702,2.5703,2.5703,2.5702,2.5681,2.5648,2.5501,2.5336,2.5284,2.515,2.5009,2.5009,2.5072,0.0,0.0,0.0,0.0,0.0,0.0,0.0,0.0,0.0,0.0,0.0,0.0,0.0,0.0,0.0,0.0,0.0,0.0,0.0,2.9563,2.9905,3.0513,3.1708,3.1869,3.1924,3.2074,3.2037,3.2563,3.3998,3.4135,3.4526,3.5504,3.5576,3.592,3.6715,3.6777,0.0,3.7937,3.7862,3.7882,3.8044,3.7995,3.7943,3.7925,0.0,0.0,3.7252,3.7252,3.7196,3.7092,3.6997,3.6919,3.6831,3.6731,3.6783,3.6822,3.5586,3.5083,3.5115,3.561,3.5794,3.5876,1.1798,1.1451,1.1586,1.2011,1.2783,1.3633,1.4526,1.6094,1.7331,1.7755,1.8968,1.995,2.0368,2.0816,2.1647,2.2975,2.3862,2.4724,2.5643,2.5663,2.5644,2.5642,2.5674,2.5707,2.5707,2.5707,2.5707,2.5707,2.5709,2.5691,2.571,2.6592,2.7002,2.7041,2.7901,2.8057,2.7629,2.7198,2.6751,2.6305,2.5874,2.5698,2.5699,2.5701,2.5678,2.5648,2.5611,2.5559,2.5492,2.5455,2.5431,2.5401,2.5401,2.5678,2.6006,0.0,0.0,0.0,0.0,0.0,0.0,0.0,0.0,0.0,0.0,0.0,0.0,0.0,0.0,2.8717,0.0,0.0,2.9831,3.0576,3.1019,3.1502,3.2205,3.2962,3.3448,3.3448,3.3426,3.3875,3.5088,3.5196,3.5522,3.6345,3.6399,3.6751,3.7557,3.7611,3.7749,3.8087,3.8036,3.7975,3.7959,3.7925,3.7872,3.781,3.781,3.764,3.7346,3.7346,3.7318,3.7242,3.7143,3.7095,3.7099,3.7036,3.7103,3.7165,3.6333,3.613,3.6363,3.6489,3.6555,3.6605,1.3128,1.3093,1.3151,1.2976,1.3535,1.4291,1.5169,1.6713,1.7794,1.7794,1.9314,2.0391,2.0408,2.117,2.2147,2.3245,2.4725,2.5635,2.5702,2.5703,2.57,2.5707,2.5707,2.5707,2.5707,2.5707,2.5707,2.5707,2.5707,2.5707,2.5726,2.6586,2.6997,2.7036,2.7913,2.8207,2.7996,2.729,2.6903,2.6693,2.5987,2.5692,2.5693,2.5694,2.5645,2.5604,2.5587,2.5502,2.5408,2.5377,2.5335,2.5305,2.5305,2.5788,2.6349,2.6349,2.6967,0.0,0.0,0.0,0.0,0.0,0.0,0.0,0.0,0.0,2.8717,2.8354,2.8907,2.9615,3.0117,3.0326,3.0662,3.1399,3.1996,3.2479,3.2711,3.3814,3.4725,3.5041,3.4925,3.5142,3.5957,3.6029,3.6363,3.7176,3.723,3.7494,3.8129,3.8157,3.8115,3.7984,3.7967,3.7915,3.7864,3.7855,3.7784,3.7676,3.7676,3.7684,3.7689,3.7689,3.7778,3.7909,3.7749,3.767,3.7657,3.7617,3.7586,3.759,3.764,3.789,3.8152,3.7536,3.7305,3.7321,1.4035,1.4488,1.4761,1.398,1.3941,1.4291,1.5169,1.6713,1.7794,1.7794,1.9321,2.0407,2.0405,2.1172,2.2378,2.4023,2.509,2.5683,2.5702,2.57,2.5709,2.5707,2.5707,2.5707,2.5707,2.5707,2.5707,2.5707,2.5707,2.5707,2.5726,2.6586,2.6997,2.7036,2.7913,2.7874,2.7134,2.7036,2.6548,2.5845,2.5747,2.5707,2.5686,2.5624,2.5609,2.56,2.5534,2.5467,2.5381,2.5336,2.5315,2.5305,2.5305,2.5363,2.5442,2.5442,2.606,2.6755,2.6755,2.7128,2.7525,2.7468,2.7967,2.8379,0.0,0.0,2.9174,2.896,2.9547,3.0111,3.0191,3.0748,3.1417,3.2153,3.2297,3.2784,3.4151,3.4498,3.5131,3.6552,3.6109,3.5975,3.6788,3.6868,3.7194,3.8009,3.8064,3.804,3.8018,3.8009,3.7984,3.7916,3.7792,3.773,3.7712,3.7658,3.764,3.7604,3.7604,3.7757,3.8036,3.8036,3.8441,3.9117,3.9024,3.8989,3.9,3.9227,3.9323,3.9339,3.957,3.9716,3.9619,3.8502,3.8083,3.8166,1.4836,1.5052,1.5189,1.4818,1.476,1.4877,1.5247,1.6329,1.7274,1.7736,1.8885,1.9841,2.0347,2.1669,2.3005,2.4204,2.5151,2.5703,2.5701,2.5694,2.5707,2.5707,2.5707,2.5707,2.5707,2.5707,2.5707,2.5707,2.5707,2.5707,2.5726,2.6586,2.6997,2.7036,2.7913,2.8108,2.7718,2.7211,2.6781,2.6411,2.5902,2.5679,2.5642,2.5607,2.5547,2.5559,2.6031,2.616,0.0,2.6073,2.606,2.606,2.606,2.606,2.6156,2.6656,2.7063,2.733,2.7178,2.7642,2.8153,0.0,2.8524,2.9041,2.8809,2.9047,2.9379,2.9651,2.9929,3.0436,3.137,3.1751,3.2171,0.0,3.3408,3.3902,3.4516,3.5403,3.6244,3.6922,3.7114,3.7331,3.7665,3.7701,3.7846,3.8164,3.814,3.8053,3.8001,3.7959,3.7898,3.7801,3.7739,3.7676,3.7649,3.7771,3.7982,3.8308,3.846,3.8746,3.9144,3.9144,3.9428,3.9919,3.9578,3.9513,3.9655,3.949,3.943,3.9438,3.9553,3.9592,3.9532,3.9017,3.8838,3.8888,1.5305,1.5306,1.5306,1.5306,1.5306,1.5306,1.5306,1.604,1.6889,1.7697,1.8566,1.9524,2.0636,2.1923,2.3149,2.4202,2.4933,2.5449,2.5663,2.5695,2.5707,2.5707,2.5707,2.5707,2.5707,2.5707,2.5707,2.5707,2.5707,2.5707,2.5707,2.6352,2.6645,2.6664,2.7308,2.758,2.7542,2.6918,2.6645,2.6586,2.5941,2.5653,2.56,2.5587,2.5503,2.5507,2.6395,2.6664,2.6637,2.689,2.6967,2.6967,2.6967,2.6967,2.708,2.7687,2.8025,2.8191,2.8162,2.8556,0.0,2.8633,2.9002,2.9395,2.9254,2.9384,2.9662,3.0093,3.0485,3.1111,3.2268,3.2602,3.2886,3.3408,3.416,3.4732,3.4914,3.6135,3.7085,3.7303,3.7846,3.8264,3.8466,3.831,3.8174,3.8149,3.8053,3.8065,3.8248,3.8204,3.8223,3.8302,3.832,3.8284,3.8228,3.8428,3.8728,3.9119,3.9295,3.9686,4.0243,4.0311,4.0404,4.0479,3.9951,3.9815,3.9965,3.9491,3.9299,3.9299,3.9299,3.9299,3.9299,3.9299,3.9299,3.9299,1.5302,1.5306,1.5306,1.5306,1.5306,1.5306,1.5306,1.604,1.6889,1.7697,1.8566,1.9752,2.1469,2.1708,2.2433,2.4148,2.4391,2.4764,2.5554,2.5663,2.5707,2.5707,2.5707,2.5707,2.5707,2.5707,2.5707,2.5707,2.5707,2.5707,2.5707,2.5726,2.5746,2.5746,2.5765,2.5785,2.5785,2.5746,2.5746,2.5746,2.5707,2.5653,2.5597,2.5528,2.5462,2.5507,2.6395,2.6664,2.6736,2.7585,2.7854,2.7854,2.7854,2.7854,2.7849,2.781,2.8355,2.9095,2.9677,2.9691,2.9518,2.9319,2.9134,2.9022,2.9017,2.9604,3.0161,3.0119,3.1344,3.2414,3.242,3.2988,3.3473,3.3509,3.4115,3.487,3.5641,3.648,3.7285,3.8074,3.8191,3.8466,0.0,3.8575,3.8149,3.8027,3.8001,3.8257,3.8841,3.8859,3.9161,3.9797,3.9833,3.9833,3.9833,3.9831,3.9849,3.9869,3.9867,4.0287,4.1072,4.1336,4.1207,4.0755,4.0218,3.9999,3.9965,3.9491,3.9299,3.9299,3.9299,3.9299,3.9299,3.9299,3.9299,3.9299,1.5305,1.5306,1.5306,1.5306,1.5306,1.5306,1.5306,1.604,1.6889,1.7697,1.906,0.0,0.0,0.0,0.0,0.0,2.373,2.4506,2.4783,2.5362,2.5707,2.5707,2.5707,2.5707,2.5707,2.5707,2.5707,2.5707,2.5707,2.5707,2.5707,2.5707,2.5707,2.5707,2.5707,2.5707,2.5707,2.5707,2.5678,2.562,2.562,2.5574,2.5452,2.5438,2.5392,2.5454,0.0,2.6995,2.7508,2.7796,2.8258,2.8698,2.8695,2.8705,2.8796,2.9317,2.9625,2.9791,2.9767,2.9688,2.9528,2.9179,2.9454,2.98,2.98,3.0411,3.1127,3.1594,3.209,3.2584,3.3043,3.3299,3.3611,3.4137,3.4886,3.5685,3.648,3.7285,3.7901,3.8164,3.8114,0.0,0.0,0.0,0.0,3.94,3.9085,3.9105,3.9663,3.9598,3.9675,3.9886,3.9904,3.9904,3.9904,4.0124,4.0228,4.0217,4.0418,4.0631,4.0904,4.0995,4.0955,4.0766,4.0228,4.0003,3.9965,3.9491,3.9299,3.9285,3.9148,3.9107,3.9094,3.9013,3.901,3.9107,1.5306,1.5306,1.5306,1.5306,1.5306,0.0,0.0,0.0,0.0,0.0,0.0,0.0,0.0,0.0,0.0,0.0,0.0,2.4072,2.4389,2.5223,2.5707,2.5707,2.5707,2.5707,2.5707,2.5707,2.5707,2.5707,2.5707,2.5707,2.5707,2.5707,2.5707,2.5707,2.5707,2.5707,2.5707,2.5707,2.6205,2.695,2.6009,2.6106,2.6684,2.5786,2.5352,0.0,2.5892,2.6652,2.7481,2.8124,2.8665,2.9159,2.9431,2.9506,2.9586,3.0104,3.0187,3.0038,2.9742,2.9584,2.949,2.9439,2.9818,3.0277,3.0528,3.1218,3.1908,3.2344,3.2618,3.2927,3.339,3.343,3.3665,3.4472,3.5287,3.6083,3.6886,3.7701,3.8174,3.8122,3.8131,3.8302,0.0,0.0,0.0,3.9831,3.9517,3.9567,4.0166,4.0134,4.0111,4.0211,4.0565,4.0673,4.0466,4.068,4.071,4.055,4.073,4.0707,4.0509,4.0509,4.0375,4.0145,3.9804,3.9623,3.9545,3.9252,3.9121,3.9107,3.9023,3.8996,3.8996,3.8969,3.8955,3.8942,1.5306,1.5306,1.5306,0.0,0.0,0.0,0.0,0.0,0.0,0.0,0.0,0.0,0.0,0.0,0.0,0.0,0.0,0.0,2.4218,2.5132,2.5629,2.5629,2.5687,2.5707,2.5707,2.5707,2.5707,2.5707,2.5707,2.5707,2.5707,2.5707,2.5707,2.5707,2.5707,2.5707,2.5707,2.5707,2.7132,2.918,2.6696,2.7062,2.8822,2.6419,2.537,2.519,2.5192,2.5732,2.6699,2.8449,2.9088,2.9294,3.0049,3.0241,3.0207,3.0207,3.0057,2.9855,2.9658,2.946,2.9445,3.0048,3.024,3.0442,3.1186,3.1984,3.2522,3.239,3.2968,3.3488,0.0,0.0,3.3665,3.4472,3.5287,3.6083,3.6886,3.7677,3.8123,0.0,0.0,0.0,0.0,0.0,0.0,3.9389,0.0,3.968,4.0411,4.0424,4.0549,4.0832,4.1759,4.2002,4.1461,4.1439,4.1202,4.0766,4.0731,4.0466,3.9965,3.9952,3.9597,3.8996,3.8996,3.8914,3.8805,3.8805,3.8805,3.8819,3.8928,3.8969,3.8996,3.9191,3.9053,3.8805,0.0,0.0,0.0,0.0,0.0,0.0,0.0,0.0,0.0,0.0,0.0,0.0,0.0,0.0,0.0,0.0,0.0,0.0,2.2516,2.3915,2.473,2.473,2.5355,2.5707,2.5707,2.5707,2.5707,2.5707,2.5707,2.5707,2.5707,2.5707,2.5707,2.5707,2.5707,2.5707,2.5707,2.5707,2.6068,2.6554,2.5887,2.5897,2.6259,2.566,2.5336,2.5204,2.5204,2.5346,2.5809,2.754,2.8922,2.9969,3.0151,3.0204,3.0199,3.0199,3.0061,2.9855,2.9658,2.946,2.9434,2.9983,3.057,3.121,3.1954,3.2744,3.3295,3.3215,3.3364,3.3488,0.0,0.0,0.0,3.4472,3.5287,0.0,3.6886,3.7306,0.0,3.7966,0.0,3.8531,3.9225,3.9859,0.0,0.0,4.0423,4.0658,4.1185,4.089,4.0885,4.1304,4.1567,4.1479,4.0972,4.0577,4.0309,4.0203,3.9846,3.9609,3.9464,3.9315,3.9155,3.8996,3.8887,3.8832,3.8805,3.8805,3.8805,3.8791,3.8725,3.8699,3.8699,3.8644,3.8644,3.8658,0.0,0.0,0.0,0.0,0.0,0.0,0.0,0.0,0.0,0.0,0.0,0.0,0.0,0.0,0.0,0.0,0.0,0.0,0.0,2.3115,2.3834,2.3832,2.4652,2.512,2.512,2.5492,2.5707,2.5707,2.5707,2.5707,2.5707,2.5707,2.5707,2.5707,2.5707,2.5902,2.6273,2.6273,2.689,0.0,0.0,2.6764,2.7455,2.6377,2.6109,2.6241,2.5857,2.5975,2.6491,2.7828,2.9136,3.018,3.009,3.0127,3.0164,2.998,2.9864,2.9721,2.9528,2.9304,2.9381,3.0387,3.0941,3.1541,3.2627,3.3221,3.3534,3.3473,3.3749,3.3963,3.3918,3.4218,0.0,0.0,0.0,0.0,3.6849,3.7298,3.7632,0.0,3.8344,0.0,3.8887,3.9924,4.0545,0.0,4.0671,4.0808,4.0838,4.0825,4.0808,4.0838,4.1076,4.0949,4.0449,4.0153,3.9906,3.9679,3.9428,3.9258,3.9161,3.905,3.8944,3.8821,0.0,3.8683,3.8628,3.8628,3.8628,3.8628,3.8602,3.8588,3.8588,3.8572,3.8588,3.8588,0.0,0.0,0.0,0.0,0.0,0.0,0.0,0.0,0.0,1.9467,1.937,1.9655,2.0439,2.0565,0.0,0.0,0.0,0.0,0.0,0.0,2.294,2.2936,2.3774,2.4281,2.4397,2.514,2.559,2.5707,2.5707,2.5707,2.5707,2.5707,2.5707,2.5707,2.5684,2.6113,2.6816,2.693,2.8254,3.0087,2.7991,2.8342,2.9916,0.0,2.7207,2.7603,2.6842,2.7052,2.7813,2.8627,2.9461,3.0131,2.9964,3.0007,3.0053,2.9703,2.9561,2.9518,2.9334,2.9092,2.9259,3.0746,3.106,3.1396,3.2837,3.3168,3.3147,3.31,3.3719,3.4273,3.4273,3.5033,3.5649,3.5649,0.0,3.6812,3.6812,3.7369,3.7775,3.7703,3.8579,3.9013,3.854,3.9899,4.0587,4.0041,4.0497,4.0599,4.0128,4.0429,4.0429,4.0015,4.0388,4.0417,4.0003,3.9927,3.9705,3.9299,3.9272,3.9161,3.8996,3.8955,3.8821,3.8588,0.0,0.0,3.8391,3.8391,3.8391,3.8406,3.8534,3.856,3.8588,3.8711,3.8669,3.856,0.0,0.0,0.0,0.0,0.0,0.0,0.0,0.0,0.0,0.0,2.0262,2.0343,0.0,0.0,0.0,0.0,0.0,0.0,0.0,0.0,0.0,2.21,2.2898,2.3657,2.4378,2.4554,2.4984,2.5707,2.5707,2.5707,2.5707,2.5707,2.5707,2.5706,2.5644,2.5709,2.5883,2.6542,2.7086,2.7514,2.7797,2.8095,2.8304,2.7868,0.0,0.0,2.7526,2.7564,2.7813,2.8627,2.9364,2.9956,2.9905,2.9817,2.9694,2.9626,2.9431,2.9267,2.923,2.9019,2.9041,2.992,3.0131,3.0359,3.1225,3.1429,3.1422,3.1426,3.206,3.2614,3.2614,3.3828,3.4816,3.4816,3.5931,3.6812,3.6812,3.705,3.7355,0.0,3.8251,3.8751,3.9038,4.0123,0.0,0.0,0.0,4.0766,4.0671,3.9961,3.9696,3.999,3.9705,3.9709,3.999,3.9618,3.9375,3.9299,3.9134,3.9023,3.8996,3.8766,3.8644,3.8588,3.8476,0.0,3.8391,3.8391,3.8391,3.8391,3.8436,3.842,3.8434,3.8462,3.8448,3.842,0.0,0.0,0.0,0.0,0.0,0.0,0.0,2.0393,2.0426,2.0492,2.0493,2.0532,2.0586,2.0605,2.0605,0.0,0.0,0.0,0.0,0.0,0.0,2.1223,2.2039,2.2661,2.309,2.35,2.393,2.4341,0.0,2.4341,2.4341,2.4341,2.4569,2.4945,2.4502,2.4756,2.5553,2.551,2.5998,2.6849,2.7298,2.7901,2.8528,0.0,0.0,0.0,2.8695,2.8446,2.7889,2.915,2.9657,2.9738,2.9738,2.9676,2.9556,2.9314,2.922,2.9166,2.903,2.8875,2.8925,2.9712,2.9867,3.0053,3.0817,3.0991,3.0991,3.0991,3.1643,3.2332,3.2741,3.4146,3.5214,3.5214,3.6079,3.6745,3.6745,3.6738,3.6875,3.7229,3.8218,3.8757,3.8492,3.9636,4.0277,0.0,0.0,4.0011,4.0011,3.9782,3.9657,3.9644,3.964,3.9657,3.9644,3.9305,3.9148,3.9148,3.8969,3.886,3.878,3.8658,3.8546,3.849,3.8436,0.0,3.8391,3.8391,3.8391,3.8391,3.8391,3.8391,3.8391,3.8391,3.8391,3.844,0.0,0.0,0.0,0.0,0.0,0.0,0.0,2.041,2.042,2.0485,2.0506,2.0521,2.0586,2.0605,2.0605,0.0,0.0,0.0,0.0,0.0,0.0,0.0,0.0,0.0,0.0,0.0,0.0,2.3092,2.3092,0.0,0.0,0.0,0.0,0.0,2.335,2.3752,2.4903,2.4444,2.5013,0.0,0.0,2.7625,0.0,0.0,0.0,0.0,0.0,2.923,2.8195,2.9692,2.9957,2.9667,2.9667,2.957,2.9362,2.8997,2.8973,2.9058,2.8846,2.8737,2.8833,2.9462,2.9575,2.9705,3.0333,3.0496,3.0539,3.0702,3.1372,3.2151,3.2777,3.4345,3.554,3.554,3.6191,3.6758,3.6937,3.6693,3.6599,3.6869,3.8084,0.0,3.7868,3.9128,0.0,0.0,0.0,0.0,3.9299,3.9657,3.9666,3.9312,3.9614,3.9614,3.9245,3.9053,3.8955,3.8955,3.8819,3.8697,3.8588,3.856,3.849,3.8391,3.8391,0.0,0.0,3.8391,3.8391,3.8391,3.8391,3.8391,3.8391,3.8391,3.8391,3.8505,0.0,0.0,0.0,0.0,0.0,0.0,0.0,2.0397,2.0411,2.0489,2.0495,2.0521,2.0586,2.0605,2.0605,0.0,0.0,0.0,0.0,0.0,0.0,0.0,0.0,0.0,0.0,0.0,0.0,2.3092,2.3092,0.0,0.0,0.0,0.0,0.0,0.0,2.299,2.3174,2.3836,0.0,0.0,0.0,0.0,0.0,0.0,0.0,0.0,0.0,2.9589,2.8933,2.9879,3.0049,2.9872,2.9872,2.9446,2.8939,2.884,2.8785,2.8743,2.8712,2.8669,2.8624,2.8696,2.8708,2.8726,2.8799,2.8817,2.9022,2.976,3.0545,3.1136,3.1209,3.314,3.4707,3.4707,3.583,3.6955,3.7701,3.725,3.6869,3.69,0.0,0.0,3.7814,3.9128,0.0,0.0,0.0,0.0,3.9299,3.9339,3.9335,3.9299,3.9158,3.9077,3.9023,3.8887,3.8819,3.8819,3.8669,3.8602,3.8604,3.8462,3.8406,3.8391,3.8391,0.0,0.0,3.8391,3.8391,3.8391,3.8391,3.8391,3.8391,3.8391,3.8391,3.8505,0.0,0.0,0.0,0.0,0.0,0.0,2.0392,2.0424,2.0477,2.0493,2.0542,2.0761,2.1328,2.1387,2.1172,2.0644,0.0,0.0,0.0,0.0,0.0,0.0,0.0,0.0,0.0,0.0,2.1276,2.1608,2.1608,0.0,0.0,0.0,0.0,0.0,0.0,2.1603,2.2045,2.1879,0.0,0.0,0.0,0.0,0.0,0.0,0.0,0.0,0.0,0.0,2.9015,2.9764,2.9972,2.9851,2.958,2.9264,2.9017,2.8989,2.8845,2.8682,2.8656,2.8619,2.86,2.86,2.86,2.86,2.86,2.8968,2.9416,2.973,3.043,3.1154,3.1625,3.2506,3.3606,3.4981,3.5231,3.5852,3.755,3.6847,3.6256,3.6459,3.7268,0.0,0.0,0.0,0.0,0.0,0.0,0.0,3.9134,3.9121,3.9121,3.9121,3.8955,3.8887,3.8887,3.8752,3.8669,3.8669,3.8546,3.8476,3.8476,3.842,3.8391,3.8391,3.8391,0.0,0.0,3.8391,3.8391,3.8391,3.8391,3.8391,3.8391,3.8391,3.8391,3.8553,0.0,0.0,0.0,0.0,0.0,2.0402,2.043,2.0479,2.0502,2.0539,2.08,2.1211,2.1836,2.2129,2.2031,2.1387,2.1113,0.0,0.0,0.0,0.0,0.0,0.0,0.0,0.0,0.0,2.1101,2.1335,2.1328,2.1296,0.0,0.0,2.1489,2.1942,0.0,0.0,0.0,0.0,0.0,0.0,0.0,0.0,0.0,0.0,0.0,0.0,0.0,0.0,0.0,0.0,0.0,2.9909,2.9441,2.9235,2.9161,2.9021,2.8821,2.8669,2.8612,2.86,2.86,2.86,2.86,2.86,2.86,2.904,2.9506,2.9748,3.0255,3.0876,3.1663,3.1826,3.2477,3.4534,3.4519,3.5003,3.7085,3.6486,3.5993,3.636,0.0,3.7517,0.0,0.0,0.0,0.0,0.0,0.0,0.0,3.8901,3.8887,3.8942,3.8805,3.8752,3.8752,3.8616,3.8532,3.8532,3.845,3.8391,3.8391,3.8391,3.8391,3.8391,0.0,0.0,0.0,3.8391,3.8391,3.8391,3.8391,3.8391,3.8391,3.8391,3.8391,3.8602,0.0,0.0,0.0,0.0,0.0,0.0,2.049,2.0495,2.052,2.0586,2.1348,2.1894,2.1894,2.2676,2.3164,2.3086,2.2344,0.0,0.0,0.0,0.0,0.0,0.0,0.0,0.0,0.0,2.2271,2.3072,2.3005,2.2965,2.2963,2.2917,2.287,2.2847,0.0,0.0,0.0,0.0,0.0,0.0,0.0,0.0,0.0,0.0,0.0,0.0,0.0,0.0,0.0,0.0,0.0,0.0,0.0,2.9443,2.9318,2.8832,2.8662,2.86,2.86,2.86,2.86,2.86,2.86,2.86,2.86,2.8618,2.8835,2.9633,2.9802,3.003,3.0787,3.091,3.1405,3.2875,3.3731,3.4758,3.6378,3.636,3.6371,0.0,0.0,3.7286,3.7754,0.0,0.0,0.0,0.0,0.0,0.0,3.8686,3.8655,3.8805,3.8655,3.8588,3.8588,3.8478,3.8391,3.8391,3.8391,3.8391,3.8391,3.8391,3.8391,0.0,0.0,0.0,0.0,3.8391,3.8391,3.8391,3.8391,3.8391,3.8391,3.8391,3.8391,3.8602,0.0,0.0,0.0,0.0,0.0,0.0,0.0,2.0496,2.0521,2.0586,2.1367,2.2129,2.2715,2.3535,2.4004,2.3984,2.2715,0.0,0.0,0.0,0.0,0.0,0.0,0.0,0.0,2.2392,2.2788,2.3023,2.2958,2.2933,2.2935,2.291,2.2883,2.2814,2.2517,2.2718,0.0,0.0,0.0,0.0,0.0,0.0,0.0,0.0,0.0,0.0,0.0,0.0,0.0,0.0,0.0,0.0,0.0,0.0,0.0,2.8797,2.8638,2.86,2.86,2.86,2.86,2.86,2.86,2.86,2.86,2.9022,2.9488,2.9748,3.0237,3.0844,3.1574,3.082,3.0915,3.3434,3.3584,3.399,3.5738,3.6105,3.6158,3.6026,3.6654,3.7496,0.0,0.0,0.0,0.0,0.0,0.0,0.0,3.8616,3.8616,3.8672,3.8532,3.8448,3.8448,3.8406,3.8391,3.8391,3.8391,3.8391,3.8391,3.8391,0.0,0.0,0.0,0.0,0.0,3.8391,3.8391,3.8391,3.8391,3.8391,3.8391,3.8391,3.8391,3.8602,0.0,0.0,0.0,0.0,0.0,0.0,0.0,2.0542,2.0544,2.0586,2.1367,2.2227,2.3066,2.3906,2.4531,2.4863,2.3359,0.0,0.0,0.0,0.0,0.0,0.0,0.0,2.2821,2.3261,2.3649,2.398,2.3886,2.3839,2.3838,2.3825,2.3782,2.3735,2.3735,2.4043,0.0,0.0,0.0,0.0,0.0,0.0,2.9009,0.0,0.0,0.0,0.0,0.0,0.0,0.0,0.0,0.0,0.0,0.0,0.0,0.0,2.8637,2.86,2.86,2.86,2.86,2.86,2.86,2.86,2.86,2.8986,2.9337,2.9311,2.9955,3.0627,3.1045,3.0311,3.0424,3.2854,3.3081,3.3516,3.5067,3.5811,3.6171,3.61,0.0,0.0,0.0,0.0,0.0,0.0,0.0,0.0,0.0,3.8518,3.8518,3.8518,3.8434,3.8391,3.8391,3.8391,3.8391,3.8391,3.8391,3.8391,3.8391,3.8391,0.0,0.0,0.0,0.0,0.0,3.8391,3.8391,3.8391,3.8391,3.8391,3.8391,3.8391,3.8391,3.8602,0.0,0.0,0.0,0.0,0.0,0.0,0.0,2.0605,2.0605,2.0605,2.1367,2.2187,2.293,2.3789,2.4648,2.5449,0.0,0.0,0.0,0.0,0.0,0.0,0.0,0.0,2.4353,2.4384,2.4773,2.5591,2.5457,2.5381,2.5398,2.5331,2.5305,2.5305,2.5305,2.5363,0.0,0.0,0.0,0.0,0.0,2.9046,0.0,0.0,0.0,0.0,0.0,0.0,0.0,0.0,0.0,0.0,0.0,0.0,0.0,0.0,0.0,0.0,0.0,2.86,2.86,2.86,2.86,2.86,2.86,2.8648,0.0,2.8523,2.9135,2.9654,2.9517,2.9489,3.0005,3.1551,3.241,3.3306,3.4467,3.5488,3.6287,0.0,3.712,0.0,0.0,0.0,0.0,0.0,0.0,0.0,0.0,3.8391,3.8391,3.8391,3.8391,3.8391,3.8391,3.8391,3.8391,3.8391,3.8391,3.8391,3.8391,3.8391,0.0,0.0,0.0,0.0,0.0,3.8391,3.8391,3.8391,3.8391,3.8391,3.8391,3.8391,3.8391,3.8586,0.0,0.0,0.0,0.0,0.0,0.0,0.0,0.0,0.0,0.0,2.1367,2.1973,2.2168,2.291,2.3516,0.0,0.0,0.0,0.0,0.0,0.0,0.0,0.0,0.0,2.4237,2.4839,2.5233,2.5446,2.5363,2.5322,2.5322,2.5317,2.5305,2.5305,2.5305,2.6004,0.0,0.0,0.0,0.0,2.9849,2.9909,0.0,0.0,0.0,0.0,3.0208,2.9965,0.0,0.0,0.0,0.0,0.0,0.0,0.0,0.0,2.86,2.86,2.86,0.0,2.86,2.86,2.86,2.86,0.0,2.9032,2.927,2.8619,2.9096,2.9604,2.9521,2.9489,3.0184,3.2283,3.2775,3.3383,3.4792,3.5029,3.5468,3.6615,3.6801,0.0,0.0,0.0,0.0,0.0,0.0,0.0,0.0,3.8391,3.8391,3.8391,3.8391,3.8391,3.8391,3.8391,3.8391,3.8391,3.8391,3.8391,3.8391,3.8391,0.0,0.0,0.0,0.0,3.8391,3.8391,3.8391,3.8391,3.8391,3.8391,3.8391,3.8391,3.8391,3.8521,0.0,0.0,0.0,0.0,0.0,0.0,0.0,0.0,0.0,0.0,0.0,2.1465,2.1855,2.2285,0.0,0.0,0.0,0.0,0.0,0.0,0.0,0.0,0.0,2.4428,2.4782,2.5198,2.5391,2.5391,2.5336,2.5305,2.5305,2.5305,2.5305,2.5324,2.61,2.7163,0.0,0.0,0.0,3.0207,3.0199,0.0,0.0,0.0,0.0,0.0,3.0106,2.9841,0.0,2.9416,2.9123,2.881,0.0,0.0,0.0,0.0,2.86,2.86,2.86,2.86,2.86,2.86,2.86,2.8587,2.8562,2.8855,2.902,2.8516,2.9015,2.9535,2.9465,3.0023,3.091,3.2158,3.3094,3.4038,3.5078,3.517,3.5477,3.6453,3.6812,0.0,0.0,0.0,0.0,0.0,0.0,0.0,0.0,3.8391,3.8391,3.8391,3.8391,3.8391,3.8391,3.8391,3.8391,3.8391,3.8391,3.8391,3.8391,3.8391,3.8391,0.0,0.0,0.0,3.8391,3.8391,3.8391,3.8391,3.8391,3.8391,3.8391,3.8391,3.8391,3.8505,0.0,0.0,0.0,0.0,0.0,0.0,0.0,0.0,0.0,0.0,0.0,0.0,0.0,0.0,0.0,0.0,0.0,0.0,0.0,0.0,0.0,0.0,2.4351,2.4723,2.5452,2.5408,2.5371,2.5371,2.5329,2.5305,2.5305,2.5305,2.5305,2.5363,2.7042,2.8202,2.8967,0.0,3.0207,3.02,3.0199,0.0,0.0,0.0,0.0,0.0,0.0,0.0,0.0,2.9228,2.8955,2.8694,2.87,0.0,0.0,0.0,0.0,0.0,2.86,2.8593,2.8587,2.8593,2.8587,2.8574,2.8505,2.8588,2.8589,2.8345,2.9009,2.959,2.943,3.0761,3.1905,3.1957,0.0,0.0,3.5116,3.5437,3.5831,3.6332,0.0,0.0,0.0,0.0,0.0,0.0,0.0,0.0,0.0,3.8391,3.8391,3.8391,3.8391,3.8391,3.8391,3.8391,3.8391,3.8391,3.8391,3.8391,3.8391,3.8391,3.8391,0.0,0.0,0.0,3.8391,3.8391,3.8391,3.8391,3.8391,3.8391,3.8391,3.8391,3.8391,3.8505,0.0,0.0,0.0,0.0,0.0,0.0,0.0,0.0,0.0,0.0,0.0,0.0,0.0,0.0,0.0,0.0,0.0,0.0,0.0,0.0,0.0,2.4175,2.4856,2.5259,2.5336,2.532,2.531,2.531,2.5315,2.5305,2.5305,2.5305,2.5305,2.5363,2.7042,2.7864,2.8093,2.958,3.0197,3.0195,3.0192,0.0,0.0,0.0,0.0,0.0,0.0,0.0,0.0,2.9082,2.8879,2.8682,2.8637,0.0,0.0,0.0,0.0,0.0,2.86,2.8562,2.8536,2.8587,2.8562,2.8505,2.8492,2.8941,2.9158,2.8432,2.939,3.0144,2.953,3.1214,3.2805,3.309,0.0,3.5298,0.0,0.0,3.5979,3.6285,0.0,0.0,0.0,0.0,0.0,0.0,0.0,0.0,0.0,3.8391,3.8391,3.8391,3.8391,3.8391,3.8391,3.8391,3.8391,3.8391,3.8391,3.8391,3.8391,3.8391,3.8391,0.0,0.0,3.8391,3.8391,3.8391,3.8391,3.8391,3.8391,3.8391,3.8391,3.8391,3.8391,3.8505,0.0,0.0,0.0,0.0,0.0,0.0,0.0,0.0,0.0,0.0,0.0,0.0,0.0,0.0,0.0,0.0,0.0,0.0,0.0,0.0,2.3067,2.3438,2.4664,2.5336,2.5308,2.5305,2.5305,2.5305,2.5305,2.5305,2.5305,2.5305,2.53,2.5343,2.656,2.7337,2.7821,2.8992,2.9504,2.9494,0.0,0.0,0.0,0.0,0.0,0.0,0.0,0.0,0.0,0.0,2.8743,2.8644,2.8606,0.0,0.0,0.0,0.0,0.0,2.86,2.8555,2.8517,2.8549,2.8497,2.8439,2.8406,2.8963,2.9385,2.8986,2.974,3.0521,3.0636,3.2022,3.3459,3.4334,0.0,3.4818,3.467,3.5538,0.0,0.0,0.0,0.0,0.0,0.0,0.0,0.0,0.0,0.0,0.0,0.0,3.8391,3.8391,3.8391,3.8391,3.8391,3.8391,3.8391,3.8391,3.8391,3.8391,3.8391,3.8391,3.8391,3.8391,0.0,3.8391,3.8391,3.8391,3.8391,3.8391,3.8391,3.8391,3.8391,3.8391,3.8391,3.8505,0.0,0.0,0.0,0.0,0.0,0.0,0.0,0.0,0.0,0.0,0.0,0.0,0.0,0.0,0.0,0.0,0.0,0.0,0.0,2.1959,2.2842,2.2799,2.4406,2.5305,2.5305,2.5305,2.5305,2.5305,2.5305,2.5305,2.5305,2.53,2.5307,2.5347,2.6132,2.6941,2.7755,2.8564,2.8878,2.8854,0.0,0.0,0.0,0.0,0.0,0.0,0.0,0.0,0.0,0.0,0.0,0.0,0.0,0.0,0.0,2.86,2.86,2.86,2.86,2.8542,2.8484,2.8484,2.8426,2.836,2.8313,2.8913,2.9465,2.9412,3.0129,3.1028,3.1839,3.2948,3.4098,3.5177,3.4844,3.4658,0.0,0.0,0.0,0.0,0.0,0.0,0.0,0.0,0.0,0.0,0.0,0.0,0.0,0.0,3.8391,3.8391,3.8391,3.8391,3.8391,3.8391,3.8391,3.8391,3.8391,3.8391,3.8391,3.8391,3.8391,3.8391,3.8391,3.8391,3.8391,3.8391,3.8391,3.8391,3.8391,3.8391,3.8391,3.8391,3.8391,3.8472,0.0,0.0,0.0,0.0,0.0,0.0,0.0,0.0,0.0,0.0,0.0,0.0,0.0,0.0,0.0,0.0,0.0,0.0,0.0,2.1903,2.2806,2.2797,2.4406,2.5305,2.5305,2.5305,2.5305,2.5305,2.5305,2.5305,2.5305,2.5302,2.5292,2.5344,2.6132,2.6945,2.7755,2.8564,2.8829,2.8704,2.8704,0.0,0.0,0.0,0.0,0.0,0.0,0.0,0.0,0.0,0.0,0.0,0.0,0.0,2.86,2.86,2.86,2.86,2.86,2.8504,2.8418,2.8418,2.8353,2.8307,2.83,2.8872,2.9412,2.9398,3.0582,3.1857,3.2668,3.3891,3.4878,3.5166,3.5526,3.5626,0.0,0.0,0.0,0.0,0.0,0.0,0.0,0.0,0.0,0.0,0.0,0.0,0.0,0.0,0.0,3.8391,3.8391,3.8391,3.8391,3.8391,3.8391,3.8391,3.8391,3.8391,3.8391,3.8391,3.8391,3.8391,3.8391,3.8391,3.8391,3.8391,3.8391,3.8391,3.8391,3.8391,3.8391,3.8391,3.8391,3.8408,0.0,0.0,0.0,0.0,0.0,0.0,0.0,0.0,0.0,0.0,0.0,0.0,0.0,0.0,0.0,0.0,0.0,0.0,0.0,2.1874,2.2802,2.2797,2.4406,2.5305,2.5305,2.5305,2.5305,2.5305,2.5305,2.5298,2.5302,2.5294,2.5274,2.5242,2.5565,2.6132,2.6947,2.7658,2.7698,2.7317,2.7713,2.7036,0.0,0.0,0.0,0.0,0.0,0.0,0.0,0.0,2.6723,2.7405,2.7405,2.7948,2.86,2.86,2.8574,2.8549,2.8549,2.8445,2.8466,2.8968,2.9031,2.8976,2.8976,2.9544,3.0218,3.0725,3.2099,3.3414,3.4148,0.0,3.4626,3.4757,3.5161,0.0,0.0,0.0,0.0,0.0,0.0,0.0,0.0,0.0,0.0,0.0,0.0,0.0,0.0,0.0,0.0,3.8391,3.8391,3.8391,3.8391,3.8391,3.8391,3.8391,3.8391,3.8391,3.8391,3.8391,3.8391,3.8391,3.8391,3.8391,3.8391,3.8391,3.8391,3.8391,3.8391,3.8391,3.8391,3.8391,3.8391,3.8391,0.0,0.0,0.0,0.0,0.0,0.0,0.0,0.0,0.0,0.0,0.0,0.0,0.0,0.0,0.0,0.0,0.0,0.0,2.0297,2.1874,2.2802,2.2797,2.4406,2.5305,2.5305,2.5305,2.5305,2.5305,2.5298,2.5307,2.5309,2.5274,2.5247,2.5193,2.5203,2.5622,2.6378,2.6866,2.6758,2.6274,2.6718,2.6027,0.0,0.0,0.0,0.0,0.0,0.0,0.0,0.0,2.5981,2.6687,2.694,2.7568,2.8268,2.8502,2.8542,2.851,2.846,2.8393,2.8425,2.8987,2.9265,2.9451,2.9683,3.0325,3.1118,3.191,3.3544,3.4872,3.5016,0.0,0.0,0.0,0.0,0.0,0.0,0.0,0.0,0.0,0.0,0.0,0.0,0.0,0.0,0.0,0.0,0.0,0.0,0.0,0.0,0.0,3.8391,3.8391,3.8391,3.8391,3.8391,3.8391,3.8391,3.8391,3.8391,3.8391,3.8391,3.8391,3.8391,3.8391,3.8391,3.8391,3.8391,3.8391,3.8391,3.8391,3.8391,3.8391,3.8391,3.8391,0.0,0.0,0.0,0.0,0.0,0.0,0.0,0.0,2.0605,2.0605,2.0605,0.0,0.0,0.0,0.0,0.0,0.0,0.0,2.0297,2.1866,2.278,2.2797,2.4406,2.5286,2.5305,2.5305,2.5305,2.5305,2.5302,2.5309,2.5309,2.5237,2.5193,2.519,2.5203,2.5574,2.6189,2.6349,2.6196,2.5885,2.5822,2.532,2.4555,0.0,0.0,0.0,0.0,0.0,0.0,0.0,2.432,2.5135,2.5945,2.6759,2.7538,2.8277,2.8492,2.8473,2.8413,2.8347,2.83,2.8318,2.8872,2.9619,3.0343,3.1135,3.1946,3.2757,3.4775,3.6075,3.5087,3.5455,0.0,0.0,0.0,0.0,0.0,0.0,0.0,0.0,0.0,0.0,0.0,0.0,0.0,0.0,0.0,0.0,0.0,0.0,0.0,0.0,3.8391,3.8391,3.8391,3.8391,3.8391,3.8391,3.8391,3.8391,3.8391,3.8391,3.8391,3.8391,3.8391,3.8391,3.8391,3.8391,3.8391,3.8391,3.8391,3.8391,3.8391,3.8391,3.8391,3.8391,0.0,0.0,0.0,0.0,0.0,0.0,0.0,0.0,2.0605,2.0605,2.0605,0.0,0.0,0.0,0.0,0.0,0.0,0.0,2.0292,2.1291,2.2167,2.2778,2.3855,2.4716,2.5286,2.5305,2.5305,2.5305,2.5302,2.5282,2.5222,2.5209,2.5201,2.5203,2.5194,2.5302,2.5526,2.5997,2.5778,2.5171,2.5619,2.5206,2.4298,0.0,0.0,0.0,0.0,0.0,0.0,0.0,0.0,0.0,2.5898,2.6284,2.6736,2.8049,2.8004,2.7624,2.8172,2.8273,2.848,2.9576,3.0008,3.0529,3.1875,3.2382,3.303,3.4791,3.5238,3.5368,3.5452,0.0,0.0,0.0,0.0,0.0,0.0,0.0,0.0,0.0,0.0,0.0,0.0,0.0,0.0,0.0,0.0,0.0,0.0,0.0,0.0,0.0,3.8391,3.8391,3.8391,3.8391,3.8391,3.8391,3.8391,3.8391,3.8391,3.8391,3.8391,3.8391,3.8391,3.8391,3.8391,3.8391,3.8391,3.8391,3.8391,3.8391,3.8391,3.8391,3.8391,3.8391,0.0,0.0,0.0,0.0,0.0,0.0,2.0605,2.0605,2.0605,2.0605,2.0585,2.0543,0.0,0.0,0.0,2.0419,2.04,2.0377,2.0298,2.1049,2.1735,2.2256,2.3454,2.449,2.5286,2.5298,2.5293,2.5293,2.5268,2.5241,2.5195,2.5209,2.516,2.5075,2.5168,2.5085,2.4909,2.539,2.5201,2.4632,2.5005,2.4787,2.4192,0.0,0.0,0.0,0.0,0.0,0.0,0.0,0.0,0.0,2.5767,2.5882,2.5979,2.7823,2.7753,2.7266,2.8045,2.823,2.8499,2.9754,3.0272,3.1059,3.3205,3.3686,3.4073,3.5463,3.5613,3.557,3.5808,3.5864,0.0,0.0,0.0,0.0,0.0,0.0,0.0,0.0,0.0,0.0,0.0,0.0,0.0,0.0,0.0,0.0,0.0,0.0,0.0,0.0,3.8391,3.8391,3.8391,3.8391,3.8391,3.8391,3.8391,3.8391,3.8391,3.8391,3.8391,3.8391,3.8391,3.8391,3.8391,3.8391,3.8391,3.8391,3.8391,3.8391,3.8391,3.8391,3.8391,3.8391,0.0,0.0,0.0,0.0,0.0,0.0,2.0605,2.0605,2.0605,2.0586,2.0542,2.0495,0.0,0.0,0.0,2.0394,2.0385,2.0365,2.0296,2.0983,2.1425,2.1502,2.3086,2.4317,2.5058,2.5225,2.527,2.5172,2.5181,2.5195,2.5193,2.5203,2.5107,2.4929,2.5104,2.4907,2.4466,2.4693,2.4598,2.4292,2.4224,2.4187,2.4144,2.3894,0.0,0.0,0.0,0.0,0.0,0.0,0.0,0.0,2.5527,2.5474,2.5326,2.7525,2.766,2.7246,2.7995,2.8196,2.8403,2.9269,3.006,3.1379,3.4208,3.4809,3.4847,3.5208,0.0,3.6324,3.6112,0.0,0.0,0.0,0.0,0.0,0.0,0.0,0.0,0.0,0.0,0.0,0.0,0.0,0.0,0.0,0.0,0.0,0.0,0.0,0.0,3.8391,3.8391,3.8391,3.8391,3.8391,3.8391,0.0,3.8391,3.8391,3.8391,3.8391,3.8391,3.8391,3.8391,3.8391,3.8391,3.8391,3.8391,3.8391,3.8391,3.8391,3.8391,3.8391,3.8391,3.8391,0.0,0.0,0.0,0.0,0.0,0.0,2.0605,2.0605,2.0585,2.0521,2.0517,2.0484,2.0435,2.0412,0.0,2.0328,2.0324,2.0316,2.0292,2.0462,2.0848,2.1464,2.2507,2.3163,2.3334,2.4632,2.4953,2.4275,2.4905,2.5198,2.5193,2.5203,2.5177,2.5125,2.5028,2.4902,2.4785,2.4685,2.4518,2.4289,2.4224,2.4068,2.3878,2.3821,2.38,0.0,0.0,0.0,0.0,0.0,0.0,0.0,2.4805,2.4962,2.5159,2.6798,2.7154,2.7194,2.7988,2.8196,2.8499,2.9798,3.0858,3.2091,3.3995,3.4022,3.4069,3.5596,3.6139,3.6211,0.0,0.0,0.0,0.0,0.0,0.0,0.0,0.0,0.0,0.0,0.0,0.0,0.0,0.0,0.0,0.0,0.0,0.0,0.0,0.0,0.0,3.8391,3.8391,3.8391,3.8391,3.8391,3.8391,0.0,3.8391,3.8391,3.8391,3.8391,3.8391,3.8391,3.8391,3.8391,3.8391,3.8391,3.8391,3.8391,3.8391,3.8391,3.8391,3.8391,3.8391,3.8391,0.0,0.0,0.0,0.0,0.0,0.0,0.0,0.0,2.148,2.0614,2.0478,2.0449,2.0406,2.0364,0.0,0.0,2.0297,2.0294,2.029,2.0308,2.0656,2.1464,2.1947,2.2365,2.2799,2.3616,2.3839,2.3389,2.3768,2.4336,2.504,2.4723,2.4488,2.4346,2.434,2.4222,2.4083,2.4758,2.4898,2.4672,2.4604,2.4502,2.4326,2.3945,2.38,2.38,2.38,0.0,0.0,0.0,0.0,0.0,0.0,0.0,2.5058,2.6569,2.7002,2.7181,2.7981,2.8147,2.8408,2.9642,3.0474,3.1492,3.3392,3.3505,3.3639,3.5122,3.5751,0.0,0.0,0.0,0.0,0.0,0.0,0.0,0.0,0.0,0.0,0.0,0.0,0.0,0.0,0.0,0.0,0.0,0.0,0.0,0.0,3.8391,3.8391,3.8391,3.8391,3.8391,3.8391,3.8391,3.8391,3.8391,3.8391,3.8391,3.8391,3.8391,3.8391,3.8391,3.8391,3.8391,3.8391,3.8391,3.8391,3.8391,3.8391,3.8391,3.8391,3.8391,3.8391,3.8391,0.0,0.0,0.0,0.0,0.0,0.0,0.0,0.0,0.0,2.0662,2.0424,2.0395,2.0385,2.0326,2.0293,0.0,0.0,0.0,2.031,2.0308,2.0596,2.1252,2.1288,2.1607,2.2339,2.2578,2.2618,2.2447,2.2701,2.3384,2.4417,2.3886,2.3474,2.3198,2.3327,2.3364,2.3397,2.4685,2.5269,2.5303,2.523,2.5208,2.5135,2.4471,2.4217,2.4212,2.4206,2.4192,2.4172,2.4024,0.0,0.0,0.0,0.0,2.514,2.6414,2.6895,2.7181,2.7981,2.8184,2.8385,2.9311,2.9757,3.0528,3.2748,3.3062,3.3251,3.4454,0.0,0.0,0.0,0.0,0.0,0.0,0.0,0.0,0.0,0.0,0.0,0.0,0.0,0.0,0.0,0.0,0.0,0.0,0.0,0.0,3.8391,3.8391,3.8391,3.8391,3.8391,3.8391,3.8391,3.8391,3.8391,3.8391,3.8391,3.8391,3.8391,3.8391,3.8391,3.8391,3.8391,3.8391,3.8391,3.8391,3.8391,3.8391,3.8391,3.8391,3.8391,3.8391,3.8391,3.8391,0.0,0.0,0.0,0.0,0.0,0.0,0.0,0.0,0.0,0.0,2.0408,2.0378,2.0313,2.0318,2.0292,2.0309,2.0306,2.0292,2.0308,0.0,0.0,2.0462,2.0394,2.0424,2.0537,2.1967,2.2278,2.1407,2.2966,2.3324,2.2557,2.2584,2.2502,2.2351,2.2204,2.2881,2.415,2.4122,2.4891,2.6133,2.6076,2.6035,2.6035,2.5914,2.5872,2.5866,2.582,2.5797,2.5684,2.4919,2.4652,0.0,0.0,0.0,2.5687,2.5901,2.6443,2.7181,2.7981,2.8471,2.887,2.9248,2.9539,3.0322,3.2548,0.0,3.2621,0.0,0.0,0.0,0.0,0.0,0.0,0.0,0.0,0.0,0.0,0.0,0.0,0.0,0.0,0.0,0.0,0.0,0.0,0.0,0.0,0.0,3.8391,3.8391,3.8391,3.8391,3.8391,3.8391,3.8391,3.8391,3.8391,3.8391,3.8391,3.8391,3.8391,3.8391,3.8391,3.8391,3.8391,3.8391,3.8391,3.8391,3.8391,3.8391,3.8391,3.8391,3.8391,3.8391,3.8391,3.8391,0.0,0.0,0.0,0.0,0.0,0.0,0.0,0.0,0.0,0.0,0.0,2.0334,2.0295,2.0292,2.0293,2.0304,2.0302,2.0308,2.0308,2.0308,2.0285,2.0259,2.0215,2.0199,2.0208,2.0914,2.1063,2.0574,2.1374,2.148,2.0919,2.09,2.1092,2.1456,2.1302,2.2109,2.3616,2.4295,2.5486,2.6916,2.6874,2.6868,2.6814,2.6361,2.5914,2.5577,2.5953,2.5798,2.5385,2.5404,2.5386,2.5296,2.4908,0.0,0.0,0.0,2.6979,2.7595,2.7755,2.753,2.739,2.8107,2.8544,2.9231,3.0897,3.179,3.2576,0.0,0.0,0.0,0.0,0.0,0.0,0.0,0.0,0.0,0.0,0.0,0.0,0.0,0.0,0.0,0.0,0.0,0.0,0.0,0.0,3.8391,3.8391,3.8391,3.8391,3.8391,3.8391,3.8391,3.8391,3.8391,3.8391,3.8391,3.8391,3.8391,3.8391,3.8391,3.8391,3.8391,3.8391,3.8391,3.8391,3.8391,3.8391,3.8391,3.8391,3.8391,3.8391,3.8391,3.8391,3.8391,0.0,0.0,0.0,0.0,0.0,0.0,0.0,0.0,0.0,0.0,0.0,2.0294,2.0308,0.0,0.0,0.0,2.0298,2.0308,2.0308,2.0285,2.024,2.0192,2.0199,2.0195,2.0194,2.0187,2.0122,2.0052,2.0079,2.0006,1.984,1.9741,2.0007,2.0541,2.0389,2.1293,2.3006,2.4239,2.5785,2.7405,2.7405,2.7405,2.7314,2.6488,2.5795,2.5361,2.5876,2.5667,2.5189,2.5702,2.5832,2.5794,2.5794,2.6354,0.0,0.0,0.0,2.7589,2.7063,2.6474,2.6222,2.7017,2.7729,2.8527,0.0,0.0,3.2284,0.0,0.0,0.0,0.0,0.0,0.0,0.0,0.0,0.0,0.0,0.0,0.0,0.0,0.0,0.0,0.0,0.0,0.0,0.0,0.0,3.8391,3.8391,3.8391,3.8391,3.8391,3.8391,3.8391,3.8391,3.8391,3.8391,3.8391,3.8391,3.8391,3.8391,3.8391,3.8391,3.8391,3.8391,3.8391,3.8391,3.8391,3.8391,3.8391,3.8391,3.8391,3.8391,3.8391,3.8391,3.8391,0.0,0.0,0.0,0.0,0.0,0.0,0.0,0.0,0.0,0.0,0.0,2.0308,2.0307,2.0304,2.0294,2.0292,2.031,2.0308,2.0308,2.0238,2.0192,2.0192,2.0203,0.0,2.0194,2.0148,2.0045,1.9918,2.0043,1.9965,1.971,1.9704,1.9658,1.9551,1.9362,2.056,2.2765,2.3536,2.5226,2.7405,2.7405,2.7405,2.7308,2.6447,2.608,2.605,2.6009,2.5984,2.5929,2.5843,2.58,2.5794,2.5794,2.6354,2.7002,0.0,0.0,0.0,2.56,2.5835,2.6392,2.6446,2.7517,2.8799,0.0,0.0,0.0,0.0,0.0,0.0,0.0,0.0,0.0,0.0,0.0,0.0,0.0,0.0,0.0,0.0,0.0,0.0,0.0,0.0,0.0,0.0,0.0,3.8391,3.8391,3.8391,3.8391,3.8391,3.8391,3.8391,3.8391,3.8391,3.8391,3.8391,3.8391,3.8391,3.8391,3.8391,3.8391,3.8391,3.8391,3.8391,3.8391,3.8391,3.8391,3.8391,3.8391,3.8391,3.8391,3.8391,3.8391,3.8391,0.0,0.0,0.0,0.0,0.0,0.0,0.0,0.0,0.0,0.0,0.0,0.0,0.0,2.061,2.0298,2.031,2.0308,2.0285,2.0238,2.0213,2.0197,2.0203,2.0203,2.0185,2.0148,2.0117,2.0074,2.0035,1.9986,1.9923,1.9822,1.9643,1.9495,1.9357,1.9204,2.0452,2.275,2.349,0.0,0.0,0.0,2.7061,2.6537,2.6212,2.5786,0.0,0.0,0.0,0.0,2.5676,2.6139,2.6574,2.6574,2.7121,2.774,2.7518,2.7017,2.644,2.5915,2.5857,2.5955,2.5946,2.6809,2.7833,2.8577,2.9539,0.0,0.0,0.0,0.0,0.0,0.0,0.0,0.0,0.0,0.0,0.0,0.0,0.0,0.0,0.0,0.0,0.0,0.0,0.0,0.0,0.0,0.0,3.8391,3.8391,3.8391,3.8391,3.8391,3.8391,3.8391,3.8391,3.8391,3.8391,3.8391,3.8391,3.8391,3.8391,3.8391,3.8391,3.8391,3.8391,3.8391,3.8391,3.8391,3.8391,3.8391,3.8391,3.8391,3.8391,3.8391,3.8391,0.0,0.0,0.0,0.0,0.0,0.0,0.0,0.0,0.0,2.3319,0.0,0.0,0.0,0.0,2.0596,2.0283,2.0275,2.0247,2.0199,2.019,2.0178,2.0127,2.0148,2.0115,2.0021,2.0021,2.0021,2.0021,1.9907,1.9816,1.9754,1.9554,1.9383,1.9232,1.9136,2.029,0.0,0.0,0.0,2.5836,0.0,0.0,2.5737,0.0,0.0,0.0,0.0,0.0,0.0,0.0,0.0,0.0,0.0,0.0,0.0,0.0,0.0,2.6367,2.6147,2.579,2.5448,2.5355,2.6177,2.7053,2.7318,0.0,0.0,0.0,0.0,0.0,0.0,0.0,0.0,0.0,0.0,0.0,0.0,0.0,0.0,0.0,0.0,0.0,0.0,0.0,0.0,0.0,0.0,0.0,3.8391,3.8391,3.8391,3.8391,3.8391,3.8391,3.8391,3.8391,3.8391,3.8391,3.8391,3.8391,3.8391,3.8391,3.8391,3.8391,3.8391,3.8391,3.8391,3.8391,3.8391,3.8391,3.8391,3.8391,3.8391,3.8391,3.8391,3.8391,0.0,0.0,0.0,0.0,0.0,0.0,0.0,0.0,2.4165,2.4149,0.0,0.0,0.0,0.0,0.0,2.0345,2.0246,2.0231,2.0231,2.0207,2.0131,2.0006,2.0052,2.0021,1.9893,1.9904,1.9885,1.9885,1.9759,1.9634,1.9507,1.942,1.9297,1.9103,1.9094,1.9992,2.1545,0.0,2.3573,2.4967,0.0,2.499,2.4974,0.0,0.0,0.0,2.5569,2.5794,0.0,2.6693,0.0,0.0,0.0,0.0,0.0,0.0,0.0,0.0,0.0,0.0,0.0,0.0,0.0,0.0,2.604,0.0,0.0,0.0,0.0,0.0,0.0,0.0,0.0,0.0,0.0,0.0,0.0,0.0,0.0,0.0,0.0,0.0,0.0,0.0,0.0,0.0,0.0,3.8391,3.8391,3.8391,3.8391,3.8391,3.8391,3.8391,3.8391,3.8391,3.8391,3.8391,3.8391,3.8391,3.8391,3.8391,3.8391,3.8391,3.8391,3.8391,3.8391,3.8391,3.8391,3.8391,3.8391,3.8391,3.8391,3.8391,3.8391,3.8391,0.0,0.0,0.0,0.0,0.0,2.7931,2.7585,2.6604,2.5678,0.0,0.0,0.0,2.3667,2.2894,2.2264,2.2029,2.1473,2.1119,2.1079,2.0519,2.0152,2.0084,2.0008,1.9942,1.9909,1.9803,1.9756,1.9756,1.9624,1.9502,1.942,1.9266,1.9144,1.9094,1.9099,1.9992,2.1545,2.2355,0.0,2.4176,2.4762,2.4949,0.0,0.0,0.0,0.0,0.0,2.5794,2.583,0.0,2.5973,2.5848,0.0,0.0,0.0,0.0,0.0,0.0,2.5461,0.0,0.0,0.0,0.0,0.0,0.0,0.0,0.0,0.0,0.0,0.0,0.0,0.0,0.0,0.0,0.0,0.0,0.0,0.0,0.0,0.0,0.0,0.0,0.0,0.0,0.0,0.0,3.8391,3.8391,3.8391,3.8391,3.8391,3.8391,3.8391,3.8391,3.8391,3.8391,3.8391,3.8391,3.8391,3.8391,3.8391,3.8391,3.8391,3.8391,3.8391,3.8391,3.8391,3.8391,3.8391,3.8391,3.8391,3.8391,3.8391,3.8391,3.8391,3.8391,0.0,0.0,3.0288,2.9926,2.9432,2.8838,2.8027,2.7159,2.6423,0.0,0.0,0.0,2.3921,2.3425,2.2964,2.2615,2.2198,2.1797,2.1419,2.0905,2.0414,1.9942,1.9852,1.9792,1.9725,1.965,1.9621,1.9621,1.9456,1.9342,1.9263,1.9146,1.9101,1.9091,1.9091,1.9992,2.1527,2.1998,0.0,0.0,2.4622,0.0,0.0,2.5488,2.5964,0.0,0.0,0.0,2.7257,2.6911,2.6365,0.0,0.0,0.0,0.0,0.0,0.0,0.0,0.0,0.0,0.0,0.0,0.0,0.0,0.0,0.0,0.0,0.0,0.0,0.0,0.0,0.0,0.0,0.0,0.0,0.0,0.0,0.0,0.0,0.0,0.0,0.0,0.0,0.0,0.0,3.7922,3.794,3.8084,3.8375,3.8391,3.8391,3.8391,3.8391,3.8391,3.8391,3.8391,3.8391,3.8391,3.8391,3.8391,3.8391,3.8391,3.8391,3.8391,3.8391,3.8391,3.8391,3.8391,3.8391,3.8391,3.8391,3.8391,3.8391,3.8391,3.8391,3.8391,0.0,0.0,3.0138,2.9258,2.903,2.8681,2.7871,2.6992,2.6422,0.0,2.5767,2.4927,2.3967,2.3868,2.354,2.2787,2.2726,2.2413,2.1692,2.1436,2.0858,1.9873,1.9817,1.9718,1.9492,1.9496,1.9464,1.9479,1.9284,1.9154,1.9107,1.9103,1.9097,1.9091,1.9182,2.0083,2.1509,2.1599,0.0,2.3973,2.4575,2.4859,0.0,0.0,2.7116,0.0,2.8071,2.8845,2.938,2.8499,2.725,0.0,0.0,0.0,0.0,0.0,2.515,0.0,0.0,0.0,0.0,0.0,0.0,0.0,0.0,0.0,0.0,0.0,0.0,0.0,0.0,0.0,0.0,0.0,0.0,0.0,0.0,0.0,0.0,0.0,0.0,0.0,0.0,0.0,3.6548,3.7147,3.7261,3.7617,3.8359,3.8391,3.8391,3.8391,3.8391,3.8391,3.8391,3.8391,3.8391,3.8391,3.8391,3.8391,3.8391,3.8391,3.8391,3.8391,3.8391,3.8391,3.8391,3.8391,3.8391,3.8391,3.8391,3.8391,3.8391,3.8391,3.8391,3.8391,3.0404,3.0404,3.0138,2.9258,2.8569,2.7849,2.6979,2.5978,2.5342,2.5464,2.5338,2.5141,2.4938,2.4912,2.4837,2.4663,2.3934,2.3426,2.3255,2.2428,2.1553,2.0701,2.0555,2.0195,1.9503,1.939,1.9317,1.9256,1.917,1.9111,1.9107,1.9106,1.9099,1.9127,1.9779,2.0608,2.1545,2.2192,0.0,2.4692,2.4826,0.0,2.5859,2.6742,2.7846,2.8952,2.9119,2.9647,3.0075,0.0,2.7999,2.7393,0.0,0.0,0.0,2.4275,0.0,0.0,0.0,0.0,0.0,0.0,0.0,0.0,0.0,0.0,0.0,0.0,0.0,0.0,0.0,0.0,0.0,0.0,0.0,0.0,0.0,0.0,0.0,0.0,0.0,0.0,0.0,0.0,3.6354,3.6484,3.7002,3.7617,3.8359,3.8391,3.8391,3.8391,3.8391,3.8391,3.8391,3.8391,3.8391,3.8391,3.8391,3.8391,3.8391,3.8391,3.8391,3.8391,3.8391,3.8391,3.8391,3.8391,3.8391,3.8391,3.8391,3.8391,3.8391,3.8391,3.8391,3.8391,3.0404,3.0041,2.9484,2.8607,2.7797,2.694,2.6047,2.5455,2.5121,2.519,2.5056,2.4905,2.4814,2.4792,2.48,2.48,2.4435,2.4009,2.3572,2.2974,2.2298,2.1473,2.0907,2.0404,2.0006,1.9477,1.9174,1.915,1.9127,1.9092,1.9111,1.9104,1.9526,2.03,2.03,2.1169,2.2654,0.0,2.3544,2.4922,2.5289,0.0,2.6659,2.7819,2.8737,2.9458,2.9826,3.0182,3.0432,3.0075,2.9433,0.0,0.0,2.6892,2.6906,0.0,2.4445,2.5032,0.0,0.0,0.0,2.3679,0.0,0.0,0.0,0.0,0.0,0.0,0.0,0.0,0.0,0.0,0.0,0.0,0.0,0.0,0.0,0.0,0.0,0.0,0.0,0.0,0.0,0.0,3.4991,3.5687,3.671,3.7455,3.7827,3.8197,3.8391,3.8391,3.8391,3.8391,3.8391,3.8391,3.8391,3.8391,3.8391,3.8391,3.8391,3.8391,3.8391,3.8391,3.8391,3.8391,3.8391,3.8391,3.8391,3.8391,3.8391,3.8391,3.8391,3.8391,3.8391,3.8391,3.0386,2.9681,2.8813,2.7945,2.7114,2.6277,2.5343,2.5185,2.5208,2.5322,2.5236,2.5094,2.4938,2.4925,2.4925,2.4925,2.5028,2.4722,2.388,2.3694,2.3189,2.221,2.1397,2.0809,2.0463,1.9713,1.9267,1.9095,1.9094,1.9091,1.9091,1.9091,1.9888,2.1255,0.0,0.0,0.0,0.0,0.0,2.5175,0.0,2.6791,2.7499,2.9033,2.9701,2.9951,3.086,3.1199,3.1288,3.1938,0.0,2.9708,2.8891,2.818,0.0,0.0,0.0,0.0,0.0,0.0,0.0,0.0,0.0,2.3011,0.0,0.0,0.0,0.0,0.0,0.0,0.0,0.0,0.0,0.0,0.0,0.0,0.0,0.0,0.0,0.0,0.0,0.0,0.0,0.0,3.3627,3.4891,3.6173,3.7018,3.7293,3.7859,3.8262,3.8391,3.8391,3.8391,3.8391,3.8391,3.8391,3.8391,3.8391,3.8391,3.8391,3.8391,3.8391,3.8391,3.8391,3.8391,3.8391,3.8391,3.8391,3.8391,3.8391,3.8391,3.8391,3.8391,3.8391,3.8391,3.0302,2.9615,2.8754,2.7943,2.7083,2.6211,2.5335,2.51,2.5206,2.5755,2.6403,2.6821,2.6804,0.0,0.0,0.0,0.0,0.0,2.5392,0.0,2.4379,2.2859,2.269,2.189,2.0356,2.0212,1.9809,1.9099,1.9095,1.9091,1.9091,1.9091,1.958,2.0459,2.1023,0.0,0.0,0.0,2.5045,0.0,2.7435,2.8092,0.0,2.9801,3.0814,3.1635,3.3152,3.3697,3.3714,0.0,3.2759,3.1296,0.0,3.0409,3.006,2.7186,0.0,0.0,0.0,0.0,0.0,0.0,2.2681,0.0,0.0,0.0,0.0,0.0,0.0,0.0,0.0,0.0,0.0,0.0,0.0,0.0,0.0,0.0,0.0,0.0,0.0,0.0,0.0,0.0,0.0,3.4165,3.4988,3.5979,3.7228,3.739,3.7714,3.8375,3.8391,3.8391,3.8391,3.8391,3.8391,3.8391,3.8391,3.8391,3.8391,3.8391,3.8391,3.8391,3.8391,3.8391,3.8391,3.8391,3.8391,3.8391,3.8391,3.8391,3.8391,3.8391,3.8391,3.8391,2.9449,2.8877,2.8006,2.7036,2.6257,2.5753,2.5774,2.6231,2.661,2.6753,2.6958,2.7065,0.0,0.0,0.0,0.0,0.0,2.6442,0.0,0.0,2.5439,2.4271,2.3754,2.3141,2.2411,2.1016,2.0354,2.0499,1.9562,1.9091,1.9091,1.9091,2.0033,2.1685,2.1487,0.0,2.4638,0.0,2.5757,0.0,0.0,0.0,0.0,3.1472,3.266,3.3821,3.4499,3.4586,3.4385,0.0,3.3944,0.0,0.0,0.0,0.0,0.0,0.0,0.0,0.0,0.0,0.0,0.0,0.0,0.0,2.2592,0.0,2.134,0.0,0.0,0.0,0.0,0.0,0.0,0.0,0.0,0.0,0.0,0.0,0.0,0.0,0.0,0.0,0.0,0.0,0.0,0.0,0.0,3.5458,3.6044,3.6856,3.7439,3.7746,3.8181,3.8391,3.8391,3.8391,3.8391,3.8391,3.8391,3.8391,3.8391,3.8391,3.8391,3.8391,3.8391,3.8391,3.8391,3.8391,3.8391,3.8391,3.8391,3.8391,3.8391,3.8391,3.8391,3.8391,2.8191,2.7817,2.7168,2.6384,2.5677,2.5413,2.6079,2.7132,2.7789,0.0,0.0,0.0,2.7813,2.7664,0.0,0.0,2.7249,2.6991,0.0,0.0,2.634,2.555,2.4681,0.0,2.3899,2.2172,2.1332,2.1509,2.0336,1.9634,1.9435,1.9435,2.0481,2.2355,2.1901,2.321,2.5714,0.0,0.0,2.8356,2.9361,3.0923,3.2706,3.3088,3.4195,3.5499,3.5376,3.5234,3.5097,3.5197,3.5023,0.0,3.3644,0.0,0.0,0.0,0.0,0.0,2.6953,0.0,0.0,0.0,0.0,0.0,0.0,0.0,0.0,0.0,0.0,0.0,0.0,0.0,0.0,0.0,0.0,0.0,0.0,0.0,0.0,0.0,0.0,0.0,0.0,0.0,0.0,0.0,0.0,0.0,3.5182,3.6173,3.6904,3.7293,3.7811,3.8197,3.8391,3.8391,3.8391,3.8391,3.8391,3.8391,3.8391,3.8391,3.8391,3.8391,3.8391,3.8391,3.8391,3.8391,3.8391,3.8391,3.8391,3.8391,3.8391,3.8391,3.8391,3.8391,2.6613,2.6466,2.6424,2.6402,2.572,2.5402,2.6006,2.7348,0.0,0.0,0.0,0.0,0.0,0.0,0.0,0.0,0.0,2.8324,2.7619,0.0,2.7114,0.0,0.0,2.4693,0.0,2.3751,2.2962,2.1509,2.1454,2.102,2.0264,2.0264,2.0717,2.1576,2.2185,2.3356,2.4871,2.5505,2.671,2.8338,2.9861,3.2323,3.5017,0.0,3.5025,3.6301,3.5855,0.0,0.0,3.6719,3.6091,0.0,0.0,0.0,0.0,0.0,0.0,0.0,0.0,0.0,0.0,2.5858,0.0,0.0,0.0,0.0,2.2755,0.0,0.0,0.0,0.0,0.0,0.0,0.0,0.0,0.0,0.0,0.0,0.0,0.0,0.0,0.0,0.0,0.0,0.0,0.0,0.0,0.0,3.513,3.5231,3.5895,3.7261,3.7325,3.7681,3.8391,3.8391,3.8391,3.8391,3.8391,3.8391,3.8391,3.8391,3.8391,3.8391,3.8391,3.8391,3.8391,3.8391,3.8391,3.8391,3.8391,3.8391,3.8391,3.8391,3.8391,3.8391,2.5335,2.5447,2.5563,2.5431,2.5626,2.6183,2.7378,2.8584,0.0,0.0,0.0,0.0,0.0,0.0,3.081,0.0,0.0,3.0164,2.9861,2.9835,0.0,0.0,0.0,2.6795,0.0,0.0,0.0,2.3813,2.2251,2.1876,2.2605,2.2124,2.2291,2.3025,0.0,2.4141,0.0,0.0,0.0,0.0,0.0,3.4454,3.6702,0.0,0.0,3.7959,3.7811,3.7997,0.0,3.8453,3.7887,3.7012,3.6456,3.5685,3.4748,3.3466,3.2357,0.0,0.0,0.0,2.8153,2.7743,0.0,0.0,0.0,0.0,0.0,0.0,0.0,0.0,0.0,0.0,0.0,0.0,0.0,0.0,0.0,0.0,0.0,0.0,0.0,0.0,0.0,0.0,0.0,0.0,0.0,0.0,0.0,3.468,3.5652,3.6597,3.7066,3.7649,3.8391,3.8391,3.8391,3.8391,3.8391,3.8391,3.8391,3.8391,3.8391,3.8391,3.8391,3.8391,3.8391,3.8391,3.8391,3.8391,3.8391,3.8391,3.8391,3.8391,3.8391,3.8391,2.5705,2.5697,2.5567,2.5387,2.6317,2.7366,0.0,0.0,0.0,0.0,3.0958,0.0,3.1789,0.0,3.1576,0.0,3.1241,3.1177,3.1415,3.1154,0.0,2.9493,2.8907,0.0,0.0,0.0,0.0,0.0,0.0,2.3107,2.38,2.3583,2.3598,2.3817,0.0,2.5004,2.5935,0.0,2.8149,0.0,0.0,3.5739,0.0,0.0,3.8049,3.9172,0.0,3.9211,3.9496,3.9342,3.9042,3.8564,3.7579,3.6755,3.5938,3.4684,3.3488,3.2433,3.1805,3.0846,0.0,2.9499,2.8188,0.0,2.717,0.0,0.0,0.0,0.0,0.0,0.0,0.0,0.0,0.0,0.0,0.0,0.0,0.0,0.0,0.0,0.0,0.0,0.0,0.0,0.0,0.0,0.0,0.0,0.0,0.0,3.4891,3.5882,3.6581,3.7293,3.7989,3.8278,3.8391,3.8391,3.8391,3.8391,3.8391,3.8391,3.8391,3.8391,3.8391,3.8391,3.8391,3.8391,3.8391,3.8391,3.8391,3.8391,3.8391,3.8391,3.8391,3.8391,2.7464,2.7017,2.6447,0.0,2.7721,0.0,0.0,0.0,3.0567,0.0,3.1535,3.2479,3.252,3.249,3.2474,3.2474,3.1721,0.0,3.2332,3.1625,0.0,0.0,2.962,2.8364,2.7477,0.0,0.0,0.0,0.0,0.0,2.3922,2.4588,2.4524,2.3914,2.5285,0.0,2.6054,2.7562,2.9159,3.0949,3.4071,3.6274,3.78,3.8611,0.0,3.9963,3.9536,3.9666,3.9971,3.9589,3.9676,3.988,3.9401,3.8422,3.723,3.6077,3.4794,3.3608,3.3078,3.2293,3.1515,3.0995,0.0,0.0,0.0,0.0,2.6122,0.0,0.0,0.0,0.0,0.0,0.0,0.0,0.0,0.0,0.0,0.0,0.0,0.0,0.0,0.0,0.0,0.0,0.0,0.0,0.0,0.0,0.0,0.0,0.0,3.5163,3.5914,3.6613,3.7279,3.8021,3.8391,3.8391,3.8377,3.8377,3.8391,3.8377,3.8377,3.8391,3.8391,3.8391,3.8391,3.8391,3.8391,3.8391,3.8391,3.8391,3.8391,3.8391,3.8391,3.8391,2.6875,2.7298,2.7669,0.0,2.8114,2.8784,0.0,0.0,0.0,0.0,3.2765,3.3586,3.3992,3.4546,3.4901,3.4901,3.4697,0.0,0.0,0.0,0.0,3.2814,3.1818,3.0344,2.8346,2.8093,0.0,2.589,0.0,0.0,2.5502,2.5147,2.4813,2.4596,0.0,0.0,2.6772,2.7774,3.0122,3.3393,3.5953,3.7925,0.0,0.0,4.1002,4.1581,4.0892,4.11,4.167,4.1551,4.1207,4.0709,4.0236,3.9234,3.8169,3.7913,3.6739,3.5407,3.4828,3.4091,3.3206,3.1997,3.1347,3.0757,0.0,0.0,0.0,0.0,0.0,0.0,0.0,0.0,0.0,0.0,0.0,0.0,0.0,0.0,0.0,0.0,0.0,0.0,0.0,0.0,0.0,0.0,0.0,0.0,0.0,0.0,0.0,3.5163,3.5914,3.6613,3.7279,3.8021,3.8391,3.8391,3.8162,3.8162,3.8377,3.8132,3.816,3.8391,3.8391,3.8391,3.8391,3.8391,3.8391,3.8391,3.8391,3.8391,3.8391,3.8391,3.8391,3.8391,2.8134,0.0,0.0,2.9484,0.0,0.0,3.0305,0.0,0.0,3.2814,3.3926,0.0,3.5093,3.5532,3.5804,3.5804,3.5804,0.0,0.0,0.0,0.0,3.3954,3.3158,3.1763,2.9692,2.8962,0.0,2.7242,0.0,0.0,2.6616,2.6531,2.6237,2.584,0.0,2.7165,2.7632,2.9476,3.1931,3.4749,3.6783,0.0,0.0,4.0788,4.1591,4.2244,4.1798,4.1923,4.2297,4.2297,4.1994,4.1538,4.1046,4.0178,3.927,3.898,3.803,3.6929,3.6267,3.5783,3.5072,3.336,3.279,3.232,3.1092,3.0258,2.9405,0.0,0.0,0.0,0.0,0.0,0.0,0.0,0.0,0.0,0.0,0.0,0.0,0.0,0.0,0.0,0.0,0.0,0.0,0.0,0.0,0.0,0.0,0.0,0.0,3.4664,3.5752,3.6414,3.6633,3.7677,3.8105,3.796,3.777,3.777,3.7961,3.777,3.7784,3.7976,3.8119,3.8191,3.8191,3.8335,3.8391,3.8391,3.8391,3.8391,3.8391,3.8391,3.8391,3.8391,3.0113,0.0,0.0,0.0,0.0,0.0,0.0,3.2631,0.0,3.384,0.0,3.5957,3.5957,3.6156,3.6264,3.6264,0.0,3.6663,3.7267,3.6562,3.5757,3.495,3.4146,3.2958,3.1354,2.9939,0.0,0.0,0.0,0.0,2.7145,2.7783,2.7665,2.6967,0.0,0.0,0.0,3.1946,3.4106,0.0,3.7264,3.8772,4.0154,4.0949,4.168,4.2297,4.2297,4.2297,4.2297,4.2297,4.2297,4.2207,4.1742,4.1115,4.044,3.9819,3.9055,3.8235,3.7531,3.7286,3.6767,3.4865,3.4414,3.4066,3.2607,3.179,3.111,3.0334,2.967,2.8978,0.0,0.0,0.0,0.0,0.0,0.0,0.0,0.0,0.0,0.0,0.0,0.0,0.0,0.0,0.0,0.0,0.0,0.0,0.0,0.0,0.0,3.4052,3.5486,0.0,3.5808,0.0,3.7697,3.7402,3.7358,3.7372,3.7402,3.7358,3.7372,3.7432,3.7739,3.79,3.7929,3.8219,3.8335,3.8335,3.8377,3.8391,3.8391,3.8391,3.8391,3.8391,3.0631,0.0,0.0,0.0,0.0,3.3211,3.2897,3.3297,3.4072,3.5327,3.6237,3.6788,3.6788,3.7965,3.878,3.878,3.9324,0.0,0.0,0.0,0.0,3.6606,3.5802,3.4635,3.3013,3.2658,3.1198,0.0,0.0,0.0,2.6231,2.6295,0.0,0.0,0.0,0.0,3.2204,3.4026,0.0,3.7318,3.887,4.0047,4.0985,4.178,4.2172,4.2297,4.2297,4.2297,4.2297,4.2297,4.2297,4.2287,4.2187,4.1768,4.1323,4.1418,4.0499,3.9312,3.8749,3.8217,3.7535,3.6238,3.6114,3.5873,3.4127,3.3631,3.3178,3.1898,3.1526,3.104,2.9751,0.0,0.0,0.0,0.0,0.0,0.0,0.0,0.0,0.0,0.0,0.0,0.0,0.0,0.0,0.0,0.0,0.0,0.0,0.0,0.0,0.0,0.0,0.0,0.0,0.0,3.7461,3.7402,3.718,3.718,3.7402,3.7165,3.718,3.7432,3.7739,3.79,3.7899,3.7958,3.7987,3.8032,3.8292,3.8391,3.8391,3.8391,3.8391,3.8391,3.1666,0.0,0.0,0.0,0.0,0.0,0.0,3.5749,0.0,3.6427,3.7519,3.8237,3.8237,3.9278,3.9967,3.9967,4.0302,4.0356,3.9994,3.9604,3.8862,3.7665,3.725,0.0,3.4671,3.3808,3.2585,3.1042,0.0,0.0,2.8434,0.0,0.0,2.8309,0.0,3.1482,0.0,0.0,0.0,3.7764,3.9736,4.0743,4.1199,4.1994,4.2297,4.2297,4.2297,4.2215,4.2114,4.2256,4.2297,4.2297,4.2297,4.2023,4.1705,4.174,4.114,4.0354,3.9778,3.9406,3.892,3.777,3.7603,3.7343,3.5894,3.556,3.5089,3.3437,3.3097,3.2546,3.0749,2.9847,0.0,0.0,0.0,0.0,0.0,0.0,0.0,0.0,0.0,0.0,0.0,0.0,0.0,0.0,0.0,0.0,0.0,0.0,0.0,0.0,0.0,0.0,0.0,0.0,0.0,3.6922,3.68,3.6816,3.6922,3.68,3.6816,3.6952,3.73,3.7434,3.7463,3.777,3.7987,3.8177,3.8335,3.8391,3.8391,3.8391,3.8391,3.8391,0.0,3.3701,0.0,0.0,3.5348,0.0,3.7387,3.8075,3.8218,3.7593,3.8744,3.9623,3.9623,4.0302,4.0764,4.0764,4.0917,4.0935,4.0773,4.0764,4.0139,3.8762,3.8544,3.7784,3.6337,3.4857,3.3908,0.0,0.0,0.0,0.0,0.0,0.0,0.0,0.0,0.0,0.0,0.0,3.7782,3.8264,4.0289,4.1199,4.1413,4.2065,4.2297,4.2297,4.2246,4.2082,4.1934,4.2082,4.2153,4.2153,4.2153,4.1998,4.1795,4.1576,4.1374,4.1071,4.0473,4.0305,4.0065,3.9051,3.8799,3.8513,3.7369,3.7102,3.664,3.4919,3.4327,3.3582,3.1891,3.1341,0.0,0.0,0.0,0.0,0.0,0.0,0.0,0.0,0.0,0.0,0.0,0.0,0.0,0.0,0.0,0.0,0.0,0.0,0.0,0.0,0.0,3.5824,3.5308,0.0,3.6968,0.0,3.6507,3.6507,3.6507,3.6507,3.6507,3.6523,3.6847,3.703,3.712,3.7667,3.806,3.8307,3.8363,3.8391,3.8391,3.8391,3.8391,3.8391,0.0,0.0,0.0,0.0,0.0,0.0,0.0,3.8779,3.9269,3.9197,3.9885,4.0392,4.0392,4.1107,4.1596,4.1596,4.2248,4.2375,4.1632,4.1596,4.1198,4.032,3.9641,3.8871,3.7983,3.693,3.5693,0.0,0.0,0.0,0.0,0.0,0.0,0.0,0.0,0.0,0.0,3.7175,3.8397,3.9762,4.0717,4.1548,4.2208,4.2262,4.2297,4.2277,4.203,4.1917,4.1881,4.1708,4.167,4.167,4.167,4.1648,4.1582,4.1312,4.122,4.1071,4.0473,4.0305,4.0171,3.9647,3.951,3.9206,3.8071,3.7814,3.7469,3.6331,3.5024,3.4036,3.3841,3.2761,3.1838,0.0,0.0,0.0,0.0,0.0,0.0,0.0,0.0,0.0,0.0,0.0,0.0,0.0,0.0,0.0,0.0,0.0,0.0,3.4052,0.0,3.5365,3.5308,3.6147,0.0,3.6507,3.6507,3.6507,3.6507,3.6507,3.6507,3.6523,3.6847,3.7135,3.7387,3.7755,3.7915,3.7988,3.8276,3.8391,3.8391,3.8391,3.8391,3.8391,0.0,0.0,0.0,0.0,0.0,0.0,0.0,4.0396,4.0773,4.0773,4.1044,4.1216,4.1216,4.1931,4.2411,4.2411,4.271,4.2765,4.2448,4.2411,4.2058,4.1252,4.0908,4.0339,3.9544,3.814,3.7073,0.0,0.0,0.0,0.0,0.0,0.0,0.0,0.0,3.6229,3.7229,3.8978,4.0057,4.0689,4.1502,4.2012,4.2297,4.2297,4.2297,4.2287,4.2176,4.204,4.1881,4.1681,4.1604,4.1604,4.1604,4.1487,4.1352,4.1232,4.1105,4.0977,4.0728,4.0655,4.0619,4.0427,4.0204,3.983,3.9083,3.8732,3.8244,3.7129,3.6111,3.5428,3.5428,3.4603,3.3789,0.0,0.0,0.0,0.0,0.0,0.0,0.0,0.0,0.0,0.0,0.0,0.0,0.0,0.0,0.0,0.0,0.0,0.0,3.4052,0.0,3.5714,3.5293,3.6665,3.7058,3.6507,3.6708,3.6677,3.6507,3.6507,3.6507,3.6507,3.6631,3.6877,3.718,3.7476,3.7726,3.7929,3.8278,3.8391,3.8391,3.8391,3.8391,3.8391,3.8769,0.0,4.0429,0.0,4.0796,4.135,4.1342,4.1557,4.1777,4.2022,4.2058,4.2058,4.2058,4.2556,4.2892,4.2892,4.2892,4.2892,4.2892,4.2892,4.2647,4.2076,4.1757,0.0,4.0771,3.9292,3.8492,3.8411,3.7059,0.0,0.0,3.4097,0.0,0.0,3.7202,3.8068,3.8407,4.0307,4.1092,4.1163,4.1976,4.2297,4.2297,4.2297,4.2256,4.2166,4.2121,4.1924,4.1668,4.1453,4.1392,4.1392,4.1392,4.1261,4.1105,4.1105,4.1006,4.0912,4.0912,4.0912,4.0912,4.0912,4.0595,4.0175,3.9701,3.9286,3.8742,3.7797,3.7066,3.6597,3.6597,3.6011,3.5347,3.4829,0.0,0.0,0.0,0.0,0.0,0.0,3.2,3.1806,0.0,0.0,0.0,0.0,0.0,0.0,0.0,0.0,0.0,0.0,0.0,0.0,0.0,3.6992,3.7344,3.677,3.6816,3.6785,3.6631,3.6538,3.66,3.6754,3.6677,3.6877,3.7285,3.7477,3.774,3.8075,3.8307,3.8391,3.8391,3.8391,3.8391,3.8391,4.1995,4.1969,4.1859,4.1532,4.1223,4.1281,4.2054,4.1912,4.1986,4.2783,4.2892,4.2892,4.2892,4.2892,4.2892,4.2892,4.2892,4.2892,4.2892,4.2892,4.2892,0.0,0.0,4.1602,4.1584,4.0593,4.0066,4.0075,0.0,0.0,3.4107,3.3285,3.4998,3.8745,3.8763,3.9191,3.994,4.0753,4.1092,4.1163,4.1976,4.2297,4.2297,4.2297,4.2135,4.1892,4.1681,4.1442,4.1186,4.0977,4.0923,4.0923,4.0923,4.0912,4.0894,4.0894,4.0912,4.0912,4.0912,4.0912,4.0912,4.0912,4.0595,4.0175,3.9701,3.9286,3.8873,3.8474,3.7795,3.7293,3.7293,3.6743,3.6273,3.6257,0.0,0.0,0.0,0.0,0.0,0.0,3.2,3.2,3.1996,0.0,0.0,0.0,0.0,0.0,0.0,0.0,0.0,3.5146,3.5586,0.0,3.677,3.6924,3.7135,3.7387,3.68,3.6677,3.6969,3.6647,3.6831,3.7372,3.7105,3.7329,3.7886,3.79,3.8089,3.8377,3.8391,3.8391,3.8391,3.8391,3.8391,3.8391,4.2294,4.2567,4.2786,4.2679,4.2645,4.2717,4.2974,4.2723,4.262,4.2873,4.2892,4.2881,4.2833,4.2872,4.2881,0.0,4.2823,4.2794,0.0,4.2707,4.2707,4.2707,4.2393,4.2209,4.2209,4.1264,4.0774,4.0774,0.0,0.0,0.0,3.7782,3.8335,3.9565,4.0118,4.0503,4.077,4.1573,4.1923,4.194,4.2208,4.2176,4.203,4.203,4.1892,4.1692,4.1626,4.1549,4.1431,4.1192,4.1094,4.1088,4.0942,4.0912,4.0912,4.0912,4.0912,4.0912,4.0912,4.0912,4.0912,4.0912,4.0353,3.9782,3.9636,3.9088,3.8544,3.8436,3.8213,3.8051,3.8051,3.7455,3.6985,3.6985,3.6192,0.0,0.0,0.0,0.0,0.0,3.4178,3.3971,0.0,3.3016,0.0,0.0,0.0,0.0,0.0,0.0,0.0,0.0,3.6257,0.0,3.68,3.7332,3.7463,3.712,3.6938,3.6892,3.7,3.6892,3.7059,3.7402,3.7314,3.7372,3.7579,3.7813,3.7958,3.8075,3.8307,3.8391,3.8391,3.8391,3.8391,3.8391,4.3335,4.3605,4.3797,4.3671,4.3624,4.354,4.3423,4.3096,4.2853,4.2853,4.2815,4.2767,4.2735,4.2747,0.0,4.2735,4.2725,4.2678,4.2609,4.2599,4.2599,4.2599,4.2536,4.2493,4.2493,0.0,0.0,4.1538,4.0753,4.0511,4.0788,4.0493,4.0511,4.0824,4.1324,4.1538,4.1573,4.2083,4.2297,4.2297,4.2297,4.2135,4.1895,4.1895,4.1701,4.1453,4.1453,4.1397,4.1312,4.1146,4.11,4.1065,4.0942,4.0912,4.0912,4.0912,4.0912,4.0912,4.0912,4.0912,4.0912,4.0912,4.0237,3.9519,3.9219,3.8764,3.8391,3.8391,3.8391,3.8391,3.8391,3.8005,3.7714,3.7714,3.7131,3.6678,3.6678,0.0,0.0,0.0,0.0,0.0,0.0,3.4554,0.0,0.0,0.0,0.0,0.0,0.0,0.0,3.596,3.684,0.0,3.74,3.7733,3.7771,3.7524,3.7405,3.7329,3.7329,3.721,3.7374,3.7771,3.7638,3.7653,3.78,3.8003,3.8089,3.8103,3.8321,3.8391,3.8391,3.8391,3.8391,3.8391,4.4895,4.4877,0.0,0.0,4.4125,0.0,4.343,4.3078,4.2822,4.2783,4.2686,4.2599,4.2589,4.2589,4.2589,4.258,0.0,0.0,0.0,4.258,4.258,4.258,4.2526,4.2483,4.2483,4.2366,4.2297,4.2297,4.1538,4.1566,4.2279,4.152,4.1573,4.2297,4.2297,4.2297,4.2297,4.2297,4.2297,4.2297,4.2277,4.2114,4.1892,4.1852,4.158,4.1186,4.1186,4.1065,4.0912,4.0912,4.0912,4.0912,4.0912,4.0912,4.0912,4.0912,4.0912,4.0912,4.0912,4.0912,4.0912,4.0912,4.0237,3.9388,3.8586,3.8391,3.8391,3.8391,3.8391,3.8391,3.8391,3.8391,3.8391,3.8391,3.7811,3.739,3.739,0.0,0.0,0.0,0.0,0.0,0.0,3.6289,3.6289,0.0,0.0,0.0,0.0,0.0,3.596,3.7261,3.7358,3.7714,3.8391,3.8075,3.8046,3.8335,3.8017,3.7886,3.79,3.7579,3.78,3.8377,3.8075,3.8103,3.8391,3.8391,3.8391,3.8391,3.8391,3.8391,3.8391,3.8391,3.8391,3.8391,0.0,0.0,4.4491,4.4404,4.4125,4.377,4.3381,4.3241,4.305,4.2697,4.2619,4.257,4.2526,4.2516,4.2486,4.2379,4.2458,4.2486,4.2379,4.2369,4.2369,4.2369,4.2366,4.2356,4.2356,4.2325,4.2297,4.2297,4.2101,4.2101,4.2297,4.2101,4.2119,4.2297,4.2297,4.2297,4.2297,4.2297,4.2297,4.2277,4.2072,4.187,4.1642,4.1447,4.1197,4.0977,4.0977,4.0942,4.0912,4.0912,4.0912,4.0912,4.0912,4.0912,4.0912,4.0912,4.0912,4.0912,4.0912,4.0912,4.0912,4.0912,4.0237,3.9388,3.8586,3.8391,3.8391,3.8391,3.8391,3.8391,3.8391,3.8391,3.8391,3.8391,3.8262,3.8149,3.8149,3.8003,0.0,0.0,3.7066,3.6856,3.6351,3.6289,3.6289,0.0,0.0,0.0,0.0,3.6888,3.6953,3.7293,3.7843,3.823,3.8391,3.8075,3.7813,3.7638,3.7565,3.7653,3.79,3.7828,3.8003,3.8408,3.8321,3.8335,3.8391,3.8391,3.8391,3.8391,3.8391,3.8391,3.8391,3.8391,3.8391,3.8391,4.4895,4.4739,4.4584,4.4436,4.4249,4.3943,4.3381,4.3355,4.3195,4.2637,4.2619,4.2581,4.2435,4.2415,4.2377,4.2308,4.2366,4.2377,4.2308,4.2297,4.2297,4.2297,4.2297,4.2297,4.2297,4.2297,4.2297,4.2297,4.2297,4.2297,4.2297,4.2297,4.2297,4.2297,4.2297,4.2297,4.2297,4.2297,4.2297,4.2277,4.2019,4.1784,4.1571,4.13,4.1076,4.0912,4.0912,4.0912,4.0912,4.0912,4.0912,4.0912,4.0912,4.0912,4.0912,4.0912,4.0912,4.0912,4.0912,4.0912,4.0811,4.0414,3.9821,3.9152,3.8546,3.8391,3.8391,3.8391,3.8391,3.8391,3.8391,3.8391,3.8391,3.8391,3.8391,3.8391,3.8391,3.8391,0.0,3.7843,3.7795,3.7649,3.7307,3.7258,3.7258,3.7258,0.0,0.0,3.7778,3.7795,3.7795,3.7795,3.8197,3.8391,3.8391,3.8219,3.8032,3.7858,3.7858,3.7945,3.8134,3.8134,3.8219,3.8391,3.8391,3.8391,3.8391,3.8391,3.8391,3.8391,3.8391,3.8391,3.8391,3.8391,3.8391,3.8391,4.4895,4.4895,4.4808,4.4537,4.4478,4.4234,4.3526,4.3507,4.3344,4.2686,4.266,4.2604,4.2381,4.2328,4.2318,4.2369,4.2328,4.2297,4.2297,4.2297,4.2297,4.2297,4.2297,4.2297,4.2297,4.2297,4.2297,4.2297,4.2297,4.2297,4.2297,4.2297,4.2297,4.2297,4.2297,4.2297,4.2297,4.2297,4.2277,4.2225,4.1966,4.1729,4.1498,4.1243,4.1053,4.0912,4.0912,4.0912,4.0912,4.0912,4.0912,4.0912,4.0912,4.0912,4.0912,4.0912,4.0912,4.0912,4.0912,4.0864,4.0602,3.9804,3.9352,3.8969,3.8504,3.8448,3.8476,3.8406,3.8391,3.8391,3.8391,3.8391,3.8391,3.8391,3.8391,3.8391,3.8391,0.0,3.8391,3.8391,3.8391,3.8391,3.8391,3.8391,3.8391,3.8391,3.8391,3.8391,0.0,3.8391,3.8391,3.8391,3.8391,3.8391,3.8391,3.8391,3.8391,3.8391,3.8391,3.8391,3.8391,3.8391,3.8391,3.8391,3.8391,3.8391,3.8391,3.8391,3.8391,3.8391,3.8391,3.8391,3.8391,3.8391,3.8391,3.8391,4.4895,4.4895,4.4883,4.4821,4.4814,4.461,4.3986,4.3917,4.3719,4.3169,4.2863,4.2674,4.2643,4.2442,4.2391,4.2614,4.2432,4.2297,4.2297,4.2297,4.2297,4.2297,4.2297,4.2297,4.2297,4.2297,4.2297,4.2297,4.2297,4.2297,4.2297,4.2297,4.2297,4.2297,4.2297,4.2297,4.2297,4.2297,4.2166,4.1945,4.1729,4.1498,4.1243,4.1035,4.0918,4.0912,4.0912,4.0912,4.0912,4.0912,4.0912,4.0912,4.0912,4.0912,4.0912,4.0912,4.0912,4.0912,4.0912,4.0643,4.0275,3.9727,3.9558,3.9309,3.8558,3.8655,3.8807,3.8476,3.8391,3.8391,3.8391,3.8391,3.8391,3.8391,3.8391,3.8391,3.8391,0.0,3.8391,3.8391,3.8391,3.8391,3.8391,3.8391,3.8391,3.8391,3.8391,3.8391,3.8391,3.8391,3.8391,3.8391,3.8391,3.8391,3.8391,3.8391,3.8391,3.8391,3.8391,3.8391,3.8391,3.8391,3.8391,3.8391,3.8391,3.8391,3.8391,3.8391,3.8391,3.8391,3.8391,3.8391,3.8391,3.8391,3.8391,3.8391,4.4895,4.4895,4.4895,4.4895,4.4895,4.4694,4.4099,4.4158,4.4011,4.3295,4.3196,4.3133,4.2985,4.2872,4.2825,4.2957,4.2862,4.2718,4.2524,4.2371,4.2297,4.2297,4.2297,4.2297,4.2297,4.2297,4.2297,4.2297,4.2297,4.2297,4.2297,4.2297,4.2297,4.2297,4.2297,4.2297,4.2297,4.2297,4.2163,4.1874,4.1675,4.1442,4.1186,4.0977,4.0912,4.0912,4.0912,4.0912,4.0912,4.0912,4.0912,4.0912,4.0912,4.0912,4.0912,4.0912,4.0912,4.0912,4.0912,4.0612,4.0251,4.0028,3.9795,3.9506,3.9125,3.902,3.8942,3.8766,3.856,3.8391,3.8391,3.8391,3.8391,3.8391,3.8391,0.0,3.8391,3.8391,3.8391,3.8391,3.8391,3.8391,3.8391,3.8391,3.8391,3.8391,3.8391,3.8391,3.8391,3.8391,3.8391,3.8391,3.8391,3.8391,3.8391,3.8391,3.8391,3.8391,3.8391,3.8391,3.8391,3.8391,3.8391,3.8391,3.8391,3.8391,3.8391,3.8391,3.8391,3.8391,3.8391,3.8391,3.8391,3.8391,3.8391,3.8391,4.4895,4.4895,4.4895,4.4895,4.4895,4.4713,4.421,4.4338,4.4225,4.3478,4.3512,4.3521,4.3322,4.3232,4.3223,4.3286,4.3232,4.3123,4.2912,4.2661,4.246,4.2308,4.2297,4.2297,4.2297,4.2297,4.2297,4.2297,4.2297,4.2297,4.2297,4.2297,4.2297,4.2297,4.2297,4.2297,4.2297,4.2297,4.2114,4.1827,4.1653,4.1408,4.1105,4.0965,4.0912,4.0912,4.0912,4.0912,4.0912,4.0912,4.0912,4.0912,4.0912,4.0912,4.0912,4.0912,4.0912,4.0912,4.0912,4.0612,4.0305,4.0305,4.0033,3.9727,3.962,3.9365,3.9115,3.9023,3.8683,3.8391,3.8391,3.8391,3.8391,3.8391,0.0,3.8391,3.8391,3.8391,3.8391,3.8391,3.8391,3.8391,3.8391,3.8391,3.8391,3.8391,3.8391,3.8391,3.8391,3.8391,3.8391,3.8391,3.8391,3.8391,3.8391,3.8391,3.8391,3.8391,3.8391,3.8391,3.8391,3.8391,3.8391,3.8391,3.8391,3.8391,3.8391,3.8391,3.8391,3.8391,3.8391,3.8391,3.8391,3.8391,3.8391,3.8377,4.4895,4.4895,4.4895,4.4895,4.4895,4.4796,4.451,4.4475,4.4368,4.3997,4.3747,4.3587,4.3562,4.3357,4.3304,4.3555,4.333,4.3295,4.3519,4.3277,4.2881,4.2328,4.2297,4.2297,4.2297,4.2297,4.2297,4.2297,4.2297,4.2297,4.2297,4.2297,4.2297,4.2297,4.2297,4.2297,4.2297,4.2297,4.2048,4.1626,4.1604,4.1335,4.0918,4.0912,4.0912,4.0912,4.0912,4.0912,4.0912,4.0912,4.0912,4.0912,4.0912,4.0912,4.0912,4.0912,4.0912,4.0912,4.0912,4.0612,4.0305,4.0305,4.0263,4.0121,3.9701,3.9584,3.9454,3.9091,3.8683,3.8391,3.8391,3.8391,3.8391,3.8391,0.0,0.0,3.8391,3.8391,3.8391,3.8391,3.8391,3.8391,3.8391,3.8391,3.8391,3.8391,3.8391,3.8391,3.8391,3.8391,3.8391,3.8391,3.8391,3.8391,3.8391,3.8391,3.8391,3.8391,3.8391,3.8391,3.8391,3.8391,3.8391,3.8391,3.8391,3.8391,3.8391,3.8391,3.8391,3.8391,3.8391,3.8391,3.8391,3.8391,3.8391,3.8307,4.4895,4.4895,4.4895,4.4895,4.4821,4.4718,4.4535,4.443,4.43,4.4036,4.3908,4.3844,4.3844,4.3755,4.373,4.3836,4.3747,4.3664,4.3595,4.3504,4.3178,4.2565,4.2381,4.2297,4.2297,4.2297,4.2297,4.2297,4.2297,4.2297,4.2297,4.2297,4.2297,4.2297,4.2297,4.2297,4.2297,4.2297,4.2037,4.1604,4.1604,4.1324,4.0912,4.0912,4.0912,4.0912,4.0912,4.0912,4.0912,4.0912,4.0912,4.0912,4.0912,4.0912,4.0912,4.0912,4.0912,4.0912,4.0912,4.0787,4.0667,4.0667,4.0667,4.0631,4.0439,3.9982,3.9558,3.9388,3.8843,3.8391,3.8391,3.8391,3.8391,3.8391,0.0,3.8391,3.8391,3.8391,3.8391,3.8391,3.8391,3.8391,3.8391,3.8391,3.8391,3.8391,3.8391,3.8391,3.8391,3.8391,3.8391,3.8391,3.8391,3.8391,3.8391,3.8391,3.8391,3.8391,3.8391,3.8391,3.8391,3.8391,3.8391,3.8391,3.8391,3.8391,3.8391,3.8391,3.8391,3.8391,3.8391,3.8391,3.8391,3.8391,3.8134,3.7726,4.4895,4.4895,4.4895,4.4895,4.4783,4.4659,4.4528,4.4387,4.424,4.4028,4.4005,4.4005,4.4005,4.4005,4.4005,4.4005,4.4005,4.3916,4.3747,4.3656,4.3338,4.274,4.2524,4.2381,4.2308,4.2297,4.2297,4.2297,4.2297,4.2297,4.2297,4.2297,4.2297,4.2297,4.2297,4.2297,4.2297,4.2297,4.2037,4.1604,4.1604,4.1324,4.0912,4.0912,4.0912,4.0912,4.0912,4.0912,4.0912,4.0912,4.0912,4.0912,4.0912,4.0912,4.0912,4.0912,4.0912,4.0912,4.0912,4.0912,4.0912,4.0912,4.0912,4.0912,4.0912,4.0224,3.961,3.961,3.8966,3.8391,3.8391,3.8391,3.8391,3.8391,3.8391,3.8391,3.8391,3.8391,3.8391,3.8391,3.8391,3.8391,3.8391,3.8391,3.8391,3.8391,3.8391,3.8391,3.8391,3.8391,3.8391,3.8391,3.8391,3.8391,3.8391,3.8391,3.8391,3.8391,3.8391,3.8391,3.8391,3.8391,3.8391,3.8391,3.8391,3.8391,3.8391,3.8391,3.8391,3.8391,3.8391,3.8391,3.8391,3.8391,3.799,3.7372,4.4895,4.4895,4.4895,4.4895,4.4796,4.4652,4.4528,4.4387,4.4233,4.4028,4.4005,4.4005,4.4005,4.4005,4.4005,4.4005,4.4005,4.4005,4.4005,4.3755,4.3347,4.2722,4.2693,4.2583,4.2308,4.2297,4.2297,4.2297,4.2297,4.2297,4.2297,4.2297,4.2297,4.2297,4.2297,4.2297,4.2297,4.2297,4.2037,4.1604,4.1604,4.1324,4.0894,4.0912,4.0912,4.0894,4.0894,4.0894,4.0894,4.0894,4.0894,4.0894,4.0894,4.0912,4.0912,4.0912,4.0912,4.0912,4.0912,4.0912,4.0894,4.0912,4.0912,4.09,4.09,4.0212,3.9597,3.9597,3.8966,3.8391,3.8391,3.8391,3.8391,3.8391,3.8391,3.8391,3.8391,3.8391,3.8391,3.8391,3.8391,3.8391,3.8391,3.8391,3.8391,3.8391,3.8391,3.8391,3.8391,3.8391,3.8391,3.8391,3.8391,3.8391,3.8391,3.8391,3.8391,3.8391,3.8391,3.8391,3.8391,3.8391,3.8391,3.8391,3.8391,3.8391,3.8391,3.8391,3.8391,3.8391,3.8391,3.8391,3.8391,3.8391,3.7976,3.7297,4.4895,4.4895,4.4895,4.4895,4.4718,4.4556,4.4508,4.4274,4.4067,4.4013,4.4005,4.4005,4.4005,4.4005,4.4005,4.4005,4.4005,4.4005,4.4005,4.3934,4.373,4.3355,4.2921,4.2663,4.2575,4.2391,4.2297,4.2297,4.2297,4.2297,4.2297,4.2297,4.2297,4.2297,4.2297,4.2297,4.2297,4.2297,4.2103,4.1795,4.1659,4.1397,4.11,4.0953,4.0989,4.1105,4.1105,4.1105,4.1105,4.1105,4.1105,4.1128,4.1318,4.1392,4.1392,4.1392,4.1392,4.1392,4.1392,4.1392,4.1312,4.0977,4.0697,4.0473,4.0473,3.9799,3.9182,3.9182,3.875,3.8391,3.8391,3.8391,3.8391,3.8391,3.8391,3.8391,3.8391,3.8391,3.8391,3.8391,3.8391,3.8391,3.8391,3.8391,3.8391,3.8391,3.8391,3.8391,3.8391,3.8391,3.8391,3.8391,3.8391,3.8391,3.8391,3.8391,3.8391,3.8391,3.8391,3.8391,3.8391,3.8391,3.8391,3.8391,3.8391,3.8391,3.8391,3.8391,3.8391,3.8391,3.8391,3.8391,3.8391,3.8391,3.7682,3.6677,4.4895,4.4895,4.4895,4.4895,4.4712,4.4551,4.4515,4.4288,4.4082,4.4013,4.4005,4.4005,4.4005,4.4005,4.4005,4.4005,4.4005,4.4005,4.4005,4.4005,4.3934,4.3771,4.3302,4.294,4.2711,4.2544,4.2402,4.2297,4.2297,4.2297,4.2297,4.2297,4.2297,4.2297,4.2297,4.2297,4.2297,4.2297,4.2163,4.1885,4.1762,4.1576,4.1334,4.1215,4.1249,4.1374,4.1374,4.1374,4.1374,4.1374,4.1374,4.1397,4.156,4.1604,4.1604,4.1604,4.1604,4.1604,4.1604,4.1604,4.1515,4.1129,4.0758,4.0476,4.0427,3.9718,3.9061,3.901,3.8683,3.8391,3.8391,3.8391,3.8391,3.8391,3.8391,3.8391,3.8391,3.8391,3.8391,3.8391,3.8391,3.8391,3.8391,3.8391,3.8391,3.8391,3.8391,3.8391,3.8391,3.8391,3.8391,3.8391,3.8391,3.8391,3.8391,3.8391,3.8391,3.8391,3.8391,3.8391,3.8391,3.8391,3.8391,3.8391,3.8391,3.8391,3.8391,3.8391,3.8391,3.8391,3.8391,3.8391,3.8391,3.8391,3.7549,3.6399,4.4895,4.4895,4.4895,4.4895,4.4783,4.4666,4.4549,4.4394,4.4222,4.4051,4.4013,4.4005,4.4005,4.4005,4.4005,4.4005,4.4005,4.4005,4.4005,4.4005,4.4005,4.4005,4.3771,4.3373,4.2789,4.274,4.2573,4.2297,4.2297,4.2297,4.2297,4.2297,4.2297,4.2297,4.2297,4.2297,4.2297,4.2297,4.2156,4.1927,4.1906,4.1795,4.1626,4.1615,4.1615,4.1626,4.1626,4.1626,4.1626,4.1626,4.1626,4.1637,4.1659,4.1659,4.1659,4.1659,4.1659,4.1659,4.1659,4.1659,4.1604,4.1334,4.1013,4.0725,4.054,3.9783,3.9085,3.8969,3.8641,3.8391,3.8391,3.8391,3.8391,3.8391,3.8391,3.8391,3.8391,3.8391,3.8391,3.8391,3.8391,3.8391,3.8391,3.8391,3.8391,3.8391,3.8391,3.8391,3.8391,3.8391,3.8391,3.8391,3.8391,3.8391,3.8391,3.8391,3.8391,3.8391,3.8391,3.8391,3.8391,3.8391,3.8391,3.8391,3.8391,3.8391,3.8391,3.8391,3.8391,3.8391,3.8391,3.8391,3.8391,3.8391,3.7549,3.6384,4.4895,4.4895,4.4895,4.4895,4.4783,4.4692,4.4666,4.4447,4.4285,4.4248,4.4108,4.4005,4.4005,4.4005,4.4005,4.4005,4.4005,4.4005,4.4005,4.4005,4.4005,4.4005,4.3931,4.3763,4.3416,4.294,4.2573,4.2297,4.2297,4.2297,4.2297,4.2297,4.2297,4.2297,4.2297,4.2297,4.2297,4.2297,4.2267,4.2187,4.197,4.1863,4.1827,4.167,4.1697,4.182,4.182,4.182,4.182,4.182,4.182,4.187,4.2072,4.2153,4.2153,4.2153,4.2153,4.2153,4.2153,4.2153,4.2072,4.1809,4.1197,4.0492,3.9935,3.9179,3.8558,3.8546,3.8462,3.8391,3.8391,3.8391,3.8391,3.8391,3.8391,3.8391,3.8391,3.8391,3.8391,3.8391,3.8391,3.8391,3.8391,3.8391,3.8391,3.8391,3.8391,3.8391,3.8391,3.8391,3.8391,3.8391,3.8391,3.8391,3.8391,3.8391,3.8391,3.8391,3.8391,3.8391,3.8391,3.8391,3.8391,3.8391,3.8391,3.8391,3.8391,3.8391,3.8391,3.8391,3.8391,3.8391,3.8391,3.8391,3.7549,3.6244,4.4895,4.4895,4.4895,4.4895,4.4833,4.4764,4.4718,4.4524,4.4373,4.4307,4.4113,4.4005,4.4005,4.4005,4.4005,4.4005,4.4005,4.4005,4.4005,4.4005,4.4005,4.4005,4.4005,4.3868,4.3614,4.3178,4.2797,4.2484,4.2351,4.2297,4.2297,4.2297,4.2297,4.2297,4.2297,4.2297,4.2297,4.2297,4.2297,4.2287,4.2163,4.2093,4.2072,4.1966,4.1998,4.2093,4.2093,4.2093,4.2093,4.2093,4.2093,4.2114,4.2256,4.2297,4.2297,4.2297,4.2297,4.2297,4.2297,4.2297,4.2176,4.169,4.1076,4.0456,3.9914,3.9112,3.8476,3.8406,3.8391,3.8391,3.8391,3.8391,3.8391,3.8391,3.8391,3.8391,3.8391,3.8391,3.8391,3.8391,3.8391,3.8391,3.8391,3.8391,3.8391,3.8391,3.8391,3.8391,3.8391,3.8391,3.8391,3.8391,3.8391,3.8391,3.8391,3.8391,3.8391,3.8391,3.8391,3.8391,3.8391,3.8391,3.8391,3.8391,3.8391,3.8391,3.8391,3.8391,3.8391,3.8391,3.8391,3.8191,3.7916,3.7916,3.7072,3.5786,4.4895,4.4895,4.4895,4.4895,4.4895,4.4858,4.4757,4.4619,4.4482,4.4368,4.4173,4.4051,4.4051,4.402,4.4005,4.4005,4.4005,4.4005,4.4005,4.4005,4.4005,4.4005,4.4005,4.391,4.3662,4.3347,4.305,4.2711,4.2432,4.2297,4.2297,4.2297,4.2297,4.2297,4.2297,4.2297,4.2297,4.2297,4.2297,4.2297,4.2297,4.2297,4.2297,4.2297,4.2297,4.2297,4.2297,4.2297,4.2297,4.2297,4.2297,4.2297,4.2297,4.2297,4.2297,4.2297,4.2297,4.2297,4.2297,4.2297,4.2124,4.1373,4.0908,4.0485,4.0003,3.9232,3.8602,3.849,3.8448,3.842,3.842,3.8422,3.8391,3.8391,3.8391,3.8391,3.8391,3.8391,3.8391,3.8391,3.8391,3.8391,3.8391,3.8391,3.8391,3.8391,3.8391,3.8391,3.8391,3.8391,3.8391,3.8391,3.8391,3.8391,3.8391,3.8391,3.8391,3.8391,3.8391,3.8391,3.8391,3.8391,3.8391,3.8391,3.8391,3.8391,3.8391,3.8391,3.8391,3.8377,3.8278,3.7887,3.7357,3.7148,3.6353,3.5302,4.4895,4.4895,4.4895,4.4895,4.4895,4.4889,4.4889,4.4751,4.4672,4.4652,4.4418,4.4263,4.4263,4.4097,4.4005,4.4005,4.4005,4.4005,4.4005,4.4005,4.4005,4.4005,4.4005,4.3989,4.3958,4.3462,4.305,4.2711,4.2432,4.2297,4.2297,4.2297,4.2297,4.2297,4.2297,4.2297,4.2297,4.2297,4.2297,4.2297,4.2297,4.2297,4.2297,4.2297,4.2297,4.2297,4.2297,4.2297,4.2297,4.2297,4.2297,4.2297,4.2297,4.2297,4.2297,4.2297,4.2297,4.2297,4.2297,4.2297,4.2124,4.1373,4.0908,4.0395,3.9649,3.9115,3.8764,3.875,3.8641,3.856,3.856,3.8476,3.8391,3.8391,3.8391,3.8391,3.8391,3.8391,3.8391,3.8391,3.8391,3.8391,3.8391,3.8391,3.8391,3.8391,3.8391,3.8391,3.8391,3.8391,3.8391,3.8391,3.8391,3.8391,3.8391,3.8391,3.8391,3.8391,3.8391,3.8391,3.8391,3.8391,3.8391,3.8391,3.8391,3.8391,3.8391,3.8391,3.8391,3.8335,3.7771,3.7476,3.7252,3.6087,3.5561,3.5302,4.4895,4.4895,4.4895,4.4895,4.4895,4.4895,4.4895,4.4796,4.4705,4.4705,4.4461,4.43,4.43,4.4124,4.4005,4.4005,4.4005,4.4005,4.4005,4.4005,4.4005,4.4005,4.4005,4.4005,4.4005,4.3461,4.3123,4.2976,4.2522,4.2297,4.2297,4.2297,4.2297,4.2297,4.2297,4.2297,4.2297,4.2297,4.2297,4.2297,4.2297,4.2297,4.2297,4.2297,4.2297,4.2297,4.2297,4.2297,4.2297,4.2297,4.2297,4.2297,4.2297,4.2297,4.2297,4.2297,4.2297,4.2297,4.2297,4.2297,4.2093,4.1203,4.0849,4.0461,3.9553,3.9215,3.9026,3.8832,3.875,3.8711,3.8711,3.8669,3.8628,3.8628,3.856,3.8504,3.8504,3.845,3.8391,3.8391,3.8391,3.8391,3.8391,3.8391,3.8391,3.8391,3.8391,3.8391,3.8391,3.8391,3.8391,3.8391,3.8391,3.8391,3.8391,3.8391,3.8391,3.8391,3.8391,3.8391,3.8391,3.8391,3.8391,3.8391,3.8391,3.8391,3.8391,3.8391,3.8391,3.8335,3.7653,3.6936,3.6181,3.5203,3.4839,3.4804]}]]